<?xml version="1.0" encoding="UTF-8" standalone="no" ?>
<gpx xmlns="http://www.topografix.com/GPX/1/1" xmlns:xsi="http://www.w3.org/2001/XMLSchema-instance" xsi:schemaLocation="http://www.topografix.com/GPX/1/1 http://www.topografix.com/GPX/1/1/gpx.xsd" version="1.1" creator="VisuGPX - https://www.visugpx.com">
  <metadata>
    <name>Vtt meyrargues monotraces</name>
    <desc><![CDATA[Vtt monoyrtraces meyrargues]]></desc>
  </metadata>
  <wpt lat="43.63276" lon="5.51036">
    <ele>317.83</ele>
    <name><![CDATA[Thierry Moineau]]></name>
    <desc><![CDATA[]]></desc>
    <type><![CDATA[Point de navigation]]></type>
  </wpt>
  <trk>
    <name><![CDATA[2015-04-04 14:24]]></name>
    <desc><![CDATA[<h1>OruxMaps</h1><br /><hr align="center" width="480" style="height: 2px; width: 517px"/><h2>Nom: 2015-04-04 14:24</h2><br /><p>Temps de départ: 04/04/2015 14:24</p><p>Temps d'arrivée: 04/04/2015 18:26</p><p>Distance: 40,5km (04:02)</p><p>Temps déplacement: 02:46</p><p>Vitesse moyenne: 10km/h</p><p>Vitesse moyenne: 14,6km/h</p><p>Vitess Max.: 44,2km/h</p><p>Altitude minimale: 284m</p><p>Altitude maximale: 662m</p><p>Vitesse d'élévation: 602,6m/h</p><p>Vitesse de descente: -753,6m/h</p><p>Gain Altitude: 1142m</p><p>Perte Altitude: -1154m</p><p>Temps d'élévation: 01:53</p><p>Temps de descente: 01:31</p><hr align="center" width="480" style="height: 2px; width: 517px"/>]]></desc>
    <trkseg>
      <trkpt lat="43.63259" lon="5.51029">
        <ele>319.54</ele>
        <time>2015-04-04T12:24:46Z</time>
      </trkpt>
      <trkpt lat="43.63277" lon="5.51037">
        <ele>318.97</ele>
        <time>2015-04-04T12:25:21Z</time>
      </trkpt>
      <trkpt lat="43.63268" lon="5.51015">
        <ele>323.45</ele>
        <time>2015-04-04T12:27:09Z</time>
      </trkpt>
      <trkpt lat="43.63283" lon="5.51031">
        <ele>322.81</ele>
        <time>2015-04-04T12:27:32Z</time>
      </trkpt>
      <trkpt lat="43.63267" lon="5.51017">
        <ele>322.75</ele>
        <time>2015-04-04T12:28:15Z</time>
      </trkpt>
      <trkpt lat="43.63286" lon="5.5103">
        <ele>326.66</ele>
        <time>2015-04-04T12:30:55Z</time>
      </trkpt>
      <trkpt lat="43.6327" lon="5.51018">
        <ele>345.15</ele>
        <time>2015-04-04T12:33:32Z</time>
      </trkpt>
      <trkpt lat="43.63282" lon="5.51037">
        <ele>333.4</ele>
        <time>2015-04-04T12:34:44Z</time>
      </trkpt>
      <trkpt lat="43.63223" lon="5.51023">
        <ele>334.71</ele>
        <time>2015-04-04T12:37:50Z</time>
      </trkpt>
      <trkpt lat="43.63253" lon="5.51017">
        <ele>336.55</ele>
        <time>2015-04-04T12:37:51Z</time>
      </trkpt>
      <trkpt lat="43.63271" lon="5.51013">
        <ele>337.76</ele>
        <time>2015-04-04T12:37:54Z</time>
      </trkpt>
      <trkpt lat="43.63268" lon="5.51038">
        <ele>328.05</ele>
        <time>2015-04-04T12:45:42Z</time>
      </trkpt>
      <trkpt lat="43.63265" lon="5.51013">
        <ele>324.36</ele>
        <time>2015-04-04T12:46:30Z</time>
      </trkpt>
      <trkpt lat="43.63249" lon="5.51024">
        <ele>327.71</ele>
        <time>2015-04-04T12:52:25Z</time>
      </trkpt>
      <trkpt lat="43.63241" lon="5.51047">
        <ele>328.2</ele>
        <time>2015-04-04T12:52:32Z</time>
      </trkpt>
      <trkpt lat="43.63229" lon="5.51069">
        <ele>328.99</ele>
        <time>2015-04-04T12:52:39Z</time>
      </trkpt>
      <trkpt lat="43.63215" lon="5.51085">
        <ele>329.92</ele>
        <time>2015-04-04T12:52:45Z</time>
      </trkpt>
      <trkpt lat="43.63198" lon="5.51099">
        <ele>330.64</ele>
        <time>2015-04-04T12:52:50Z</time>
      </trkpt>
      <trkpt lat="43.63184" lon="5.51118">
        <ele>332.38</ele>
        <time>2015-04-04T12:52:54Z</time>
      </trkpt>
      <trkpt lat="43.6317" lon="5.51139">
        <ele>335.58</ele>
        <time>2015-04-04T12:52:59Z</time>
      </trkpt>
      <trkpt lat="43.63152" lon="5.51143">
        <ele>336.59</ele>
        <time>2015-04-04T12:53:07Z</time>
      </trkpt>
      <trkpt lat="43.63132" lon="5.5115">
        <ele>337.41</ele>
        <time>2015-04-04T12:53:13Z</time>
      </trkpt>
      <trkpt lat="43.63115" lon="5.51136">
        <ele>338.57</ele>
        <time>2015-04-04T12:53:18Z</time>
      </trkpt>
      <trkpt lat="43.63096" lon="5.51137">
        <ele>339.61</ele>
        <time>2015-04-04T12:53:23Z</time>
      </trkpt>
      <trkpt lat="43.63085" lon="5.51158">
        <ele>342.3</ele>
        <time>2015-04-04T12:53:27Z</time>
      </trkpt>
      <trkpt lat="43.63078" lon="5.51183">
        <ele>348.92</ele>
        <time>2015-04-04T12:53:31Z</time>
      </trkpt>
      <trkpt lat="43.63071" lon="5.51207">
        <ele>350.37</ele>
        <time>2015-04-04T12:53:35Z</time>
      </trkpt>
      <trkpt lat="43.63052" lon="5.51216">
        <ele>351.01</ele>
        <time>2015-04-04T12:53:41Z</time>
      </trkpt>
      <trkpt lat="43.63037" lon="5.51194">
        <ele>351.64</ele>
        <time>2015-04-04T12:53:45Z</time>
      </trkpt>
      <trkpt lat="43.63023" lon="5.51174">
        <ele>352.23</ele>
        <time>2015-04-04T12:53:48Z</time>
      </trkpt>
      <trkpt lat="43.6301" lon="5.51154">
        <ele>352.44</ele>
        <time>2015-04-04T12:53:51Z</time>
      </trkpt>
      <trkpt lat="43.62995" lon="5.51135">
        <ele>352.5</ele>
        <time>2015-04-04T12:53:54Z</time>
      </trkpt>
      <trkpt lat="43.62978" lon="5.51115">
        <ele>352.67</ele>
        <time>2015-04-04T12:53:57Z</time>
      </trkpt>
      <trkpt lat="43.62961" lon="5.51098">
        <ele>352.64</ele>
        <time>2015-04-04T12:54:00Z</time>
      </trkpt>
      <trkpt lat="43.62944" lon="5.51082">
        <ele>352.93</ele>
        <time>2015-04-04T12:54:03Z</time>
      </trkpt>
      <trkpt lat="43.62926" lon="5.51067">
        <ele>353.42</ele>
        <time>2015-04-04T12:54:06Z</time>
      </trkpt>
      <trkpt lat="43.62909" lon="5.51053">
        <ele>353.55</ele>
        <time>2015-04-04T12:54:09Z</time>
      </trkpt>
      <trkpt lat="43.62892" lon="5.5104">
        <ele>353.61</ele>
        <time>2015-04-04T12:54:12Z</time>
      </trkpt>
      <trkpt lat="43.6287" lon="5.51026">
        <ele>354.17</ele>
        <time>2015-04-04T12:54:15Z</time>
      </trkpt>
      <trkpt lat="43.62845" lon="5.51012">
        <ele>355.4</ele>
        <time>2015-04-04T12:54:18Z</time>
      </trkpt>
      <trkpt lat="43.62828" lon="5.51004">
        <ele>356.42</ele>
        <time>2015-04-04T12:54:20Z</time>
      </trkpt>
      <trkpt lat="43.62803" lon="5.50995">
        <ele>357.46</ele>
        <time>2015-04-04T12:54:23Z</time>
      </trkpt>
      <trkpt lat="43.62781" lon="5.50989">
        <ele>357.95</ele>
        <time>2015-04-04T12:54:26Z</time>
      </trkpt>
      <trkpt lat="43.62761" lon="5.50985">
        <ele>357.43</ele>
        <time>2015-04-04T12:54:29Z</time>
      </trkpt>
      <trkpt lat="43.62743" lon="5.50981">
        <ele>357.03</ele>
        <time>2015-04-04T12:54:32Z</time>
      </trkpt>
      <trkpt lat="43.62725" lon="5.50978">
        <ele>356.92</ele>
        <time>2015-04-04T12:54:35Z</time>
      </trkpt>
      <trkpt lat="43.62706" lon="5.50976">
        <ele>357.05</ele>
        <time>2015-04-04T12:54:38Z</time>
      </trkpt>
      <trkpt lat="43.62687" lon="5.50973">
        <ele>357.6</ele>
        <time>2015-04-04T12:54:41Z</time>
      </trkpt>
      <trkpt lat="43.62668" lon="5.50969">
        <ele>358.25</ele>
        <time>2015-04-04T12:54:44Z</time>
      </trkpt>
      <trkpt lat="43.6265" lon="5.50965">
        <ele>359.23</ele>
        <time>2015-04-04T12:54:47Z</time>
      </trkpt>
      <trkpt lat="43.62632" lon="5.5096">
        <ele>360.07</ele>
        <time>2015-04-04T12:54:50Z</time>
      </trkpt>
      <trkpt lat="43.62609" lon="5.50954">
        <ele>360.59</ele>
        <time>2015-04-04T12:54:54Z</time>
      </trkpt>
      <trkpt lat="43.62589" lon="5.50948">
        <ele>361.21</ele>
        <time>2015-04-04T12:54:57Z</time>
      </trkpt>
      <trkpt lat="43.62567" lon="5.50942">
        <ele>362.72</ele>
        <time>2015-04-04T12:55:01Z</time>
      </trkpt>
      <trkpt lat="43.62546" lon="5.50935">
        <ele>363.03</ele>
        <time>2015-04-04T12:55:05Z</time>
      </trkpt>
      <trkpt lat="43.62522" lon="5.50928">
        <ele>364.16</ele>
        <time>2015-04-04T12:55:09Z</time>
      </trkpt>
      <trkpt lat="43.62502" lon="5.50921">
        <ele>363.91</ele>
        <time>2015-04-04T12:55:12Z</time>
      </trkpt>
      <trkpt lat="43.62484" lon="5.50915">
        <ele>364.04</ele>
        <time>2015-04-04T12:55:15Z</time>
      </trkpt>
      <trkpt lat="43.62464" lon="5.5091">
        <ele>364.08</ele>
        <time>2015-04-04T12:55:18Z</time>
      </trkpt>
      <trkpt lat="43.62443" lon="5.50903">
        <ele>363.88</ele>
        <time>2015-04-04T12:55:21Z</time>
      </trkpt>
      <trkpt lat="43.62423" lon="5.50897">
        <ele>364.04</ele>
        <time>2015-04-04T12:55:24Z</time>
      </trkpt>
      <trkpt lat="43.62401" lon="5.50889">
        <ele>364.67</ele>
        <time>2015-04-04T12:55:27Z</time>
      </trkpt>
      <trkpt lat="43.62379" lon="5.5088">
        <ele>365.36</ele>
        <time>2015-04-04T12:55:30Z</time>
      </trkpt>
      <trkpt lat="43.62358" lon="5.50868">
        <ele>366.58</ele>
        <time>2015-04-04T12:55:33Z</time>
      </trkpt>
      <trkpt lat="43.62341" lon="5.50857">
        <ele>367.11</ele>
        <time>2015-04-04T12:55:36Z</time>
      </trkpt>
      <trkpt lat="43.62322" lon="5.50844">
        <ele>367.51</ele>
        <time>2015-04-04T12:55:39Z</time>
      </trkpt>
      <trkpt lat="43.62305" lon="5.50829">
        <ele>367.85</ele>
        <time>2015-04-04T12:55:42Z</time>
      </trkpt>
      <trkpt lat="43.62289" lon="5.50814">
        <ele>368.16</ele>
        <time>2015-04-04T12:55:45Z</time>
      </trkpt>
      <trkpt lat="43.62271" lon="5.50796">
        <ele>368.83</ele>
        <time>2015-04-04T12:55:49Z</time>
      </trkpt>
      <trkpt lat="43.62252" lon="5.50776">
        <ele>370.61</ele>
        <time>2015-04-04T12:55:53Z</time>
      </trkpt>
      <trkpt lat="43.62232" lon="5.50757">
        <ele>372.05</ele>
        <time>2015-04-04T12:55:57Z</time>
      </trkpt>
      <trkpt lat="43.62217" lon="5.50742">
        <ele>373.18</ele>
        <time>2015-04-04T12:56:00Z</time>
      </trkpt>
      <trkpt lat="43.62202" lon="5.50728">
        <ele>374.44</ele>
        <time>2015-04-04T12:56:03Z</time>
      </trkpt>
      <trkpt lat="43.62185" lon="5.50714">
        <ele>374.07</ele>
        <time>2015-04-04T12:56:06Z</time>
      </trkpt>
      <trkpt lat="43.62164" lon="5.50699">
        <ele>373.12</ele>
        <time>2015-04-04T12:56:10Z</time>
      </trkpt>
      <trkpt lat="43.62147" lon="5.50688">
        <ele>373.43</ele>
        <time>2015-04-04T12:56:13Z</time>
      </trkpt>
      <trkpt lat="43.6213" lon="5.50678">
        <ele>374.34</ele>
        <time>2015-04-04T12:56:16Z</time>
      </trkpt>
      <trkpt lat="43.62111" lon="5.50667">
        <ele>375.76</ele>
        <time>2015-04-04T12:56:19Z</time>
      </trkpt>
      <trkpt lat="43.62089" lon="5.50656">
        <ele>378.12</ele>
        <time>2015-04-04T12:56:23Z</time>
      </trkpt>
      <trkpt lat="43.62069" lon="5.50648">
        <ele>379.43</ele>
        <time>2015-04-04T12:56:26Z</time>
      </trkpt>
      <trkpt lat="43.62046" lon="5.50641">
        <ele>380.07</ele>
        <time>2015-04-04T12:56:29Z</time>
      </trkpt>
      <trkpt lat="43.62023" lon="5.50633">
        <ele>381.27</ele>
        <time>2015-04-04T12:56:32Z</time>
      </trkpt>
      <trkpt lat="43.62003" lon="5.50628">
        <ele>382.07</ele>
        <time>2015-04-04T12:56:35Z</time>
      </trkpt>
      <trkpt lat="43.61985" lon="5.50623">
        <ele>382.42</ele>
        <time>2015-04-04T12:56:38Z</time>
      </trkpt>
      <trkpt lat="43.61962" lon="5.50616">
        <ele>382.3</ele>
        <time>2015-04-04T12:56:42Z</time>
      </trkpt>
      <trkpt lat="43.61939" lon="5.50609">
        <ele>382.08</ele>
        <time>2015-04-04T12:56:46Z</time>
      </trkpt>
      <trkpt lat="43.6192" lon="5.50602">
        <ele>382.14</ele>
        <time>2015-04-04T12:56:49Z</time>
      </trkpt>
      <trkpt lat="43.61897" lon="5.50595">
        <ele>382.13</ele>
        <time>2015-04-04T12:56:53Z</time>
      </trkpt>
      <trkpt lat="43.61875" lon="5.50587">
        <ele>382.48</ele>
        <time>2015-04-04T12:56:57Z</time>
      </trkpt>
      <trkpt lat="43.61854" lon="5.50581">
        <ele>383.61</ele>
        <time>2015-04-04T12:57:01Z</time>
      </trkpt>
      <trkpt lat="43.61832" lon="5.50575">
        <ele>384.18</ele>
        <time>2015-04-04T12:57:05Z</time>
      </trkpt>
      <trkpt lat="43.61809" lon="5.50568">
        <ele>383.78</ele>
        <time>2015-04-04T12:57:09Z</time>
      </trkpt>
      <trkpt lat="43.61787" lon="5.5056">
        <ele>383.62</ele>
        <time>2015-04-04T12:57:13Z</time>
      </trkpt>
      <trkpt lat="43.61769" lon="5.50554">
        <ele>383.48</ele>
        <time>2015-04-04T12:57:16Z</time>
      </trkpt>
      <trkpt lat="43.61751" lon="5.50547">
        <ele>384.32</ele>
        <time>2015-04-04T12:57:19Z</time>
      </trkpt>
      <trkpt lat="43.61732" lon="5.50537">
        <ele>384.71</ele>
        <time>2015-04-04T12:57:22Z</time>
      </trkpt>
      <trkpt lat="43.61711" lon="5.50525">
        <ele>384.6</ele>
        <time>2015-04-04T12:57:25Z</time>
      </trkpt>
      <trkpt lat="43.61692" lon="5.50509">
        <ele>383.23</ele>
        <time>2015-04-04T12:57:28Z</time>
      </trkpt>
      <trkpt lat="43.61671" lon="5.50491">
        <ele>382.05</ele>
        <time>2015-04-04T12:57:31Z</time>
      </trkpt>
      <trkpt lat="43.61652" lon="5.50473">
        <ele>381.06</ele>
        <time>2015-04-04T12:57:34Z</time>
      </trkpt>
      <trkpt lat="43.61632" lon="5.50453">
        <ele>380.12</ele>
        <time>2015-04-04T12:57:37Z</time>
      </trkpt>
      <trkpt lat="43.61613" lon="5.50433">
        <ele>379.49</ele>
        <time>2015-04-04T12:57:40Z</time>
      </trkpt>
      <trkpt lat="43.61596" lon="5.50413">
        <ele>378.89</ele>
        <time>2015-04-04T12:57:43Z</time>
      </trkpt>
      <trkpt lat="43.61579" lon="5.50395">
        <ele>379.27</ele>
        <time>2015-04-04T12:57:46Z</time>
      </trkpt>
      <trkpt lat="43.61563" lon="5.50377">
        <ele>380.1</ele>
        <time>2015-04-04T12:57:49Z</time>
      </trkpt>
      <trkpt lat="43.61548" lon="5.50361">
        <ele>381.15</ele>
        <time>2015-04-04T12:57:52Z</time>
      </trkpt>
      <trkpt lat="43.61532" lon="5.50343">
        <ele>381.74</ele>
        <time>2015-04-04T12:57:55Z</time>
      </trkpt>
      <trkpt lat="43.61515" lon="5.50325">
        <ele>380.75</ele>
        <time>2015-04-04T12:57:58Z</time>
      </trkpt>
      <trkpt lat="43.61499" lon="5.50307">
        <ele>379.96</ele>
        <time>2015-04-04T12:58:01Z</time>
      </trkpt>
      <trkpt lat="43.61484" lon="5.5029">
        <ele>380.16</ele>
        <time>2015-04-04T12:58:04Z</time>
      </trkpt>
      <trkpt lat="43.61467" lon="5.50272">
        <ele>379.73</ele>
        <time>2015-04-04T12:58:07Z</time>
      </trkpt>
      <trkpt lat="43.6145" lon="5.50254">
        <ele>379.21</ele>
        <time>2015-04-04T12:58:10Z</time>
      </trkpt>
      <trkpt lat="43.61433" lon="5.50236">
        <ele>378.48</ele>
        <time>2015-04-04T12:58:13Z</time>
      </trkpt>
      <trkpt lat="43.61416" lon="5.50218">
        <ele>377.72</ele>
        <time>2015-04-04T12:58:16Z</time>
      </trkpt>
      <trkpt lat="43.61398" lon="5.50198">
        <ele>376.12</ele>
        <time>2015-04-04T12:58:19Z</time>
      </trkpt>
      <trkpt lat="43.61378" lon="5.50177">
        <ele>374.63</ele>
        <time>2015-04-04T12:58:22Z</time>
      </trkpt>
      <trkpt lat="43.61361" lon="5.50156">
        <ele>373.58</ele>
        <time>2015-04-04T12:58:25Z</time>
      </trkpt>
      <trkpt lat="43.61343" lon="5.50137">
        <ele>372.56</ele>
        <time>2015-04-04T12:58:28Z</time>
      </trkpt>
      <trkpt lat="43.61326" lon="5.50118">
        <ele>371.56</ele>
        <time>2015-04-04T12:58:31Z</time>
      </trkpt>
      <trkpt lat="43.61306" lon="5.50097">
        <ele>371.03</ele>
        <time>2015-04-04T12:58:34Z</time>
      </trkpt>
      <trkpt lat="43.61286" lon="5.50075">
        <ele>370.7</ele>
        <time>2015-04-04T12:58:37Z</time>
      </trkpt>
      <trkpt lat="43.61265" lon="5.50052">
        <ele>369.46</ele>
        <time>2015-04-04T12:58:40Z</time>
      </trkpt>
      <trkpt lat="43.6125" lon="5.50036">
        <ele>368.75</ele>
        <time>2015-04-04T12:58:42Z</time>
      </trkpt>
      <trkpt lat="43.61234" lon="5.50019">
        <ele>367.58</ele>
        <time>2015-04-04T12:58:44Z</time>
      </trkpt>
      <trkpt lat="43.61219" lon="5.50002">
        <ele>366.41</ele>
        <time>2015-04-04T12:58:46Z</time>
      </trkpt>
      <trkpt lat="43.61205" lon="5.49985">
        <ele>365.62</ele>
        <time>2015-04-04T12:58:48Z</time>
      </trkpt>
      <trkpt lat="43.61189" lon="5.49968">
        <ele>364.73</ele>
        <time>2015-04-04T12:58:50Z</time>
      </trkpt>
      <trkpt lat="43.61174" lon="5.49951">
        <ele>363.81</ele>
        <time>2015-04-04T12:58:52Z</time>
      </trkpt>
      <trkpt lat="43.61159" lon="5.49935">
        <ele>363.47</ele>
        <time>2015-04-04T12:58:54Z</time>
      </trkpt>
      <trkpt lat="43.61144" lon="5.4992">
        <ele>363.37</ele>
        <time>2015-04-04T12:58:56Z</time>
      </trkpt>
      <trkpt lat="43.6113" lon="5.49905">
        <ele>363.3</ele>
        <time>2015-04-04T12:58:58Z</time>
      </trkpt>
      <trkpt lat="43.6111" lon="5.49885">
        <ele>362.37</ele>
        <time>2015-04-04T12:59:01Z</time>
      </trkpt>
      <trkpt lat="43.6109" lon="5.49867">
        <ele>360.48</ele>
        <time>2015-04-04T12:59:04Z</time>
      </trkpt>
      <trkpt lat="43.61071" lon="5.4985">
        <ele>359.13</ele>
        <time>2015-04-04T12:59:07Z</time>
      </trkpt>
      <trkpt lat="43.61053" lon="5.49844">
        <ele>358.2</ele>
        <time>2015-04-04T12:59:12Z</time>
      </trkpt>
      <trkpt lat="43.61045" lon="5.49869">
        <ele>357.91</ele>
        <time>2015-04-04T12:59:16Z</time>
      </trkpt>
      <trkpt lat="43.61031" lon="5.49892">
        <ele>358.92</ele>
        <time>2015-04-04T12:59:21Z</time>
      </trkpt>
      <trkpt lat="43.6102" lon="5.49913">
        <ele>360.14</ele>
        <time>2015-04-04T12:59:26Z</time>
      </trkpt>
      <trkpt lat="43.61001" lon="5.4991">
        <ele>360.57</ele>
        <time>2015-04-04T12:59:32Z</time>
      </trkpt>
      <trkpt lat="43.60982" lon="5.49909">
        <ele>360.94</ele>
        <time>2015-04-04T12:59:38Z</time>
      </trkpt>
      <trkpt lat="43.60964" lon="5.49904">
        <ele>361.66</ele>
        <time>2015-04-04T12:59:42Z</time>
      </trkpt>
      <trkpt lat="43.60947" lon="5.49895">
        <ele>361.79</ele>
        <time>2015-04-04T12:59:46Z</time>
      </trkpt>
      <trkpt lat="43.60929" lon="5.49883">
        <ele>361.36</ele>
        <time>2015-04-04T12:59:50Z</time>
      </trkpt>
      <trkpt lat="43.60912" lon="5.49871">
        <ele>361.55</ele>
        <time>2015-04-04T12:59:54Z</time>
      </trkpt>
      <trkpt lat="43.60903" lon="5.49895">
        <ele>362.51</ele>
        <time>2015-04-04T13:00:01Z</time>
      </trkpt>
      <trkpt lat="43.60913" lon="5.49922">
        <ele>363.91</ele>
        <time>2015-04-04T13:00:05Z</time>
      </trkpt>
      <trkpt lat="43.60927" lon="5.49942">
        <ele>362.32</ele>
        <time>2015-04-04T13:00:09Z</time>
      </trkpt>
      <trkpt lat="43.60928" lon="5.49968">
        <ele>362.43</ele>
        <time>2015-04-04T13:00:13Z</time>
      </trkpt>
      <trkpt lat="43.60918" lon="5.49988">
        <ele>363.42</ele>
        <time>2015-04-04T13:00:17Z</time>
      </trkpt>
      <trkpt lat="43.60901" lon="5.50005">
        <ele>364.28</ele>
        <time>2015-04-04T13:00:23Z</time>
      </trkpt>
      <trkpt lat="43.60895" lon="5.50031">
        <ele>365.07</ele>
        <time>2015-04-04T13:00:28Z</time>
      </trkpt>
      <trkpt lat="43.60887" lon="5.50055">
        <ele>368.89</ele>
        <time>2015-04-04T13:00:32Z</time>
      </trkpt>
      <trkpt lat="43.60887" lon="5.50084">
        <ele>370.79</ele>
        <time>2015-04-04T13:00:37Z</time>
      </trkpt>
      <trkpt lat="43.6089" lon="5.5011">
        <ele>375.83</ele>
        <time>2015-04-04T13:00:52Z</time>
      </trkpt>
      <trkpt lat="43.60883" lon="5.50135">
        <ele>376.66</ele>
        <time>2015-04-04T13:00:58Z</time>
      </trkpt>
      <trkpt lat="43.60871" lon="5.50155">
        <ele>377.48</ele>
        <time>2015-04-04T13:01:04Z</time>
      </trkpt>
      <trkpt lat="43.60869" lon="5.50182">
        <ele>377.99</ele>
        <time>2015-04-04T13:01:10Z</time>
      </trkpt>
      <trkpt lat="43.60864" lon="5.50211">
        <ele>381.04</ele>
        <time>2015-04-04T13:01:15Z</time>
      </trkpt>
      <trkpt lat="43.60853" lon="5.50235">
        <ele>383.96</ele>
        <time>2015-04-04T13:01:20Z</time>
      </trkpt>
      <trkpt lat="43.60841" lon="5.50256">
        <ele>384.34</ele>
        <time>2015-04-04T13:01:25Z</time>
      </trkpt>
      <trkpt lat="43.60829" lon="5.5028">
        <ele>384.74</ele>
        <time>2015-04-04T13:01:31Z</time>
      </trkpt>
      <trkpt lat="43.60816" lon="5.50306">
        <ele>387.43</ele>
        <time>2015-04-04T13:01:36Z</time>
      </trkpt>
      <trkpt lat="43.60806" lon="5.50327">
        <ele>388.25</ele>
        <time>2015-04-04T13:01:40Z</time>
      </trkpt>
      <trkpt lat="43.60796" lon="5.50351">
        <ele>388.83</ele>
        <time>2015-04-04T13:01:44Z</time>
      </trkpt>
      <trkpt lat="43.60787" lon="5.50375">
        <ele>389.61</ele>
        <time>2015-04-04T13:01:48Z</time>
      </trkpt>
      <trkpt lat="43.60777" lon="5.504">
        <ele>389.86</ele>
        <time>2015-04-04T13:01:52Z</time>
      </trkpt>
      <trkpt lat="43.60766" lon="5.50425">
        <ele>389.26</ele>
        <time>2015-04-04T13:01:57Z</time>
      </trkpt>
      <trkpt lat="43.60752" lon="5.5045">
        <ele>388.83</ele>
        <time>2015-04-04T13:02:03Z</time>
      </trkpt>
      <trkpt lat="43.60736" lon="5.50474">
        <ele>389.22</ele>
        <time>2015-04-04T13:02:07Z</time>
      </trkpt>
      <trkpt lat="43.60728" lon="5.505">
        <ele>389.34</ele>
        <time>2015-04-04T13:02:11Z</time>
      </trkpt>
      <trkpt lat="43.60725" lon="5.50525">
        <ele>387.83</ele>
        <time>2015-04-04T13:02:15Z</time>
      </trkpt>
      <trkpt lat="43.60723" lon="5.5055">
        <ele>387.66</ele>
        <time>2015-04-04T13:02:20Z</time>
      </trkpt>
      <trkpt lat="43.60723" lon="5.50579">
        <ele>388.66</ele>
        <time>2015-04-04T13:02:25Z</time>
      </trkpt>
      <trkpt lat="43.60727" lon="5.50608">
        <ele>389.09</ele>
        <time>2015-04-04T13:02:28Z</time>
      </trkpt>
      <trkpt lat="43.6073" lon="5.50635">
        <ele>388.5</ele>
        <time>2015-04-04T13:02:31Z</time>
      </trkpt>
      <trkpt lat="43.60723" lon="5.5066">
        <ele>388.35</ele>
        <time>2015-04-04T13:02:35Z</time>
      </trkpt>
      <trkpt lat="43.60727" lon="5.50689">
        <ele>387.6</ele>
        <time>2015-04-04T13:02:39Z</time>
      </trkpt>
      <trkpt lat="43.60731" lon="5.50715">
        <ele>387.78</ele>
        <time>2015-04-04T13:02:43Z</time>
      </trkpt>
      <trkpt lat="43.60729" lon="5.50742">
        <ele>387.69</ele>
        <time>2015-04-04T13:02:47Z</time>
      </trkpt>
      <trkpt lat="43.60731" lon="5.50771">
        <ele>386.42</ele>
        <time>2015-04-04T13:02:51Z</time>
      </trkpt>
      <trkpt lat="43.60739" lon="5.50794">
        <ele>384.9</ele>
        <time>2015-04-04T13:02:55Z</time>
      </trkpt>
      <trkpt lat="43.60744" lon="5.50822">
        <ele>384.74</ele>
        <time>2015-04-04T13:03:00Z</time>
      </trkpt>
      <trkpt lat="43.60744" lon="5.50847">
        <ele>384.87</ele>
        <time>2015-04-04T13:03:04Z</time>
      </trkpt>
      <trkpt lat="43.60734" lon="5.50873">
        <ele>385.06</ele>
        <time>2015-04-04T13:03:09Z</time>
      </trkpt>
      <trkpt lat="43.60719" lon="5.50893">
        <ele>386.32</ele>
        <time>2015-04-04T13:03:13Z</time>
      </trkpt>
      <trkpt lat="43.60704" lon="5.50913">
        <ele>387.47</ele>
        <time>2015-04-04T13:03:17Z</time>
      </trkpt>
      <trkpt lat="43.60686" lon="5.50924">
        <ele>388.81</ele>
        <time>2015-04-04T13:03:56Z</time>
      </trkpt>
      <trkpt lat="43.60667" lon="5.50938">
        <ele>388.46</ele>
        <time>2015-04-04T13:04:01Z</time>
      </trkpt>
      <trkpt lat="43.60648" lon="5.50946">
        <ele>387.19</ele>
        <time>2015-04-04T13:04:06Z</time>
      </trkpt>
      <trkpt lat="43.6063" lon="5.50953">
        <ele>387.31</ele>
        <time>2015-04-04T13:04:10Z</time>
      </trkpt>
      <trkpt lat="43.6061" lon="5.50955">
        <ele>387.63</ele>
        <time>2015-04-04T13:04:16Z</time>
      </trkpt>
      <trkpt lat="43.6059" lon="5.50958">
        <ele>387.77</ele>
        <time>2015-04-04T13:04:23Z</time>
      </trkpt>
      <trkpt lat="43.60571" lon="5.50962">
        <ele>388.05</ele>
        <time>2015-04-04T13:04:28Z</time>
      </trkpt>
      <trkpt lat="43.60553" lon="5.50965">
        <ele>388.29</ele>
        <time>2015-04-04T13:04:33Z</time>
      </trkpt>
      <trkpt lat="43.60532" lon="5.50962">
        <ele>388.9</ele>
        <time>2015-04-04T13:04:38Z</time>
      </trkpt>
      <trkpt lat="43.60512" lon="5.50962">
        <ele>389.51</ele>
        <time>2015-04-04T13:04:42Z</time>
      </trkpt>
      <trkpt lat="43.60491" lon="5.5096">
        <ele>392.28</ele>
        <time>2015-04-04T13:04:47Z</time>
      </trkpt>
      <trkpt lat="43.60469" lon="5.50956">
        <ele>394.4</ele>
        <time>2015-04-04T13:04:52Z</time>
      </trkpt>
      <trkpt lat="43.60447" lon="5.50955">
        <ele>395.85</ele>
        <time>2015-04-04T13:04:57Z</time>
      </trkpt>
      <trkpt lat="43.60426" lon="5.50953">
        <ele>396.51</ele>
        <time>2015-04-04T13:05:02Z</time>
      </trkpt>
      <trkpt lat="43.60407" lon="5.50952">
        <ele>397.19</ele>
        <time>2015-04-04T13:05:07Z</time>
      </trkpt>
      <trkpt lat="43.60389" lon="5.50958">
        <ele>402.65</ele>
        <time>2015-04-04T13:05:11Z</time>
      </trkpt>
      <trkpt lat="43.60369" lon="5.50957">
        <ele>404.01</ele>
        <time>2015-04-04T13:05:15Z</time>
      </trkpt>
      <trkpt lat="43.60352" lon="5.50949">
        <ele>404.2</ele>
        <time>2015-04-04T13:05:19Z</time>
      </trkpt>
      <trkpt lat="43.60333" lon="5.50939">
        <ele>404.4</ele>
        <time>2015-04-04T13:05:23Z</time>
      </trkpt>
      <trkpt lat="43.60316" lon="5.5093">
        <ele>403.38</ele>
        <time>2015-04-04T13:05:26Z</time>
      </trkpt>
      <trkpt lat="43.60296" lon="5.50919">
        <ele>403.54</ele>
        <time>2015-04-04T13:05:30Z</time>
      </trkpt>
      <trkpt lat="43.60278" lon="5.50911">
        <ele>404.55</ele>
        <time>2015-04-04T13:05:34Z</time>
      </trkpt>
      <trkpt lat="43.60261" lon="5.50903">
        <ele>405.74</ele>
        <time>2015-04-04T13:05:40Z</time>
      </trkpt>
      <trkpt lat="43.6024" lon="5.50893">
        <ele>410.95</ele>
        <time>2015-04-04T13:05:45Z</time>
      </trkpt>
      <trkpt lat="43.60219" lon="5.50884">
        <ele>412.51</ele>
        <time>2015-04-04T13:05:50Z</time>
      </trkpt>
      <trkpt lat="43.60202" lon="5.50891">
        <ele>413.26</ele>
        <time>2015-04-04T13:05:54Z</time>
      </trkpt>
      <trkpt lat="43.60188" lon="5.5091">
        <ele>413.12</ele>
        <time>2015-04-04T13:05:59Z</time>
      </trkpt>
      <trkpt lat="43.60173" lon="5.50925">
        <ele>412.48</ele>
        <time>2015-04-04T13:06:10Z</time>
      </trkpt>
      <trkpt lat="43.60153" lon="5.50926">
        <ele>414.45</ele>
        <time>2015-04-04T13:06:18Z</time>
      </trkpt>
      <trkpt lat="43.60136" lon="5.5094">
        <ele>416.7</ele>
        <time>2015-04-04T13:06:26Z</time>
      </trkpt>
      <trkpt lat="43.6012" lon="5.50955">
        <ele>418.77</ele>
        <time>2015-04-04T13:06:33Z</time>
      </trkpt>
      <trkpt lat="43.60101" lon="5.50963">
        <ele>421.79</ele>
        <time>2015-04-04T13:06:42Z</time>
      </trkpt>
      <trkpt lat="43.60083" lon="5.50973">
        <ele>424.47</ele>
        <time>2015-04-04T13:06:49Z</time>
      </trkpt>
      <trkpt lat="43.60063" lon="5.50978">
        <ele>427.32</ele>
        <time>2015-04-04T13:06:57Z</time>
      </trkpt>
      <trkpt lat="43.60045" lon="5.50961">
        <ele>429.46</ele>
        <time>2015-04-04T13:07:03Z</time>
      </trkpt>
      <trkpt lat="43.60033" lon="5.5094">
        <ele>430.77</ele>
        <time>2015-04-04T13:07:07Z</time>
      </trkpt>
      <trkpt lat="43.60018" lon="5.50924">
        <ele>432.09</ele>
        <time>2015-04-04T13:07:12Z</time>
      </trkpt>
      <trkpt lat="43.6" lon="5.50914">
        <ele>433.11</ele>
        <time>2015-04-04T13:07:16Z</time>
      </trkpt>
      <trkpt lat="43.5998" lon="5.50908">
        <ele>434.55</ele>
        <time>2015-04-04T13:07:19Z</time>
      </trkpt>
      <trkpt lat="43.59962" lon="5.509">
        <ele>437.59</ele>
        <time>2015-04-04T13:07:22Z</time>
      </trkpt>
      <trkpt lat="43.59945" lon="5.50889">
        <ele>439.25</ele>
        <time>2015-04-04T13:07:25Z</time>
      </trkpt>
      <trkpt lat="43.59927" lon="5.50877">
        <ele>440.34</ele>
        <time>2015-04-04T13:07:28Z</time>
      </trkpt>
      <trkpt lat="43.59911" lon="5.50866">
        <ele>442.32</ele>
        <time>2015-04-04T13:07:31Z</time>
      </trkpt>
      <trkpt lat="43.5989" lon="5.50849">
        <ele>444.21</ele>
        <time>2015-04-04T13:07:35Z</time>
      </trkpt>
      <trkpt lat="43.59871" lon="5.50839">
        <ele>443.34</ele>
        <time>2015-04-04T13:07:39Z</time>
      </trkpt>
      <trkpt lat="43.59864" lon="5.50869">
        <ele>443.29</ele>
        <time>2015-04-04T13:07:45Z</time>
      </trkpt>
      <trkpt lat="43.59857" lon="5.50892">
        <ele>443.43</ele>
        <time>2015-04-04T13:07:49Z</time>
      </trkpt>
      <trkpt lat="43.59842" lon="5.50915">
        <ele>443.79</ele>
        <time>2015-04-04T13:07:54Z</time>
      </trkpt>
      <trkpt lat="43.59827" lon="5.50933">
        <ele>442.98</ele>
        <time>2015-04-04T13:07:58Z</time>
      </trkpt>
      <trkpt lat="43.59809" lon="5.5095">
        <ele>442.94</ele>
        <time>2015-04-04T13:08:02Z</time>
      </trkpt>
      <trkpt lat="43.59791" lon="5.5097">
        <ele>441.86</ele>
        <time>2015-04-04T13:08:06Z</time>
      </trkpt>
      <trkpt lat="43.5978" lon="5.5099">
        <ele>439.16</ele>
        <time>2015-04-04T13:08:10Z</time>
      </trkpt>
      <trkpt lat="43.59764" lon="5.51014">
        <ele>436.1</ele>
        <time>2015-04-04T13:08:14Z</time>
      </trkpt>
      <trkpt lat="43.59748" lon="5.51039">
        <ele>434.11</ele>
        <time>2015-04-04T13:08:18Z</time>
      </trkpt>
      <trkpt lat="43.59734" lon="5.51062">
        <ele>432.72</ele>
        <time>2015-04-04T13:08:21Z</time>
      </trkpt>
      <trkpt lat="43.59719" lon="5.5108">
        <ele>431.97</ele>
        <time>2015-04-04T13:08:25Z</time>
      </trkpt>
      <trkpt lat="43.597" lon="5.51088">
        <ele>431.61</ele>
        <time>2015-04-04T13:08:31Z</time>
      </trkpt>
      <trkpt lat="43.5968" lon="5.51081">
        <ele>430.6</ele>
        <time>2015-04-04T13:08:37Z</time>
      </trkpt>
      <trkpt lat="43.59663" lon="5.51066">
        <ele>429.14</ele>
        <time>2015-04-04T13:08:45Z</time>
      </trkpt>
      <trkpt lat="43.59665" lon="5.51034">
        <ele>426.54</ele>
        <time>2015-04-04T13:08:50Z</time>
      </trkpt>
      <trkpt lat="43.59672" lon="5.5101">
        <ele>423.17</ele>
        <time>2015-04-04T13:08:53Z</time>
      </trkpt>
      <trkpt lat="43.59677" lon="5.5098">
        <ele>420.3</ele>
        <time>2015-04-04T13:08:56Z</time>
      </trkpt>
      <trkpt lat="43.59679" lon="5.50952">
        <ele>417.96</ele>
        <time>2015-04-04T13:08:59Z</time>
      </trkpt>
      <trkpt lat="43.59663" lon="5.50935">
        <ele>415.86</ele>
        <time>2015-04-04T13:09:03Z</time>
      </trkpt>
      <trkpt lat="43.59644" lon="5.50948">
        <ele>414.92</ele>
        <time>2015-04-04T13:09:08Z</time>
      </trkpt>
      <trkpt lat="43.59624" lon="5.50961">
        <ele>414.4</ele>
        <time>2015-04-04T13:09:12Z</time>
      </trkpt>
      <trkpt lat="43.59604" lon="5.50965">
        <ele>412.32</ele>
        <time>2015-04-04T13:09:16Z</time>
      </trkpt>
      <trkpt lat="43.59593" lon="5.50943">
        <ele>411.32</ele>
        <time>2015-04-04T13:09:20Z</time>
      </trkpt>
      <trkpt lat="43.59583" lon="5.50917">
        <ele>409.7</ele>
        <time>2015-04-04T13:09:24Z</time>
      </trkpt>
      <trkpt lat="43.59562" lon="5.50913">
        <ele>409.53</ele>
        <time>2015-04-04T13:09:28Z</time>
      </trkpt>
      <trkpt lat="43.59543" lon="5.50914">
        <ele>410.86</ele>
        <time>2015-04-04T13:09:33Z</time>
      </trkpt>
      <trkpt lat="43.59523" lon="5.50928">
        <ele>411.28</ele>
        <time>2015-04-04T13:09:39Z</time>
      </trkpt>
      <trkpt lat="43.59505" lon="5.50931">
        <ele>411.49</ele>
        <time>2015-04-04T13:09:45Z</time>
      </trkpt>
      <trkpt lat="43.59492" lon="5.50914">
        <ele>411.48</ele>
        <time>2015-04-04T13:09:51Z</time>
      </trkpt>
      <trkpt lat="43.5948" lon="5.50886">
        <ele>409.49</ele>
        <time>2015-04-04T13:09:55Z</time>
      </trkpt>
      <trkpt lat="43.59459" lon="5.50875">
        <ele>407.98</ele>
        <time>2015-04-04T13:09:59Z</time>
      </trkpt>
      <trkpt lat="43.59442" lon="5.50886">
        <ele>408</ele>
        <time>2015-04-04T13:10:02Z</time>
      </trkpt>
      <trkpt lat="43.59432" lon="5.50914">
        <ele>405.28</ele>
        <time>2015-04-04T13:10:06Z</time>
      </trkpt>
      <trkpt lat="43.59421" lon="5.50941">
        <ele>400.44</ele>
        <time>2015-04-04T13:10:10Z</time>
      </trkpt>
      <trkpt lat="43.59406" lon="5.50961">
        <ele>397.38</ele>
        <time>2015-04-04T13:10:14Z</time>
      </trkpt>
      <trkpt lat="43.59386" lon="5.50974">
        <ele>395.27</ele>
        <time>2015-04-04T13:10:19Z</time>
      </trkpt>
      <trkpt lat="43.59368" lon="5.50991">
        <ele>396.05</ele>
        <time>2015-04-04T13:10:24Z</time>
      </trkpt>
      <trkpt lat="43.59352" lon="5.51011">
        <ele>398.86</ele>
        <time>2015-04-04T13:10:29Z</time>
      </trkpt>
      <trkpt lat="43.59337" lon="5.51032">
        <ele>400.77</ele>
        <time>2015-04-04T13:10:34Z</time>
      </trkpt>
      <trkpt lat="43.59323" lon="5.51049">
        <ele>402.95</ele>
        <time>2015-04-04T13:10:38Z</time>
      </trkpt>
      <trkpt lat="43.5931" lon="5.51068">
        <ele>403.09</ele>
        <time>2015-04-04T13:10:41Z</time>
      </trkpt>
      <trkpt lat="43.59298" lon="5.5109">
        <ele>400.47</ele>
        <time>2015-04-04T13:10:45Z</time>
      </trkpt>
      <trkpt lat="43.5928" lon="5.51099">
        <ele>398.44</ele>
        <time>2015-04-04T13:10:49Z</time>
      </trkpt>
      <trkpt lat="43.59274" lon="5.51069">
        <ele>397.39</ele>
        <time>2015-04-04T13:10:54Z</time>
      </trkpt>
      <trkpt lat="43.5928" lon="5.51041">
        <ele>396.72</ele>
        <time>2015-04-04T13:10:58Z</time>
      </trkpt>
      <trkpt lat="43.59285" lon="5.51014">
        <ele>398.75</ele>
        <time>2015-04-04T13:11:02Z</time>
      </trkpt>
      <trkpt lat="43.59292" lon="5.50985">
        <ele>400.91</ele>
        <time>2015-04-04T13:11:07Z</time>
      </trkpt>
      <trkpt lat="43.59304" lon="5.50958">
        <ele>401.01</ele>
        <time>2015-04-04T13:11:11Z</time>
      </trkpt>
      <trkpt lat="43.59308" lon="5.5093">
        <ele>401.05</ele>
        <time>2015-04-04T13:11:16Z</time>
      </trkpt>
      <trkpt lat="43.59292" lon="5.50909">
        <ele>401.13</ele>
        <time>2015-04-04T13:11:21Z</time>
      </trkpt>
      <trkpt lat="43.59275" lon="5.50899">
        <ele>402.16</ele>
        <time>2015-04-04T13:11:25Z</time>
      </trkpt>
      <trkpt lat="43.59254" lon="5.5089">
        <ele>403.95</ele>
        <time>2015-04-04T13:11:30Z</time>
      </trkpt>
      <trkpt lat="43.59237" lon="5.50878">
        <ele>405.34</ele>
        <time>2015-04-04T13:11:34Z</time>
      </trkpt>
      <trkpt lat="43.59227" lon="5.50855">
        <ele>407.08</ele>
        <time>2015-04-04T13:11:38Z</time>
      </trkpt>
      <trkpt lat="43.59225" lon="5.50826">
        <ele>410.48</ele>
        <time>2015-04-04T13:11:43Z</time>
      </trkpt>
      <trkpt lat="43.5922" lon="5.50798">
        <ele>412.21</ele>
        <time>2015-04-04T13:11:48Z</time>
      </trkpt>
      <trkpt lat="43.59214" lon="5.50771">
        <ele>412.18</ele>
        <time>2015-04-04T13:11:53Z</time>
      </trkpt>
      <trkpt lat="43.59212" lon="5.5074">
        <ele>411.72</ele>
        <time>2015-04-04T13:11:57Z</time>
      </trkpt>
      <trkpt lat="43.59191" lon="5.50727">
        <ele>410.72</ele>
        <time>2015-04-04T13:12:01Z</time>
      </trkpt>
      <trkpt lat="43.59173" lon="5.5073">
        <ele>411.6</ele>
        <time>2015-04-04T13:12:05Z</time>
      </trkpt>
      <trkpt lat="43.59153" lon="5.50727">
        <ele>412.08</ele>
        <time>2015-04-04T13:12:09Z</time>
      </trkpt>
      <trkpt lat="43.59138" lon="5.5071">
        <ele>412.23</ele>
        <time>2015-04-04T13:12:13Z</time>
      </trkpt>
      <trkpt lat="43.59129" lon="5.50682">
        <ele>411.44</ele>
        <time>2015-04-04T13:12:17Z</time>
      </trkpt>
      <trkpt lat="43.59137" lon="5.50658">
        <ele>409.91</ele>
        <time>2015-04-04T13:12:21Z</time>
      </trkpt>
      <trkpt lat="43.59142" lon="5.50632">
        <ele>410.52</ele>
        <time>2015-04-04T13:12:25Z</time>
      </trkpt>
      <trkpt lat="43.59122" lon="5.50641">
        <ele>409.65</ele>
        <time>2015-04-04T13:12:31Z</time>
      </trkpt>
      <trkpt lat="43.59104" lon="5.50645">
        <ele>405.79</ele>
        <time>2015-04-04T13:12:35Z</time>
      </trkpt>
      <trkpt lat="43.59085" lon="5.50645">
        <ele>402.61</ele>
        <time>2015-04-04T13:12:39Z</time>
      </trkpt>
      <trkpt lat="43.59071" lon="5.50666">
        <ele>402.56</ele>
        <time>2015-04-04T13:12:43Z</time>
      </trkpt>
      <trkpt lat="43.59066" lon="5.50698">
        <ele>401.93</ele>
        <time>2015-04-04T13:12:47Z</time>
      </trkpt>
      <trkpt lat="43.59063" lon="5.50729">
        <ele>400.43</ele>
        <time>2015-04-04T13:12:51Z</time>
      </trkpt>
      <trkpt lat="43.59052" lon="5.50753">
        <ele>397.99</ele>
        <time>2015-04-04T13:12:56Z</time>
      </trkpt>
      <trkpt lat="43.59034" lon="5.50767">
        <ele>395.09</ele>
        <time>2015-04-04T13:13:00Z</time>
      </trkpt>
      <trkpt lat="43.59016" lon="5.50783">
        <ele>393.02</ele>
        <time>2015-04-04T13:13:03Z</time>
      </trkpt>
      <trkpt lat="43.58998" lon="5.508">
        <ele>389.79</ele>
        <time>2015-04-04T13:13:07Z</time>
      </trkpt>
      <trkpt lat="43.58983" lon="5.50818">
        <ele>387.46</ele>
        <time>2015-04-04T13:13:10Z</time>
      </trkpt>
      <trkpt lat="43.58971" lon="5.50835">
        <ele>385.81</ele>
        <time>2015-04-04T13:13:13Z</time>
      </trkpt>
      <trkpt lat="43.5896" lon="5.50857">
        <ele>383.58</ele>
        <time>2015-04-04T13:13:17Z</time>
      </trkpt>
      <trkpt lat="43.58957" lon="5.50883">
        <ele>379.53</ele>
        <time>2015-04-04T13:13:21Z</time>
      </trkpt>
      <trkpt lat="43.5894" lon="5.50896">
        <ele>377.71</ele>
        <time>2015-04-04T13:13:28Z</time>
      </trkpt>
      <trkpt lat="43.58921" lon="5.50889">
        <ele>377.4</ele>
        <time>2015-04-04T13:13:35Z</time>
      </trkpt>
      <trkpt lat="43.58912" lon="5.50914">
        <ele>376.65</ele>
        <time>2015-04-04T13:13:40Z</time>
      </trkpt>
      <trkpt lat="43.58916" lon="5.5094">
        <ele>375.46</ele>
        <time>2015-04-04T13:13:47Z</time>
      </trkpt>
      <trkpt lat="43.58906" lon="5.50963">
        <ele>374.28</ele>
        <time>2015-04-04T13:13:53Z</time>
      </trkpt>
      <trkpt lat="43.58887" lon="5.50971">
        <ele>373.63</ele>
        <time>2015-04-04T13:13:58Z</time>
      </trkpt>
      <trkpt lat="43.58869" lon="5.50983">
        <ele>372.84</ele>
        <time>2015-04-04T13:14:04Z</time>
      </trkpt>
      <trkpt lat="43.58849" lon="5.50993">
        <ele>372.23</ele>
        <time>2015-04-04T13:14:11Z</time>
      </trkpt>
      <trkpt lat="43.58835" lon="5.51009">
        <ele>372.05</ele>
        <time>2015-04-04T13:14:17Z</time>
      </trkpt>
      <trkpt lat="43.58821" lon="5.51032">
        <ele>372.14</ele>
        <time>2015-04-04T13:14:23Z</time>
      </trkpt>
      <trkpt lat="43.5881" lon="5.51056">
        <ele>372.32</ele>
        <time>2015-04-04T13:14:29Z</time>
      </trkpt>
      <trkpt lat="43.58799" lon="5.51081">
        <ele>372.42</ele>
        <time>2015-04-04T13:14:35Z</time>
      </trkpt>
      <trkpt lat="43.58792" lon="5.51105">
        <ele>372.87</ele>
        <time>2015-04-04T13:14:40Z</time>
      </trkpt>
      <trkpt lat="43.58777" lon="5.51127">
        <ele>373.43</ele>
        <time>2015-04-04T13:14:47Z</time>
      </trkpt>
      <trkpt lat="43.58761" lon="5.51144">
        <ele>373.75</ele>
        <time>2015-04-04T13:14:53Z</time>
      </trkpt>
      <trkpt lat="43.58751" lon="5.51166">
        <ele>373.87</ele>
        <time>2015-04-04T13:14:59Z</time>
      </trkpt>
      <trkpt lat="43.58752" lon="5.51192">
        <ele>374.22</ele>
        <time>2015-04-04T13:15:04Z</time>
      </trkpt>
      <trkpt lat="43.58739" lon="5.51216">
        <ele>374.64</ele>
        <time>2015-04-04T13:15:10Z</time>
      </trkpt>
      <trkpt lat="43.58723" lon="5.51231">
        <ele>375</ele>
        <time>2015-04-04T13:15:15Z</time>
      </trkpt>
      <trkpt lat="43.58708" lon="5.51247">
        <ele>376.26</ele>
        <time>2015-04-04T13:15:20Z</time>
      </trkpt>
      <trkpt lat="43.58695" lon="5.51265">
        <ele>377.27</ele>
        <time>2015-04-04T13:15:25Z</time>
      </trkpt>
      <trkpt lat="43.58679" lon="5.51281">
        <ele>378.01</ele>
        <time>2015-04-04T13:15:30Z</time>
      </trkpt>
      <trkpt lat="43.58662" lon="5.51292">
        <ele>380.22</ele>
        <time>2015-04-04T13:15:34Z</time>
      </trkpt>
      <trkpt lat="43.58642" lon="5.51302">
        <ele>382.37</ele>
        <time>2015-04-04T13:15:39Z</time>
      </trkpt>
      <trkpt lat="43.58623" lon="5.51308">
        <ele>382.8</ele>
        <time>2015-04-04T13:15:44Z</time>
      </trkpt>
      <trkpt lat="43.58604" lon="5.5131">
        <ele>384.57</ele>
        <time>2015-04-04T13:15:48Z</time>
      </trkpt>
      <trkpt lat="43.58583" lon="5.51317">
        <ele>386.15</ele>
        <time>2015-04-04T13:15:54Z</time>
      </trkpt>
      <trkpt lat="43.58561" lon="5.51321">
        <ele>386.88</ele>
        <time>2015-04-04T13:16:00Z</time>
      </trkpt>
      <trkpt lat="43.58541" lon="5.51321">
        <ele>389.12</ele>
        <time>2015-04-04T13:16:05Z</time>
      </trkpt>
      <trkpt lat="43.58523" lon="5.51322">
        <ele>389.86</ele>
        <time>2015-04-04T13:16:09Z</time>
      </trkpt>
      <trkpt lat="43.58503" lon="5.51331">
        <ele>390.14</ele>
        <time>2015-04-04T13:16:14Z</time>
      </trkpt>
      <trkpt lat="43.5849" lon="5.51347">
        <ele>390.21</ele>
        <time>2015-04-04T13:16:19Z</time>
      </trkpt>
      <trkpt lat="43.58476" lon="5.51368">
        <ele>390.62</ele>
        <time>2015-04-04T13:16:25Z</time>
      </trkpt>
      <trkpt lat="43.58471" lon="5.51395">
        <ele>391.45</ele>
        <time>2015-04-04T13:16:30Z</time>
      </trkpt>
      <trkpt lat="43.58466" lon="5.51422">
        <ele>392.47</ele>
        <time>2015-04-04T13:16:37Z</time>
      </trkpt>
      <trkpt lat="43.5846" lon="5.51446">
        <ele>393.34</ele>
        <time>2015-04-04T13:16:43Z</time>
      </trkpt>
      <trkpt lat="43.58451" lon="5.51468">
        <ele>395.08</ele>
        <time>2015-04-04T13:17:08Z</time>
      </trkpt>
      <trkpt lat="43.58434" lon="5.51487">
        <ele>395.72</ele>
        <time>2015-04-04T13:17:13Z</time>
      </trkpt>
      <trkpt lat="43.58418" lon="5.51503">
        <ele>396.23</ele>
        <time>2015-04-04T13:17:18Z</time>
      </trkpt>
      <trkpt lat="43.58403" lon="5.51518">
        <ele>396.83</ele>
        <time>2015-04-04T13:17:24Z</time>
      </trkpt>
      <trkpt lat="43.58387" lon="5.51535">
        <ele>397.15</ele>
        <time>2015-04-04T13:17:29Z</time>
      </trkpt>
      <trkpt lat="43.58374" lon="5.51552">
        <ele>397.81</ele>
        <time>2015-04-04T13:17:35Z</time>
      </trkpt>
      <trkpt lat="43.5836" lon="5.51567">
        <ele>398.56</ele>
        <time>2015-04-04T13:17:40Z</time>
      </trkpt>
      <trkpt lat="43.58343" lon="5.51583">
        <ele>398.88</ele>
        <time>2015-04-04T13:17:45Z</time>
      </trkpt>
      <trkpt lat="43.58327" lon="5.51597">
        <ele>398.95</ele>
        <time>2015-04-04T13:17:51Z</time>
      </trkpt>
      <trkpt lat="43.58309" lon="5.51595">
        <ele>401.19</ele>
        <time>2015-04-04T13:18:19Z</time>
      </trkpt>
      <trkpt lat="43.5829" lon="5.51589">
        <ele>402.52</ele>
        <time>2015-04-04T13:18:25Z</time>
      </trkpt>
      <trkpt lat="43.58292" lon="5.51562">
        <ele>404.2</ele>
        <time>2015-04-04T13:18:35Z</time>
      </trkpt>
      <trkpt lat="43.58302" lon="5.51536">
        <ele>405.45</ele>
        <time>2015-04-04T13:18:40Z</time>
      </trkpt>
      <trkpt lat="43.583" lon="5.5151">
        <ele>406.58</ele>
        <time>2015-04-04T13:18:46Z</time>
      </trkpt>
      <trkpt lat="43.58281" lon="5.51512">
        <ele>407.74</ele>
        <time>2015-04-04T13:18:53Z</time>
      </trkpt>
      <trkpt lat="43.58264" lon="5.51496">
        <ele>409.02</ele>
        <time>2015-04-04T13:18:59Z</time>
      </trkpt>
      <trkpt lat="43.58252" lon="5.51473">
        <ele>411.46</ele>
        <time>2015-04-04T13:19:05Z</time>
      </trkpt>
      <trkpt lat="43.58239" lon="5.51453">
        <ele>417.7</ele>
        <time>2015-04-04T13:19:09Z</time>
      </trkpt>
      <trkpt lat="43.58225" lon="5.51429">
        <ele>422.14</ele>
        <time>2015-04-04T13:19:14Z</time>
      </trkpt>
      <trkpt lat="43.58211" lon="5.51409">
        <ele>424.94</ele>
        <time>2015-04-04T13:19:18Z</time>
      </trkpt>
      <trkpt lat="43.58198" lon="5.51389">
        <ele>426.21</ele>
        <time>2015-04-04T13:19:22Z</time>
      </trkpt>
      <trkpt lat="43.58186" lon="5.51367">
        <ele>426.64</ele>
        <time>2015-04-04T13:19:28Z</time>
      </trkpt>
      <trkpt lat="43.58173" lon="5.51347">
        <ele>428.18</ele>
        <time>2015-04-04T13:19:32Z</time>
      </trkpt>
      <trkpt lat="43.58162" lon="5.51326">
        <ele>428.56</ele>
        <time>2015-04-04T13:19:35Z</time>
      </trkpt>
      <trkpt lat="43.58149" lon="5.51305">
        <ele>426.37</ele>
        <time>2015-04-04T13:19:38Z</time>
      </trkpt>
      <trkpt lat="43.58135" lon="5.51284">
        <ele>424.08</ele>
        <time>2015-04-04T13:19:41Z</time>
      </trkpt>
      <trkpt lat="43.58121" lon="5.51265">
        <ele>422.74</ele>
        <time>2015-04-04T13:19:45Z</time>
      </trkpt>
      <trkpt lat="43.58109" lon="5.51245">
        <ele>423.57</ele>
        <time>2015-04-04T13:19:49Z</time>
      </trkpt>
      <trkpt lat="43.58099" lon="5.51225">
        <ele>426.98</ele>
        <time>2015-04-04T13:19:53Z</time>
      </trkpt>
      <trkpt lat="43.58088" lon="5.51203">
        <ele>430.55</ele>
        <time>2015-04-04T13:19:57Z</time>
      </trkpt>
      <trkpt lat="43.58077" lon="5.51177">
        <ele>432.12</ele>
        <time>2015-04-04T13:20:02Z</time>
      </trkpt>
      <trkpt lat="43.58072" lon="5.51152">
        <ele>431.34</ele>
        <time>2015-04-04T13:20:06Z</time>
      </trkpt>
      <trkpt lat="43.58061" lon="5.51128">
        <ele>428.46</ele>
        <time>2015-04-04T13:20:11Z</time>
      </trkpt>
      <trkpt lat="43.58042" lon="5.51122">
        <ele>427.41</ele>
        <time>2015-04-04T13:20:16Z</time>
      </trkpt>
      <trkpt lat="43.58024" lon="5.51115">
        <ele>426.81</ele>
        <time>2015-04-04T13:20:24Z</time>
      </trkpt>
      <trkpt lat="43.58018" lon="5.51087">
        <ele>426.06</ele>
        <time>2015-04-04T13:20:31Z</time>
      </trkpt>
      <trkpt lat="43.58023" lon="5.51061">
        <ele>426.23</ele>
        <time>2015-04-04T13:20:36Z</time>
      </trkpt>
      <trkpt lat="43.58033" lon="5.51034">
        <ele>425.92</ele>
        <time>2015-04-04T13:20:40Z</time>
      </trkpt>
      <trkpt lat="43.58041" lon="5.51012">
        <ele>425.24</ele>
        <time>2015-04-04T13:20:43Z</time>
      </trkpt>
      <trkpt lat="43.58052" lon="5.50984">
        <ele>425.79</ele>
        <time>2015-04-04T13:20:47Z</time>
      </trkpt>
      <trkpt lat="43.58048" lon="5.50959">
        <ele>427.6</ele>
        <time>2015-04-04T13:20:54Z</time>
      </trkpt>
      <trkpt lat="43.58031" lon="5.50968">
        <ele>428.12</ele>
        <time>2015-04-04T13:20:59Z</time>
      </trkpt>
      <trkpt lat="43.58014" lon="5.50976">
        <ele>428.75</ele>
        <time>2015-04-04T13:21:04Z</time>
      </trkpt>
      <trkpt lat="43.57998" lon="5.5099">
        <ele>429.2</ele>
        <time>2015-04-04T13:21:09Z</time>
      </trkpt>
      <trkpt lat="43.57982" lon="5.51003">
        <ele>429.89</ele>
        <time>2015-04-04T13:21:15Z</time>
      </trkpt>
      <trkpt lat="43.57966" lon="5.51015">
        <ele>431.05</ele>
        <time>2015-04-04T13:21:21Z</time>
      </trkpt>
      <trkpt lat="43.57946" lon="5.51025">
        <ele>432.31</ele>
        <time>2015-04-04T13:21:27Z</time>
      </trkpt>
      <trkpt lat="43.57932" lon="5.51043">
        <ele>433.41</ele>
        <time>2015-04-04T13:21:33Z</time>
      </trkpt>
      <trkpt lat="43.57925" lon="5.51068">
        <ele>435.22</ele>
        <time>2015-04-04T13:21:40Z</time>
      </trkpt>
      <trkpt lat="43.57906" lon="5.51083">
        <ele>437.02</ele>
        <time>2015-04-04T13:21:47Z</time>
      </trkpt>
      <trkpt lat="43.57889" lon="5.51099">
        <ele>437.96</ele>
        <time>2015-04-04T13:21:52Z</time>
      </trkpt>
      <trkpt lat="43.57875" lon="5.51118">
        <ele>439.25</ele>
        <time>2015-04-04T13:21:59Z</time>
      </trkpt>
      <trkpt lat="43.57862" lon="5.51145">
        <ele>442.42</ele>
        <time>2015-04-04T13:22:04Z</time>
      </trkpt>
      <trkpt lat="43.57852" lon="5.51168">
        <ele>444.69</ele>
        <time>2015-04-04T13:22:07Z</time>
      </trkpt>
      <trkpt lat="43.57845" lon="5.51191">
        <ele>445.43</ele>
        <time>2015-04-04T13:22:10Z</time>
      </trkpt>
      <trkpt lat="43.57838" lon="5.51219">
        <ele>446.73</ele>
        <time>2015-04-04T13:22:16Z</time>
      </trkpt>
      <trkpt lat="43.5783" lon="5.51244">
        <ele>446.67</ele>
        <time>2015-04-04T13:22:21Z</time>
      </trkpt>
      <trkpt lat="43.57819" lon="5.51264">
        <ele>446.24</ele>
        <time>2015-04-04T13:22:26Z</time>
      </trkpt>
      <trkpt lat="43.57812" lon="5.5129">
        <ele>444.62</ele>
        <time>2015-04-04T13:22:30Z</time>
      </trkpt>
      <trkpt lat="43.57811" lon="5.51316">
        <ele>444.58</ele>
        <time>2015-04-04T13:22:35Z</time>
      </trkpt>
      <trkpt lat="43.57802" lon="5.51339">
        <ele>444.52</ele>
        <time>2015-04-04T13:22:40Z</time>
      </trkpt>
      <trkpt lat="43.57787" lon="5.51363">
        <ele>444.99</ele>
        <time>2015-04-04T13:22:45Z</time>
      </trkpt>
      <trkpt lat="43.57774" lon="5.51386">
        <ele>445.69</ele>
        <time>2015-04-04T13:22:49Z</time>
      </trkpt>
      <trkpt lat="43.57761" lon="5.51403">
        <ele>446.4</ele>
        <time>2015-04-04T13:22:53Z</time>
      </trkpt>
      <trkpt lat="43.57747" lon="5.51427">
        <ele>446.99</ele>
        <time>2015-04-04T13:22:57Z</time>
      </trkpt>
      <trkpt lat="43.57737" lon="5.51449">
        <ele>448.67</ele>
        <time>2015-04-04T13:23:01Z</time>
      </trkpt>
      <trkpt lat="43.57723" lon="5.51474">
        <ele>451.65</ele>
        <time>2015-04-04T13:23:06Z</time>
      </trkpt>
      <trkpt lat="43.57708" lon="5.51491">
        <ele>453.61</ele>
        <time>2015-04-04T13:23:10Z</time>
      </trkpt>
      <trkpt lat="43.57694" lon="5.5151">
        <ele>455.95</ele>
        <time>2015-04-04T13:23:14Z</time>
      </trkpt>
      <trkpt lat="43.57686" lon="5.51535">
        <ele>457.14</ele>
        <time>2015-04-04T13:23:19Z</time>
      </trkpt>
      <trkpt lat="43.57684" lon="5.51563">
        <ele>457.75</ele>
        <time>2015-04-04T13:23:25Z</time>
      </trkpt>
      <trkpt lat="43.57684" lon="5.51592">
        <ele>458.81</ele>
        <time>2015-04-04T13:23:31Z</time>
      </trkpt>
      <trkpt lat="43.57677" lon="5.5162">
        <ele>464.73</ele>
        <time>2015-04-04T13:23:36Z</time>
      </trkpt>
      <trkpt lat="43.57665" lon="5.51642">
        <ele>466.35</ele>
        <time>2015-04-04T13:23:40Z</time>
      </trkpt>
      <trkpt lat="43.57657" lon="5.51665">
        <ele>466.98</ele>
        <time>2015-04-04T13:23:44Z</time>
      </trkpt>
      <trkpt lat="43.57652" lon="5.51691">
        <ele>467.65</ele>
        <time>2015-04-04T13:23:49Z</time>
      </trkpt>
      <trkpt lat="43.57648" lon="5.51719">
        <ele>471.25</ele>
        <time>2015-04-04T13:23:54Z</time>
      </trkpt>
      <trkpt lat="43.5765" lon="5.51748">
        <ele>474.32</ele>
        <time>2015-04-04T13:23:59Z</time>
      </trkpt>
      <trkpt lat="43.57654" lon="5.51776">
        <ele>476.91</ele>
        <time>2015-04-04T13:24:04Z</time>
      </trkpt>
      <trkpt lat="43.57656" lon="5.51801">
        <ele>477.51</ele>
        <time>2015-04-04T13:24:09Z</time>
      </trkpt>
      <trkpt lat="43.5765" lon="5.51831">
        <ele>480.42</ele>
        <time>2015-04-04T13:24:14Z</time>
      </trkpt>
      <trkpt lat="43.57636" lon="5.51855">
        <ele>484.3</ele>
        <time>2015-04-04T13:24:19Z</time>
      </trkpt>
      <trkpt lat="43.5762" lon="5.51876">
        <ele>485.89</ele>
        <time>2015-04-04T13:24:24Z</time>
      </trkpt>
      <trkpt lat="43.57607" lon="5.51895">
        <ele>487.73</ele>
        <time>2015-04-04T13:24:28Z</time>
      </trkpt>
      <trkpt lat="43.57593" lon="5.51916">
        <ele>490.25</ele>
        <time>2015-04-04T13:24:33Z</time>
      </trkpt>
      <trkpt lat="43.57574" lon="5.51925">
        <ele>493.11</ele>
        <time>2015-04-04T13:24:37Z</time>
      </trkpt>
      <trkpt lat="43.57556" lon="5.5194">
        <ele>493.89</ele>
        <time>2015-04-04T13:24:43Z</time>
      </trkpt>
      <trkpt lat="43.57544" lon="5.51962">
        <ele>494.51</ele>
        <time>2015-04-04T13:24:49Z</time>
      </trkpt>
      <trkpt lat="43.57529" lon="5.51983">
        <ele>495.92</ele>
        <time>2015-04-04T13:24:54Z</time>
      </trkpt>
      <trkpt lat="43.57519" lon="5.52004">
        <ele>499.96</ele>
        <time>2015-04-04T13:24:58Z</time>
      </trkpt>
      <trkpt lat="43.57512" lon="5.52027">
        <ele>504.09</ele>
        <time>2015-04-04T13:25:02Z</time>
      </trkpt>
      <trkpt lat="43.57507" lon="5.52051">
        <ele>506.23</ele>
        <time>2015-04-04T13:25:05Z</time>
      </trkpt>
      <trkpt lat="43.575" lon="5.52075">
        <ele>507.39</ele>
        <time>2015-04-04T13:25:09Z</time>
      </trkpt>
      <trkpt lat="43.57491" lon="5.52097">
        <ele>507.91</ele>
        <time>2015-04-04T13:25:13Z</time>
      </trkpt>
      <trkpt lat="43.57481" lon="5.52121">
        <ele>508.64</ele>
        <time>2015-04-04T13:25:17Z</time>
      </trkpt>
      <trkpt lat="43.57472" lon="5.52146">
        <ele>509.73</ele>
        <time>2015-04-04T13:25:21Z</time>
      </trkpt>
      <trkpt lat="43.57474" lon="5.52176">
        <ele>511.71</ele>
        <time>2015-04-04T13:25:26Z</time>
      </trkpt>
      <trkpt lat="43.57476" lon="5.52201">
        <ele>513.56</ele>
        <time>2015-04-04T13:25:31Z</time>
      </trkpt>
      <trkpt lat="43.57476" lon="5.52231">
        <ele>515.29</ele>
        <time>2015-04-04T13:25:36Z</time>
      </trkpt>
      <trkpt lat="43.57474" lon="5.52257">
        <ele>515.32</ele>
        <time>2015-04-04T13:25:41Z</time>
      </trkpt>
      <trkpt lat="43.5747" lon="5.52285">
        <ele>515.52</ele>
        <time>2015-04-04T13:25:46Z</time>
      </trkpt>
      <trkpt lat="43.57463" lon="5.52313">
        <ele>515.73</ele>
        <time>2015-04-04T13:25:51Z</time>
      </trkpt>
      <trkpt lat="43.57451" lon="5.52338">
        <ele>515.8</ele>
        <time>2015-04-04T13:25:57Z</time>
      </trkpt>
      <trkpt lat="43.57439" lon="5.52359">
        <ele>516.11</ele>
        <time>2015-04-04T13:26:02Z</time>
      </trkpt>
      <trkpt lat="43.57429" lon="5.52383">
        <ele>516.1</ele>
        <time>2015-04-04T13:26:07Z</time>
      </trkpt>
      <trkpt lat="43.57425" lon="5.52412">
        <ele>515.93</ele>
        <time>2015-04-04T13:26:12Z</time>
      </trkpt>
      <trkpt lat="43.57422" lon="5.52442">
        <ele>514.47</ele>
        <time>2015-04-04T13:26:16Z</time>
      </trkpt>
      <trkpt lat="43.57418" lon="5.52474">
        <ele>512.35</ele>
        <time>2015-04-04T13:26:20Z</time>
      </trkpt>
      <trkpt lat="43.57414" lon="5.52499">
        <ele>511.97</ele>
        <time>2015-04-04T13:26:23Z</time>
      </trkpt>
      <trkpt lat="43.57409" lon="5.52524">
        <ele>512.35</ele>
        <time>2015-04-04T13:26:26Z</time>
      </trkpt>
      <trkpt lat="43.57407" lon="5.52552">
        <ele>512.86</ele>
        <time>2015-04-04T13:26:29Z</time>
      </trkpt>
      <trkpt lat="43.57407" lon="5.52577">
        <ele>513.49</ele>
        <time>2015-04-04T13:26:32Z</time>
      </trkpt>
      <trkpt lat="43.57405" lon="5.52606">
        <ele>514.39</ele>
        <time>2015-04-04T13:26:36Z</time>
      </trkpt>
      <trkpt lat="43.57402" lon="5.52635">
        <ele>514.86</ele>
        <time>2015-04-04T13:26:41Z</time>
      </trkpt>
      <trkpt lat="43.574" lon="5.52663">
        <ele>515.27</ele>
        <time>2015-04-04T13:26:46Z</time>
      </trkpt>
      <trkpt lat="43.57398" lon="5.52691">
        <ele>515.89</ele>
        <time>2015-04-04T13:26:51Z</time>
      </trkpt>
      <trkpt lat="43.57395" lon="5.5272">
        <ele>514.78</ele>
        <time>2015-04-04T13:26:56Z</time>
      </trkpt>
      <trkpt lat="43.57391" lon="5.52746">
        <ele>514.93</ele>
        <time>2015-04-04T13:27:00Z</time>
      </trkpt>
      <trkpt lat="43.57386" lon="5.52772">
        <ele>514.93</ele>
        <time>2015-04-04T13:27:04Z</time>
      </trkpt>
      <trkpt lat="43.57382" lon="5.52797">
        <ele>514.51</ele>
        <time>2015-04-04T13:27:08Z</time>
      </trkpt>
      <trkpt lat="43.57379" lon="5.52826">
        <ele>514.43</ele>
        <time>2015-04-04T13:27:13Z</time>
      </trkpt>
      <trkpt lat="43.57379" lon="5.52855">
        <ele>515.63</ele>
        <time>2015-04-04T13:27:18Z</time>
      </trkpt>
      <trkpt lat="43.5738" lon="5.52882">
        <ele>516.3</ele>
        <time>2015-04-04T13:27:23Z</time>
      </trkpt>
      <trkpt lat="43.57379" lon="5.52912">
        <ele>517.53</ele>
        <time>2015-04-04T13:27:28Z</time>
      </trkpt>
      <trkpt lat="43.57375" lon="5.52941">
        <ele>519.57</ele>
        <time>2015-04-04T13:27:33Z</time>
      </trkpt>
      <trkpt lat="43.57375" lon="5.52966">
        <ele>522.33</ele>
        <time>2015-04-04T13:27:37Z</time>
      </trkpt>
      <trkpt lat="43.57377" lon="5.52994">
        <ele>523.09</ele>
        <time>2015-04-04T13:27:42Z</time>
      </trkpt>
      <trkpt lat="43.57378" lon="5.53023">
        <ele>525.23</ele>
        <time>2015-04-04T13:27:47Z</time>
      </trkpt>
      <trkpt lat="43.57377" lon="5.53053">
        <ele>525.42</ele>
        <time>2015-04-04T13:27:52Z</time>
      </trkpt>
      <trkpt lat="43.57377" lon="5.5308">
        <ele>526.82</ele>
        <time>2015-04-04T13:27:56Z</time>
      </trkpt>
      <trkpt lat="43.5738" lon="5.53106">
        <ele>527.72</ele>
        <time>2015-04-04T13:28:01Z</time>
      </trkpt>
      <trkpt lat="43.57382" lon="5.53134">
        <ele>527.86</ele>
        <time>2015-04-04T13:28:08Z</time>
      </trkpt>
      <trkpt lat="43.57383" lon="5.53165">
        <ele>528.02</ele>
        <time>2015-04-04T13:28:14Z</time>
      </trkpt>
      <trkpt lat="43.57385" lon="5.53193">
        <ele>528.35</ele>
        <time>2015-04-04T13:28:18Z</time>
      </trkpt>
      <trkpt lat="43.57387" lon="5.53221">
        <ele>528.47</ele>
        <time>2015-04-04T13:28:23Z</time>
      </trkpt>
      <trkpt lat="43.5739" lon="5.53249">
        <ele>528.7</ele>
        <time>2015-04-04T13:28:29Z</time>
      </trkpt>
      <trkpt lat="43.57392" lon="5.53274">
        <ele>530.07</ele>
        <time>2015-04-04T13:28:34Z</time>
      </trkpt>
      <trkpt lat="43.57392" lon="5.53301">
        <ele>531.19</ele>
        <time>2015-04-04T13:28:39Z</time>
      </trkpt>
      <trkpt lat="43.57387" lon="5.53325">
        <ele>531.9</ele>
        <time>2015-04-04T13:28:44Z</time>
      </trkpt>
      <trkpt lat="43.57379" lon="5.5335">
        <ele>532.66</ele>
        <time>2015-04-04T13:28:49Z</time>
      </trkpt>
      <trkpt lat="43.57371" lon="5.53374">
        <ele>533.72</ele>
        <time>2015-04-04T13:28:54Z</time>
      </trkpt>
      <trkpt lat="43.57362" lon="5.53398">
        <ele>534.31</ele>
        <time>2015-04-04T13:28:59Z</time>
      </trkpt>
      <trkpt lat="43.57351" lon="5.53418">
        <ele>534.42</ele>
        <time>2015-04-04T13:29:04Z</time>
      </trkpt>
      <trkpt lat="43.5734" lon="5.53438">
        <ele>534.43</ele>
        <time>2015-04-04T13:29:08Z</time>
      </trkpt>
      <trkpt lat="43.5733" lon="5.53461">
        <ele>534.3</ele>
        <time>2015-04-04T13:29:12Z</time>
      </trkpt>
      <trkpt lat="43.57318" lon="5.53485">
        <ele>534.86</ele>
        <time>2015-04-04T13:29:16Z</time>
      </trkpt>
      <trkpt lat="43.57306" lon="5.53511">
        <ele>535.45</ele>
        <time>2015-04-04T13:29:21Z</time>
      </trkpt>
      <trkpt lat="43.57294" lon="5.53531">
        <ele>535.65</ele>
        <time>2015-04-04T13:29:25Z</time>
      </trkpt>
      <trkpt lat="43.57282" lon="5.53551">
        <ele>535.97</ele>
        <time>2015-04-04T13:29:30Z</time>
      </trkpt>
      <trkpt lat="43.57268" lon="5.53574">
        <ele>537.14</ele>
        <time>2015-04-04T13:29:35Z</time>
      </trkpt>
      <trkpt lat="43.57256" lon="5.53594">
        <ele>538.58</ele>
        <time>2015-04-04T13:29:39Z</time>
      </trkpt>
      <trkpt lat="43.57247" lon="5.53617">
        <ele>539.62</ele>
        <time>2015-04-04T13:29:43Z</time>
      </trkpt>
      <trkpt lat="43.57237" lon="5.53642">
        <ele>541.22</ele>
        <time>2015-04-04T13:29:48Z</time>
      </trkpt>
      <trkpt lat="43.57225" lon="5.53661">
        <ele>541.85</ele>
        <time>2015-04-04T13:29:53Z</time>
      </trkpt>
      <trkpt lat="43.57215" lon="5.53684">
        <ele>542.14</ele>
        <time>2015-04-04T13:30:00Z</time>
      </trkpt>
      <trkpt lat="43.57201" lon="5.53702">
        <ele>545.47</ele>
        <time>2015-04-04T13:33:03Z</time>
      </trkpt>
      <trkpt lat="43.57191" lon="5.53727">
        <ele>546.02</ele>
        <time>2015-04-04T13:33:10Z</time>
      </trkpt>
      <trkpt lat="43.57179" lon="5.53749">
        <ele>546.29</ele>
        <time>2015-04-04T13:33:16Z</time>
      </trkpt>
      <trkpt lat="43.57167" lon="5.53772">
        <ele>546.42</ele>
        <time>2015-04-04T13:33:22Z</time>
      </trkpt>
      <trkpt lat="43.57156" lon="5.53794">
        <ele>546.41</ele>
        <time>2015-04-04T13:33:28Z</time>
      </trkpt>
      <trkpt lat="43.57147" lon="5.53819">
        <ele>546.64</ele>
        <time>2015-04-04T13:33:34Z</time>
      </trkpt>
      <trkpt lat="43.5714" lon="5.53843">
        <ele>546.82</ele>
        <time>2015-04-04T13:33:39Z</time>
      </trkpt>
      <trkpt lat="43.57131" lon="5.53867">
        <ele>547.13</ele>
        <time>2015-04-04T13:33:44Z</time>
      </trkpt>
      <trkpt lat="43.57119" lon="5.53887">
        <ele>547.39</ele>
        <time>2015-04-04T13:33:49Z</time>
      </trkpt>
      <trkpt lat="43.57107" lon="5.53907">
        <ele>547.9</ele>
        <time>2015-04-04T13:33:55Z</time>
      </trkpt>
      <trkpt lat="43.57095" lon="5.53929">
        <ele>548.32</ele>
        <time>2015-04-04T13:34:01Z</time>
      </trkpt>
      <trkpt lat="43.57086" lon="5.53951">
        <ele>548.29</ele>
        <time>2015-04-04T13:34:06Z</time>
      </trkpt>
      <trkpt lat="43.57079" lon="5.53975">
        <ele>548.53</ele>
        <time>2015-04-04T13:34:12Z</time>
      </trkpt>
      <trkpt lat="43.57074" lon="5.54001">
        <ele>548.75</ele>
        <time>2015-04-04T13:34:18Z</time>
      </trkpt>
      <trkpt lat="43.57071" lon="5.54031">
        <ele>548.96</ele>
        <time>2015-04-04T13:34:24Z</time>
      </trkpt>
      <trkpt lat="43.57068" lon="5.5406">
        <ele>548.62</ele>
        <time>2015-04-04T13:34:29Z</time>
      </trkpt>
      <trkpt lat="43.57067" lon="5.54085">
        <ele>548.3</ele>
        <time>2015-04-04T13:34:34Z</time>
      </trkpt>
      <trkpt lat="43.57065" lon="5.54113">
        <ele>548.43</ele>
        <time>2015-04-04T13:34:40Z</time>
      </trkpt>
      <trkpt lat="43.57063" lon="5.54141">
        <ele>548.71</ele>
        <time>2015-04-04T13:34:46Z</time>
      </trkpt>
      <trkpt lat="43.57058" lon="5.54168">
        <ele>548.91</ele>
        <time>2015-04-04T13:34:52Z</time>
      </trkpt>
      <trkpt lat="43.57056" lon="5.54193">
        <ele>549.11</ele>
        <time>2015-04-04T13:34:57Z</time>
      </trkpt>
      <trkpt lat="43.57051" lon="5.54218">
        <ele>549.38</ele>
        <time>2015-04-04T13:35:02Z</time>
      </trkpt>
      <trkpt lat="43.57041" lon="5.54244">
        <ele>550.28</ele>
        <time>2015-04-04T13:35:08Z</time>
      </trkpt>
      <trkpt lat="43.5703" lon="5.54267">
        <ele>552.71</ele>
        <time>2015-04-04T13:35:13Z</time>
      </trkpt>
      <trkpt lat="43.57021" lon="5.5429">
        <ele>555.1</ele>
        <time>2015-04-04T13:35:18Z</time>
      </trkpt>
      <trkpt lat="43.57008" lon="5.54311">
        <ele>556.24</ele>
        <time>2015-04-04T13:35:23Z</time>
      </trkpt>
      <trkpt lat="43.56995" lon="5.54328">
        <ele>557.29</ele>
        <time>2015-04-04T13:35:28Z</time>
      </trkpt>
      <trkpt lat="43.5698" lon="5.54344">
        <ele>556.64</ele>
        <time>2015-04-04T13:35:33Z</time>
      </trkpt>
      <trkpt lat="43.56961" lon="5.54346">
        <ele>555.17</ele>
        <time>2015-04-04T13:35:37Z</time>
      </trkpt>
      <trkpt lat="43.56943" lon="5.54352">
        <ele>551.91</ele>
        <time>2015-04-04T13:35:41Z</time>
      </trkpt>
      <trkpt lat="43.56925" lon="5.54358">
        <ele>549.68</ele>
        <time>2015-04-04T13:35:45Z</time>
      </trkpt>
      <trkpt lat="43.56903" lon="5.54364">
        <ele>547.95</ele>
        <time>2015-04-04T13:35:49Z</time>
      </trkpt>
      <trkpt lat="43.56882" lon="5.54362">
        <ele>547.65</ele>
        <time>2015-04-04T13:35:53Z</time>
      </trkpt>
      <trkpt lat="43.5686" lon="5.54362">
        <ele>548.22</ele>
        <time>2015-04-04T13:35:57Z</time>
      </trkpt>
      <trkpt lat="43.56841" lon="5.54368">
        <ele>549.23</ele>
        <time>2015-04-04T13:36:00Z</time>
      </trkpt>
      <trkpt lat="43.56824" lon="5.54375">
        <ele>549.97</ele>
        <time>2015-04-04T13:36:03Z</time>
      </trkpt>
      <trkpt lat="43.56804" lon="5.54383">
        <ele>551.83</ele>
        <time>2015-04-04T13:36:07Z</time>
      </trkpt>
      <trkpt lat="43.56787" lon="5.54395">
        <ele>550.87</ele>
        <time>2015-04-04T13:36:11Z</time>
      </trkpt>
      <trkpt lat="43.56773" lon="5.54416">
        <ele>548.74</ele>
        <time>2015-04-04T13:36:15Z</time>
      </trkpt>
      <trkpt lat="43.56762" lon="5.54437">
        <ele>546.12</ele>
        <time>2015-04-04T13:36:19Z</time>
      </trkpt>
      <trkpt lat="43.56754" lon="5.54465">
        <ele>543.2</ele>
        <time>2015-04-04T13:36:23Z</time>
      </trkpt>
      <trkpt lat="43.5675" lon="5.54496">
        <ele>542.11</ele>
        <time>2015-04-04T13:36:27Z</time>
      </trkpt>
      <trkpt lat="43.56748" lon="5.54525">
        <ele>540.56</ele>
        <time>2015-04-04T13:36:31Z</time>
      </trkpt>
      <trkpt lat="43.56745" lon="5.54551">
        <ele>540.89</ele>
        <time>2015-04-04T13:36:35Z</time>
      </trkpt>
      <trkpt lat="43.5674" lon="5.54578">
        <ele>541.86</ele>
        <time>2015-04-04T13:36:39Z</time>
      </trkpt>
      <trkpt lat="43.56736" lon="5.5461">
        <ele>543.08</ele>
        <time>2015-04-04T13:36:43Z</time>
      </trkpt>
      <trkpt lat="43.56733" lon="5.54641">
        <ele>546.25</ele>
        <time>2015-04-04T13:36:47Z</time>
      </trkpt>
      <trkpt lat="43.56731" lon="5.54666">
        <ele>548.53</ele>
        <time>2015-04-04T13:36:50Z</time>
      </trkpt>
      <trkpt lat="43.56728" lon="5.54692">
        <ele>549.5</ele>
        <time>2015-04-04T13:36:53Z</time>
      </trkpt>
      <trkpt lat="43.56726" lon="5.54717">
        <ele>548.98</ele>
        <time>2015-04-04T13:36:56Z</time>
      </trkpt>
      <trkpt lat="43.56725" lon="5.5475">
        <ele>547.18</ele>
        <time>2015-04-04T13:37:00Z</time>
      </trkpt>
      <trkpt lat="43.56726" lon="5.54778">
        <ele>545.19</ele>
        <time>2015-04-04T13:37:04Z</time>
      </trkpt>
      <trkpt lat="43.56728" lon="5.54803">
        <ele>545.91</ele>
        <time>2015-04-04T13:37:08Z</time>
      </trkpt>
      <trkpt lat="43.56726" lon="5.54831">
        <ele>548.49</ele>
        <time>2015-04-04T13:37:13Z</time>
      </trkpt>
      <trkpt lat="43.56732" lon="5.54862">
        <ele>549.82</ele>
        <time>2015-04-04T13:37:18Z</time>
      </trkpt>
      <trkpt lat="43.56741" lon="5.54892">
        <ele>549.49</ele>
        <time>2015-04-04T13:37:22Z</time>
      </trkpt>
      <trkpt lat="43.56751" lon="5.54914">
        <ele>549.38</ele>
        <time>2015-04-04T13:37:25Z</time>
      </trkpt>
      <trkpt lat="43.56764" lon="5.54936">
        <ele>547.66</ele>
        <time>2015-04-04T13:37:28Z</time>
      </trkpt>
      <trkpt lat="43.56775" lon="5.54956">
        <ele>545.85</ele>
        <time>2015-04-04T13:37:31Z</time>
      </trkpt>
      <trkpt lat="43.56782" lon="5.5498">
        <ele>543.45</ele>
        <time>2015-04-04T13:37:34Z</time>
      </trkpt>
      <trkpt lat="43.56788" lon="5.5501">
        <ele>542.13</ele>
        <time>2015-04-04T13:37:38Z</time>
      </trkpt>
      <trkpt lat="43.56795" lon="5.55036">
        <ele>542.81</ele>
        <time>2015-04-04T13:37:42Z</time>
      </trkpt>
      <trkpt lat="43.56801" lon="5.5506">
        <ele>545.12</ele>
        <time>2015-04-04T13:37:45Z</time>
      </trkpt>
      <trkpt lat="43.56807" lon="5.55091">
        <ele>546.6</ele>
        <time>2015-04-04T13:37:49Z</time>
      </trkpt>
      <trkpt lat="43.56811" lon="5.55119">
        <ele>547.11</ele>
        <time>2015-04-04T13:37:53Z</time>
      </trkpt>
      <trkpt lat="43.56816" lon="5.55146">
        <ele>548.47</ele>
        <time>2015-04-04T13:37:57Z</time>
      </trkpt>
      <trkpt lat="43.56823" lon="5.55174">
        <ele>551.3</ele>
        <time>2015-04-04T13:38:01Z</time>
      </trkpt>
      <trkpt lat="43.5683" lon="5.552">
        <ele>552.85</ele>
        <time>2015-04-04T13:38:05Z</time>
      </trkpt>
      <trkpt lat="43.56837" lon="5.55224">
        <ele>551.86</ele>
        <time>2015-04-04T13:38:09Z</time>
      </trkpt>
      <trkpt lat="43.56847" lon="5.55249">
        <ele>551.45</ele>
        <time>2015-04-04T13:38:15Z</time>
      </trkpt>
      <trkpt lat="43.56856" lon="5.55274">
        <ele>557.39</ele>
        <time>2015-04-04T13:38:19Z</time>
      </trkpt>
      <trkpt lat="43.56863" lon="5.553">
        <ele>563.17</ele>
        <time>2015-04-04T13:38:24Z</time>
      </trkpt>
      <trkpt lat="43.56868" lon="5.55327">
        <ele>567.5</ele>
        <time>2015-04-04T13:38:29Z</time>
      </trkpt>
      <trkpt lat="43.56875" lon="5.55354">
        <ele>569.37</ele>
        <time>2015-04-04T13:38:35Z</time>
      </trkpt>
      <trkpt lat="43.56878" lon="5.55381">
        <ele>569.93</ele>
        <time>2015-04-04T13:38:41Z</time>
      </trkpt>
      <trkpt lat="43.56862" lon="5.55395">
        <ele>569.61</ele>
        <time>2015-04-04T13:38:47Z</time>
      </trkpt>
      <trkpt lat="43.56842" lon="5.55398">
        <ele>567.94</ele>
        <time>2015-04-04T13:38:52Z</time>
      </trkpt>
      <trkpt lat="43.56821" lon="5.55404">
        <ele>565.32</ele>
        <time>2015-04-04T13:38:57Z</time>
      </trkpt>
      <trkpt lat="43.56803" lon="5.55411">
        <ele>564.65</ele>
        <time>2015-04-04T13:39:03Z</time>
      </trkpt>
      <trkpt lat="43.56785" lon="5.55421">
        <ele>563.85</ele>
        <time>2015-04-04T13:39:08Z</time>
      </trkpt>
      <trkpt lat="43.56765" lon="5.55434">
        <ele>560.55</ele>
        <time>2015-04-04T13:39:13Z</time>
      </trkpt>
      <trkpt lat="43.56747" lon="5.55448">
        <ele>559.56</ele>
        <time>2015-04-04T13:39:17Z</time>
      </trkpt>
      <trkpt lat="43.56734" lon="5.5547">
        <ele>559.35</ele>
        <time>2015-04-04T13:39:32Z</time>
      </trkpt>
      <trkpt lat="43.56715" lon="5.55476">
        <ele>560.14</ele>
        <time>2015-04-04T13:40:18Z</time>
      </trkpt>
      <trkpt lat="43.56695" lon="5.55481">
        <ele>560.61</ele>
        <time>2015-04-04T13:40:33Z</time>
      </trkpt>
      <trkpt lat="43.56677" lon="5.55492">
        <ele>560.52</ele>
        <time>2015-04-04T13:40:41Z</time>
      </trkpt>
      <trkpt lat="43.56666" lon="5.55513">
        <ele>561.05</ele>
        <time>2015-04-04T13:40:49Z</time>
      </trkpt>
      <trkpt lat="43.56653" lon="5.55534">
        <ele>561.04</ele>
        <time>2015-04-04T13:40:57Z</time>
      </trkpt>
      <trkpt lat="43.56635" lon="5.55544">
        <ele>561.52</ele>
        <time>2015-04-04T13:41:04Z</time>
      </trkpt>
      <trkpt lat="43.56615" lon="5.55551">
        <ele>560.87</ele>
        <time>2015-04-04T13:41:09Z</time>
      </trkpt>
      <trkpt lat="43.56596" lon="5.55559">
        <ele>559.95</ele>
        <time>2015-04-04T13:41:13Z</time>
      </trkpt>
      <trkpt lat="43.56577" lon="5.55571">
        <ele>559.25</ele>
        <time>2015-04-04T13:41:17Z</time>
      </trkpt>
      <trkpt lat="43.56558" lon="5.55592">
        <ele>560.6</ele>
        <time>2015-04-04T13:41:21Z</time>
      </trkpt>
      <trkpt lat="43.56543" lon="5.55607">
        <ele>559.53</ele>
        <time>2015-04-04T13:41:24Z</time>
      </trkpt>
      <trkpt lat="43.56524" lon="5.55617">
        <ele>556.39</ele>
        <time>2015-04-04T13:41:27Z</time>
      </trkpt>
      <trkpt lat="43.56504" lon="5.55632">
        <ele>555.07</ele>
        <time>2015-04-04T13:41:31Z</time>
      </trkpt>
      <trkpt lat="43.56488" lon="5.55644">
        <ele>555.18</ele>
        <time>2015-04-04T13:41:35Z</time>
      </trkpt>
      <trkpt lat="43.56468" lon="5.55655">
        <ele>550.85</ele>
        <time>2015-04-04T13:41:40Z</time>
      </trkpt>
      <trkpt lat="43.56451" lon="5.55671">
        <ele>550.65</ele>
        <time>2015-04-04T13:41:45Z</time>
      </trkpt>
      <trkpt lat="43.56431" lon="5.55681">
        <ele>551.02</ele>
        <time>2015-04-04T13:41:50Z</time>
      </trkpt>
      <trkpt lat="43.56411" lon="5.55679">
        <ele>552.02</ele>
        <time>2015-04-04T13:41:54Z</time>
      </trkpt>
      <trkpt lat="43.56392" lon="5.55689">
        <ele>552.01</ele>
        <time>2015-04-04T13:41:59Z</time>
      </trkpt>
      <trkpt lat="43.56376" lon="5.55711">
        <ele>551.24</ele>
        <time>2015-04-04T13:42:04Z</time>
      </trkpt>
      <trkpt lat="43.56368" lon="5.55734">
        <ele>552.48</ele>
        <time>2015-04-04T13:42:08Z</time>
      </trkpt>
      <trkpt lat="43.5636" lon="5.55761">
        <ele>551.15</ele>
        <time>2015-04-04T13:42:13Z</time>
      </trkpt>
      <trkpt lat="43.56348" lon="5.5578">
        <ele>550.47</ele>
        <time>2015-04-04T13:42:18Z</time>
      </trkpt>
      <trkpt lat="43.56339" lon="5.55802">
        <ele>550.44</ele>
        <time>2015-04-04T13:42:23Z</time>
      </trkpt>
      <trkpt lat="43.56339" lon="5.55832">
        <ele>550.58</ele>
        <time>2015-04-04T13:42:28Z</time>
      </trkpt>
      <trkpt lat="43.56344" lon="5.5586">
        <ele>546.14</ele>
        <time>2015-04-04T13:42:33Z</time>
      </trkpt>
      <trkpt lat="43.56346" lon="5.55887">
        <ele>544.44</ele>
        <time>2015-04-04T13:42:38Z</time>
      </trkpt>
      <trkpt lat="43.5635" lon="5.55912">
        <ele>544.68</ele>
        <time>2015-04-04T13:42:44Z</time>
      </trkpt>
      <trkpt lat="43.5636" lon="5.55936">
        <ele>544.79</ele>
        <time>2015-04-04T13:42:50Z</time>
      </trkpt>
      <trkpt lat="43.56369" lon="5.55961">
        <ele>544.91</ele>
        <time>2015-04-04T13:42:56Z</time>
      </trkpt>
      <trkpt lat="43.56376" lon="5.55986">
        <ele>545.37</ele>
        <time>2015-04-04T13:43:02Z</time>
      </trkpt>
      <trkpt lat="43.56383" lon="5.56013">
        <ele>545.95</ele>
        <time>2015-04-04T13:43:08Z</time>
      </trkpt>
      <trkpt lat="43.56392" lon="5.56035">
        <ele>546.99</ele>
        <time>2015-04-04T13:43:14Z</time>
      </trkpt>
      <trkpt lat="43.56404" lon="5.56061">
        <ele>548.07</ele>
        <time>2015-04-04T13:43:19Z</time>
      </trkpt>
      <trkpt lat="43.56414" lon="5.56085">
        <ele>548.83</ele>
        <time>2015-04-04T13:43:26Z</time>
      </trkpt>
      <trkpt lat="43.56425" lon="5.56106">
        <ele>549.19</ele>
        <time>2015-04-04T13:43:32Z</time>
      </trkpt>
      <trkpt lat="43.56436" lon="5.56127">
        <ele>549.52</ele>
        <time>2015-04-04T13:43:37Z</time>
      </trkpt>
      <trkpt lat="43.56448" lon="5.56151">
        <ele>549.91</ele>
        <time>2015-04-04T13:43:43Z</time>
      </trkpt>
      <trkpt lat="43.56456" lon="5.56178">
        <ele>549.61</ele>
        <time>2015-04-04T13:43:49Z</time>
      </trkpt>
      <trkpt lat="43.56461" lon="5.56204">
        <ele>549.24</ele>
        <time>2015-04-04T13:43:56Z</time>
      </trkpt>
      <trkpt lat="43.56463" lon="5.56235">
        <ele>548.11</ele>
        <time>2015-04-04T13:44:01Z</time>
      </trkpt>
      <trkpt lat="43.56466" lon="5.5626">
        <ele>546.92</ele>
        <time>2015-04-04T13:44:05Z</time>
      </trkpt>
      <trkpt lat="43.56473" lon="5.56288">
        <ele>543.8</ele>
        <time>2015-04-04T13:44:10Z</time>
      </trkpt>
      <trkpt lat="43.5648" lon="5.56315">
        <ele>542.87</ele>
        <time>2015-04-04T13:44:15Z</time>
      </trkpt>
      <trkpt lat="43.56483" lon="5.56344">
        <ele>546.25</ele>
        <time>2015-04-04T13:44:21Z</time>
      </trkpt>
      <trkpt lat="43.56484" lon="5.56371">
        <ele>550.09</ele>
        <time>2015-04-04T13:44:26Z</time>
      </trkpt>
      <trkpt lat="43.56487" lon="5.56401">
        <ele>558.11</ele>
        <time>2015-04-04T13:44:31Z</time>
      </trkpt>
      <trkpt lat="43.56497" lon="5.56426">
        <ele>560.82</ele>
        <time>2015-04-04T13:44:36Z</time>
      </trkpt>
      <trkpt lat="43.56508" lon="5.56446">
        <ele>560.31</ele>
        <time>2015-04-04T13:44:42Z</time>
      </trkpt>
      <trkpt lat="43.56513" lon="5.5647">
        <ele>560.28</ele>
        <time>2015-04-04T13:44:47Z</time>
      </trkpt>
      <trkpt lat="43.56516" lon="5.56495">
        <ele>560.41</ele>
        <time>2015-04-04T13:44:52Z</time>
      </trkpt>
      <trkpt lat="43.56522" lon="5.56522">
        <ele>560.59</ele>
        <time>2015-04-04T13:44:58Z</time>
      </trkpt>
      <trkpt lat="43.56529" lon="5.56547">
        <ele>563.68</ele>
        <time>2015-04-04T13:45:02Z</time>
      </trkpt>
      <trkpt lat="43.56537" lon="5.56572">
        <ele>565.9</ele>
        <time>2015-04-04T13:45:06Z</time>
      </trkpt>
      <trkpt lat="43.56546" lon="5.56597">
        <ele>568.55</ele>
        <time>2015-04-04T13:45:11Z</time>
      </trkpt>
      <trkpt lat="43.56556" lon="5.56621">
        <ele>569.52</ele>
        <time>2015-04-04T13:45:17Z</time>
      </trkpt>
      <trkpt lat="43.56564" lon="5.56646">
        <ele>571.31</ele>
        <time>2015-04-04T13:45:23Z</time>
      </trkpt>
      <trkpt lat="43.5657" lon="5.56671">
        <ele>573.03</ele>
        <time>2015-04-04T13:45:28Z</time>
      </trkpt>
      <trkpt lat="43.56577" lon="5.56696">
        <ele>575.91</ele>
        <time>2015-04-04T13:45:33Z</time>
      </trkpt>
      <trkpt lat="43.56586" lon="5.56721">
        <ele>583.35</ele>
        <time>2015-04-04T13:45:38Z</time>
      </trkpt>
      <trkpt lat="43.5659" lon="5.56749">
        <ele>584.7</ele>
        <time>2015-04-04T13:45:44Z</time>
      </trkpt>
      <trkpt lat="43.56598" lon="5.56777">
        <ele>584.7</ele>
        <time>2015-04-04T13:45:50Z</time>
      </trkpt>
      <trkpt lat="43.56609" lon="5.56799">
        <ele>582.7</ele>
        <time>2015-04-04T13:45:55Z</time>
      </trkpt>
      <trkpt lat="43.56617" lon="5.56825">
        <ele>581.78</ele>
        <time>2015-04-04T13:46:01Z</time>
      </trkpt>
      <trkpt lat="43.56624" lon="5.56854">
        <ele>581.62</ele>
        <time>2015-04-04T13:46:06Z</time>
      </trkpt>
      <trkpt lat="43.56627" lon="5.56882">
        <ele>581.89</ele>
        <time>2015-04-04T13:46:12Z</time>
      </trkpt>
      <trkpt lat="43.5663" lon="5.56911">
        <ele>582.82</ele>
        <time>2015-04-04T13:46:17Z</time>
      </trkpt>
      <trkpt lat="43.5663" lon="5.5694">
        <ele>583.24</ele>
        <time>2015-04-04T13:46:23Z</time>
      </trkpt>
      <trkpt lat="43.5664" lon="5.56965">
        <ele>583.66</ele>
        <time>2015-04-04T13:46:29Z</time>
      </trkpt>
      <trkpt lat="43.56651" lon="5.5699">
        <ele>584.02</ele>
        <time>2015-04-04T13:46:35Z</time>
      </trkpt>
      <trkpt lat="43.56655" lon="5.57015">
        <ele>584.5</ele>
        <time>2015-04-04T13:46:40Z</time>
      </trkpt>
      <trkpt lat="43.56655" lon="5.57044">
        <ele>587.17</ele>
        <time>2015-04-04T13:46:45Z</time>
      </trkpt>
      <trkpt lat="43.56648" lon="5.57069">
        <ele>588.76</ele>
        <time>2015-04-04T13:46:51Z</time>
      </trkpt>
      <trkpt lat="43.56636" lon="5.57093">
        <ele>590.52</ele>
        <time>2015-04-04T13:46:58Z</time>
      </trkpt>
      <trkpt lat="43.56638" lon="5.57119">
        <ele>591.91</ele>
        <time>2015-04-04T13:47:03Z</time>
      </trkpt>
      <trkpt lat="43.56647" lon="5.57141">
        <ele>592.72</ele>
        <time>2015-04-04T13:47:09Z</time>
      </trkpt>
      <trkpt lat="43.56659" lon="5.57162">
        <ele>593.56</ele>
        <time>2015-04-04T13:47:14Z</time>
      </trkpt>
      <trkpt lat="43.56669" lon="5.57186">
        <ele>596.19</ele>
        <time>2015-04-04T13:47:19Z</time>
      </trkpt>
      <trkpt lat="43.56672" lon="5.57212">
        <ele>597.94</ele>
        <time>2015-04-04T13:47:24Z</time>
      </trkpt>
      <trkpt lat="43.56668" lon="5.5724">
        <ele>601.52</ele>
        <time>2015-04-04T13:47:29Z</time>
      </trkpt>
      <trkpt lat="43.56654" lon="5.57259">
        <ele>604.21</ele>
        <time>2015-04-04T13:47:36Z</time>
      </trkpt>
      <trkpt lat="43.56637" lon="5.57274">
        <ele>611.27</ele>
        <time>2015-04-04T13:47:41Z</time>
      </trkpt>
      <trkpt lat="43.5662" lon="5.5729">
        <ele>619.84</ele>
        <time>2015-04-04T13:47:46Z</time>
      </trkpt>
      <trkpt lat="43.56605" lon="5.5731">
        <ele>622.39</ele>
        <time>2015-04-04T13:47:51Z</time>
      </trkpt>
      <trkpt lat="43.56592" lon="5.57331">
        <ele>623.06</ele>
        <time>2015-04-04T13:47:57Z</time>
      </trkpt>
      <trkpt lat="43.56579" lon="5.57354">
        <ele>624.53</ele>
        <time>2015-04-04T13:48:02Z</time>
      </trkpt>
      <trkpt lat="43.56568" lon="5.57375">
        <ele>628.32</ele>
        <time>2015-04-04T13:48:27Z</time>
      </trkpt>
      <trkpt lat="43.56548" lon="5.57377">
        <ele>628.75</ele>
        <time>2015-04-04T13:48:35Z</time>
      </trkpt>
      <trkpt lat="43.56527" lon="5.57378">
        <ele>631.2</ele>
        <time>2015-04-04T13:48:40Z</time>
      </trkpt>
      <trkpt lat="43.56512" lon="5.57399">
        <ele>634.99</ele>
        <time>2015-04-04T13:48:45Z</time>
      </trkpt>
      <trkpt lat="43.56501" lon="5.5743">
        <ele>634.86</ele>
        <time>2015-04-04T13:48:49Z</time>
      </trkpt>
      <trkpt lat="43.56494" lon="5.57453">
        <ele>634.57</ele>
        <time>2015-04-04T13:48:52Z</time>
      </trkpt>
      <trkpt lat="43.5649" lon="5.57482">
        <ele>633.74</ele>
        <time>2015-04-04T13:48:56Z</time>
      </trkpt>
      <trkpt lat="43.56483" lon="5.5751">
        <ele>632.6</ele>
        <time>2015-04-04T13:49:01Z</time>
      </trkpt>
      <trkpt lat="43.56478" lon="5.57535">
        <ele>631.04</ele>
        <time>2015-04-04T13:49:05Z</time>
      </trkpt>
      <trkpt lat="43.5647" lon="5.5756">
        <ele>629.32</ele>
        <time>2015-04-04T13:49:09Z</time>
      </trkpt>
      <trkpt lat="43.56463" lon="5.57586">
        <ele>628.72</ele>
        <time>2015-04-04T13:49:13Z</time>
      </trkpt>
      <trkpt lat="43.56457" lon="5.57611">
        <ele>630.54</ele>
        <time>2015-04-04T13:49:18Z</time>
      </trkpt>
      <trkpt lat="43.56454" lon="5.5764">
        <ele>627.24</ele>
        <time>2015-04-04T13:56:19Z</time>
      </trkpt>
      <trkpt lat="43.56462" lon="5.57666">
        <ele>626.75</ele>
        <time>2015-04-04T13:56:24Z</time>
      </trkpt>
      <trkpt lat="43.56477" lon="5.57681">
        <ele>627.15</ele>
        <time>2015-04-04T13:56:28Z</time>
      </trkpt>
      <trkpt lat="43.56491" lon="5.57699">
        <ele>627.19</ele>
        <time>2015-04-04T13:56:33Z</time>
      </trkpt>
      <trkpt lat="43.56488" lon="5.57729">
        <ele>628.62</ele>
        <time>2015-04-04T13:56:39Z</time>
      </trkpt>
      <trkpt lat="43.56476" lon="5.57752">
        <ele>630.2</ele>
        <time>2015-04-04T13:56:44Z</time>
      </trkpt>
      <trkpt lat="43.56464" lon="5.57775">
        <ele>633.79</ele>
        <time>2015-04-04T13:56:49Z</time>
      </trkpt>
      <trkpt lat="43.56451" lon="5.57799">
        <ele>634.37</ele>
        <time>2015-04-04T13:56:55Z</time>
      </trkpt>
      <trkpt lat="43.56439" lon="5.57819">
        <ele>634.37</ele>
        <time>2015-04-04T13:57:00Z</time>
      </trkpt>
      <trkpt lat="43.56426" lon="5.57842">
        <ele>635.01</ele>
        <time>2015-04-04T13:57:05Z</time>
      </trkpt>
      <trkpt lat="43.5641" lon="5.5786">
        <ele>636.28</ele>
        <time>2015-04-04T13:57:09Z</time>
      </trkpt>
      <trkpt lat="43.56395" lon="5.5788">
        <ele>640.77</ele>
        <time>2015-04-04T13:57:14Z</time>
      </trkpt>
      <trkpt lat="43.56385" lon="5.57907">
        <ele>644.06</ele>
        <time>2015-04-04T13:57:19Z</time>
      </trkpt>
      <trkpt lat="43.56377" lon="5.57934">
        <ele>647.14</ele>
        <time>2015-04-04T13:57:24Z</time>
      </trkpt>
      <trkpt lat="43.56378" lon="5.57959">
        <ele>648.42</ele>
        <time>2015-04-04T13:57:28Z</time>
      </trkpt>
      <trkpt lat="43.56373" lon="5.57984">
        <ele>651.52</ele>
        <time>2015-04-04T13:57:33Z</time>
      </trkpt>
      <trkpt lat="43.56362" lon="5.58005">
        <ele>654.96</ele>
        <time>2015-04-04T13:57:37Z</time>
      </trkpt>
      <trkpt lat="43.56344" lon="5.58019">
        <ele>656.12</ele>
        <time>2015-04-04T13:57:41Z</time>
      </trkpt>
      <trkpt lat="43.56324" lon="5.58029">
        <ele>660.55</ele>
        <time>2015-04-04T13:57:46Z</time>
      </trkpt>
      <trkpt lat="43.56313" lon="5.58051">
        <ele>662.32</ele>
        <time>2015-04-04T13:57:50Z</time>
      </trkpt>
      <trkpt lat="43.56307" lon="5.58074">
        <ele>662.4</ele>
        <time>2015-04-04T13:57:54Z</time>
      </trkpt>
      <trkpt lat="43.56308" lon="5.581">
        <ele>662.21</ele>
        <time>2015-04-04T13:57:59Z</time>
      </trkpt>
      <trkpt lat="43.5631" lon="5.58127">
        <ele>662.3</ele>
        <time>2015-04-04T13:58:04Z</time>
      </trkpt>
      <trkpt lat="43.56311" lon="5.58154">
        <ele>662.57</ele>
        <time>2015-04-04T13:58:09Z</time>
      </trkpt>
      <trkpt lat="43.56314" lon="5.58185">
        <ele>662.59</ele>
        <time>2015-04-04T13:58:14Z</time>
      </trkpt>
      <trkpt lat="43.56322" lon="5.58212">
        <ele>662.71</ele>
        <time>2015-04-04T13:58:18Z</time>
      </trkpt>
      <trkpt lat="43.56336" lon="5.58235">
        <ele>660.88</ele>
        <time>2015-04-04T13:58:22Z</time>
      </trkpt>
      <trkpt lat="43.56349" lon="5.58254">
        <ele>658.73</ele>
        <time>2015-04-04T13:58:25Z</time>
      </trkpt>
      <trkpt lat="43.56363" lon="5.58276">
        <ele>656.21</ele>
        <time>2015-04-04T13:58:29Z</time>
      </trkpt>
      <trkpt lat="43.56373" lon="5.58302">
        <ele>655.52</ele>
        <time>2015-04-04T13:58:33Z</time>
      </trkpt>
      <trkpt lat="43.56381" lon="5.58325">
        <ele>655.69</ele>
        <time>2015-04-04T13:58:36Z</time>
      </trkpt>
      <trkpt lat="43.56393" lon="5.58354">
        <ele>655</ele>
        <time>2015-04-04T13:58:40Z</time>
      </trkpt>
      <trkpt lat="43.56405" lon="5.58377">
        <ele>652.33</ele>
        <time>2015-04-04T13:58:43Z</time>
      </trkpt>
      <trkpt lat="43.56419" lon="5.58397">
        <ele>649.19</ele>
        <time>2015-04-04T13:58:46Z</time>
      </trkpt>
      <trkpt lat="43.56434" lon="5.58419">
        <ele>647.49</ele>
        <time>2015-04-04T13:58:49Z</time>
      </trkpt>
      <trkpt lat="43.56445" lon="5.58446">
        <ele>646.21</ele>
        <time>2015-04-04T13:58:52Z</time>
      </trkpt>
      <trkpt lat="43.56455" lon="5.58475">
        <ele>645.21</ele>
        <time>2015-04-04T13:58:55Z</time>
      </trkpt>
      <trkpt lat="43.56466" lon="5.58504">
        <ele>643.49</ele>
        <time>2015-04-04T13:58:58Z</time>
      </trkpt>
      <trkpt lat="43.56476" lon="5.58533">
        <ele>641.72</ele>
        <time>2015-04-04T13:59:01Z</time>
      </trkpt>
      <trkpt lat="43.56486" lon="5.58561">
        <ele>641.23</ele>
        <time>2015-04-04T13:59:04Z</time>
      </trkpt>
      <trkpt lat="43.56499" lon="5.58588">
        <ele>641.21</ele>
        <time>2015-04-04T13:59:07Z</time>
      </trkpt>
      <trkpt lat="43.56512" lon="5.58612">
        <ele>640.48</ele>
        <time>2015-04-04T13:59:10Z</time>
      </trkpt>
      <trkpt lat="43.56525" lon="5.58637">
        <ele>639</ele>
        <time>2015-04-04T13:59:13Z</time>
      </trkpt>
      <trkpt lat="43.56537" lon="5.58658">
        <ele>638.26</ele>
        <time>2015-04-04T13:59:16Z</time>
      </trkpt>
      <trkpt lat="43.56549" lon="5.58679">
        <ele>638.41</ele>
        <time>2015-04-04T13:59:19Z</time>
      </trkpt>
      <trkpt lat="43.56562" lon="5.58706">
        <ele>638.48</ele>
        <time>2015-04-04T13:59:23Z</time>
      </trkpt>
      <trkpt lat="43.56573" lon="5.58728">
        <ele>637.58</ele>
        <time>2015-04-04T13:59:27Z</time>
      </trkpt>
      <trkpt lat="43.56592" lon="5.58719">
        <ele>636.91</ele>
        <time>2015-04-04T13:59:34Z</time>
      </trkpt>
      <trkpt lat="43.56606" lon="5.587">
        <ele>636.64</ele>
        <time>2015-04-04T13:59:39Z</time>
      </trkpt>
      <trkpt lat="43.56625" lon="5.5869">
        <ele>638</ele>
        <time>2015-04-04T13:59:43Z</time>
      </trkpt>
      <trkpt lat="43.56643" lon="5.58678">
        <ele>639.94</ele>
        <time>2015-04-04T13:59:48Z</time>
      </trkpt>
      <trkpt lat="43.56663" lon="5.58667">
        <ele>643.47</ele>
        <time>2015-04-04T13:59:53Z</time>
      </trkpt>
      <trkpt lat="43.5668" lon="5.58658">
        <ele>645.06</ele>
        <time>2015-04-04T13:59:58Z</time>
      </trkpt>
      <trkpt lat="43.56697" lon="5.58642">
        <ele>646.1</ele>
        <time>2015-04-04T14:00:04Z</time>
      </trkpt>
      <trkpt lat="43.5671" lon="5.5862">
        <ele>645.72</ele>
        <time>2015-04-04T14:00:09Z</time>
      </trkpt>
      <trkpt lat="43.56722" lon="5.586">
        <ele>645.88</ele>
        <time>2015-04-04T14:00:15Z</time>
      </trkpt>
      <trkpt lat="43.56737" lon="5.58581">
        <ele>647.24</ele>
        <time>2015-04-04T14:02:06Z</time>
      </trkpt>
      <trkpt lat="43.56754" lon="5.58569">
        <ele>647.08</ele>
        <time>2015-04-04T14:02:13Z</time>
      </trkpt>
      <trkpt lat="43.56768" lon="5.58553">
        <ele>646.72</ele>
        <time>2015-04-04T14:02:20Z</time>
      </trkpt>
      <trkpt lat="43.5678" lon="5.58533">
        <ele>645.84</ele>
        <time>2015-04-04T14:02:28Z</time>
      </trkpt>
      <trkpt lat="43.56799" lon="5.5853">
        <ele>644.29</ele>
        <time>2015-04-04T14:02:37Z</time>
      </trkpt>
      <trkpt lat="43.56817" lon="5.58529">
        <ele>643.14</ele>
        <time>2015-04-04T14:02:45Z</time>
      </trkpt>
      <trkpt lat="43.56835" lon="5.58526">
        <ele>642.34</ele>
        <time>2015-04-04T14:02:50Z</time>
      </trkpt>
      <trkpt lat="43.56852" lon="5.58515">
        <ele>641.67</ele>
        <time>2015-04-04T14:02:55Z</time>
      </trkpt>
      <trkpt lat="43.56869" lon="5.58505">
        <ele>640.74</ele>
        <time>2015-04-04T14:03:01Z</time>
      </trkpt>
      <trkpt lat="43.56882" lon="5.58483">
        <ele>637.44</ele>
        <time>2015-04-04T14:03:30Z</time>
      </trkpt>
      <trkpt lat="43.56872" lon="5.5846">
        <ele>634.09</ele>
        <time>2015-04-04T14:04:19Z</time>
      </trkpt>
      <trkpt lat="43.56859" lon="5.58441">
        <ele>632.07</ele>
        <time>2015-04-04T14:04:30Z</time>
      </trkpt>
      <trkpt lat="43.56842" lon="5.58431">
        <ele>629.98</ele>
        <time>2015-04-04T14:04:48Z</time>
      </trkpt>
      <trkpt lat="43.56824" lon="5.58422">
        <ele>627.67</ele>
        <time>2015-04-04T14:05:21Z</time>
      </trkpt>
      <trkpt lat="43.56809" lon="5.58409">
        <ele>626.42</ele>
        <time>2015-04-04T14:05:29Z</time>
      </trkpt>
      <trkpt lat="43.5679" lon="5.584">
        <ele>622.31</ele>
        <time>2015-04-04T14:05:51Z</time>
      </trkpt>
      <trkpt lat="43.56776" lon="5.58379">
        <ele>618.83</ele>
        <time>2015-04-04T14:06:01Z</time>
      </trkpt>
      <trkpt lat="43.56764" lon="5.58357">
        <ele>615.4</ele>
        <time>2015-04-04T14:06:08Z</time>
      </trkpt>
      <trkpt lat="43.56752" lon="5.58338">
        <ele>611.96</ele>
        <time>2015-04-04T14:06:16Z</time>
      </trkpt>
      <trkpt lat="43.56733" lon="5.58329">
        <ele>608.32</ele>
        <time>2015-04-04T14:06:25Z</time>
      </trkpt>
      <trkpt lat="43.56719" lon="5.58311">
        <ele>605.96</ele>
        <time>2015-04-04T14:06:33Z</time>
      </trkpt>
      <trkpt lat="43.56705" lon="5.58295">
        <ele>603.02</ele>
        <time>2015-04-04T14:06:41Z</time>
      </trkpt>
      <trkpt lat="43.56691" lon="5.5828">
        <ele>599.61</ele>
        <time>2015-04-04T14:06:48Z</time>
      </trkpt>
      <trkpt lat="43.56682" lon="5.58256">
        <ele>596.84</ele>
        <time>2015-04-04T14:06:56Z</time>
      </trkpt>
      <trkpt lat="43.56685" lon="5.58227">
        <ele>594.18</ele>
        <time>2015-04-04T14:07:05Z</time>
      </trkpt>
      <trkpt lat="43.56689" lon="5.58202">
        <ele>592.25</ele>
        <time>2015-04-04T14:07:12Z</time>
      </trkpt>
      <trkpt lat="43.56693" lon="5.58176">
        <ele>591.29</ele>
        <time>2015-04-04T14:07:18Z</time>
      </trkpt>
      <trkpt lat="43.56685" lon="5.5815">
        <ele>590.63</ele>
        <time>2015-04-04T14:07:24Z</time>
      </trkpt>
      <trkpt lat="43.56675" lon="5.58126">
        <ele>588.72</ele>
        <time>2015-04-04T14:07:31Z</time>
      </trkpt>
      <trkpt lat="43.56669" lon="5.58102">
        <ele>586.21</ele>
        <time>2015-04-04T14:07:38Z</time>
      </trkpt>
      <trkpt lat="43.56674" lon="5.58073">
        <ele>581.26</ele>
        <time>2015-04-04T14:07:43Z</time>
      </trkpt>
      <trkpt lat="43.56673" lon="5.58046">
        <ele>578.08</ele>
        <time>2015-04-04T14:07:47Z</time>
      </trkpt>
      <trkpt lat="43.56671" lon="5.5802">
        <ele>577.56</ele>
        <time>2015-04-04T14:07:52Z</time>
      </trkpt>
      <trkpt lat="43.5667" lon="5.57993">
        <ele>578.09</ele>
        <time>2015-04-04T14:07:59Z</time>
      </trkpt>
      <trkpt lat="43.56681" lon="5.57968">
        <ele>576.09</ele>
        <time>2015-04-04T14:08:05Z</time>
      </trkpt>
      <trkpt lat="43.56693" lon="5.57947">
        <ele>573.5</ele>
        <time>2015-04-04T14:08:10Z</time>
      </trkpt>
      <trkpt lat="43.567" lon="5.57921">
        <ele>571.25</ele>
        <time>2015-04-04T14:08:15Z</time>
      </trkpt>
      <trkpt lat="43.56705" lon="5.57892">
        <ele>572.4</ele>
        <time>2015-04-04T14:08:20Z</time>
      </trkpt>
      <trkpt lat="43.56709" lon="5.57863">
        <ele>569.85</ele>
        <time>2015-04-04T14:08:25Z</time>
      </trkpt>
      <trkpt lat="43.56718" lon="5.5784">
        <ele>565.95</ele>
        <time>2015-04-04T14:12:20Z</time>
      </trkpt>
      <trkpt lat="43.56734" lon="5.57821">
        <ele>566.32</ele>
        <time>2015-04-04T14:12:27Z</time>
      </trkpt>
      <trkpt lat="43.56751" lon="5.57805">
        <ele>566.64</ele>
        <time>2015-04-04T14:12:32Z</time>
      </trkpt>
      <trkpt lat="43.56763" lon="5.57784">
        <ele>564.76</ele>
        <time>2015-04-04T14:12:37Z</time>
      </trkpt>
      <trkpt lat="43.56771" lon="5.57759">
        <ele>564</ele>
        <time>2015-04-04T14:12:43Z</time>
      </trkpt>
      <trkpt lat="43.56763" lon="5.57733">
        <ele>562.72</ele>
        <time>2015-04-04T14:12:50Z</time>
      </trkpt>
      <trkpt lat="43.56756" lon="5.57707">
        <ele>561.5</ele>
        <time>2015-04-04T14:12:56Z</time>
      </trkpt>
      <trkpt lat="43.56761" lon="5.57682">
        <ele>560.58</ele>
        <time>2015-04-04T14:13:03Z</time>
      </trkpt>
      <trkpt lat="43.56757" lon="5.57656">
        <ele>559.36</ele>
        <time>2015-04-04T14:13:08Z</time>
      </trkpt>
      <trkpt lat="43.56754" lon="5.57629">
        <ele>557.9</ele>
        <time>2015-04-04T14:13:14Z</time>
      </trkpt>
      <trkpt lat="43.56754" lon="5.57603">
        <ele>556.59</ele>
        <time>2015-04-04T14:13:21Z</time>
      </trkpt>
      <trkpt lat="43.56759" lon="5.57579">
        <ele>555.3</ele>
        <time>2015-04-04T14:13:29Z</time>
      </trkpt>
      <trkpt lat="43.56765" lon="5.57553">
        <ele>553.58</ele>
        <time>2015-04-04T14:13:37Z</time>
      </trkpt>
      <trkpt lat="43.56779" lon="5.5753">
        <ele>551.76</ele>
        <time>2015-04-04T14:13:44Z</time>
      </trkpt>
      <trkpt lat="43.56794" lon="5.57511">
        <ele>550.14</ele>
        <time>2015-04-04T14:13:50Z</time>
      </trkpt>
      <trkpt lat="43.56811" lon="5.575">
        <ele>548.63</ele>
        <time>2015-04-04T14:13:58Z</time>
      </trkpt>
      <trkpt lat="43.56825" lon="5.57482">
        <ele>546.91</ele>
        <time>2015-04-04T14:14:05Z</time>
      </trkpt>
      <trkpt lat="43.56842" lon="5.57471">
        <ele>545.71</ele>
        <time>2015-04-04T14:14:11Z</time>
      </trkpt>
      <trkpt lat="43.5686" lon="5.57463">
        <ele>544.57</ele>
        <time>2015-04-04T14:14:17Z</time>
      </trkpt>
      <trkpt lat="43.56879" lon="5.57452">
        <ele>543.14</ele>
        <time>2015-04-04T14:14:24Z</time>
      </trkpt>
      <trkpt lat="43.56899" lon="5.57449">
        <ele>540.96</ele>
        <time>2015-04-04T14:14:30Z</time>
      </trkpt>
      <trkpt lat="43.56918" lon="5.57453">
        <ele>536.33</ele>
        <time>2015-04-04T14:15:13Z</time>
      </trkpt>
      <trkpt lat="43.56933" lon="5.57438">
        <ele>535.28</ele>
        <time>2015-04-04T14:15:21Z</time>
      </trkpt>
      <trkpt lat="43.56946" lon="5.5742">
        <ele>534.37</ele>
        <time>2015-04-04T14:15:28Z</time>
      </trkpt>
      <trkpt lat="43.56958" lon="5.574">
        <ele>533.19</ele>
        <time>2015-04-04T14:15:34Z</time>
      </trkpt>
      <trkpt lat="43.56965" lon="5.57376">
        <ele>531.66</ele>
        <time>2015-04-04T14:15:40Z</time>
      </trkpt>
      <trkpt lat="43.5697" lon="5.5735">
        <ele>530.01</ele>
        <time>2015-04-04T14:15:45Z</time>
      </trkpt>
      <trkpt lat="43.5697" lon="5.57325">
        <ele>527.58</ele>
        <time>2015-04-04T14:15:52Z</time>
      </trkpt>
      <trkpt lat="43.56971" lon="5.57298">
        <ele>525.44</ele>
        <time>2015-04-04T14:15:59Z</time>
      </trkpt>
      <trkpt lat="43.56975" lon="5.57274">
        <ele>524.34</ele>
        <time>2015-04-04T14:16:03Z</time>
      </trkpt>
      <trkpt lat="43.5698" lon="5.5725">
        <ele>523.28</ele>
        <time>2015-04-04T14:16:08Z</time>
      </trkpt>
      <trkpt lat="43.56987" lon="5.57225">
        <ele>522.38</ele>
        <time>2015-04-04T14:16:13Z</time>
      </trkpt>
      <trkpt lat="43.56998" lon="5.57201">
        <ele>521.36</ele>
        <time>2015-04-04T14:16:20Z</time>
      </trkpt>
      <trkpt lat="43.57013" lon="5.57181">
        <ele>520.67</ele>
        <time>2015-04-04T14:16:27Z</time>
      </trkpt>
      <trkpt lat="43.57024" lon="5.57159">
        <ele>519.92</ele>
        <time>2015-04-04T14:16:32Z</time>
      </trkpt>
      <trkpt lat="43.57039" lon="5.57139">
        <ele>518.84</ele>
        <time>2015-04-04T14:16:37Z</time>
      </trkpt>
      <trkpt lat="43.57053" lon="5.57122">
        <ele>516.94</ele>
        <time>2015-04-04T14:16:43Z</time>
      </trkpt>
      <trkpt lat="43.57071" lon="5.57106">
        <ele>514.42</ele>
        <time>2015-04-04T14:16:49Z</time>
      </trkpt>
      <trkpt lat="43.5709" lon="5.57097">
        <ele>512.05</ele>
        <time>2015-04-04T14:16:55Z</time>
      </trkpt>
      <trkpt lat="43.57105" lon="5.57084">
        <ele>509.84</ele>
        <time>2015-04-04T14:17:01Z</time>
      </trkpt>
      <trkpt lat="43.57119" lon="5.57061">
        <ele>507.84</ele>
        <time>2015-04-04T14:17:07Z</time>
      </trkpt>
      <trkpt lat="43.57133" lon="5.57044">
        <ele>506.77</ele>
        <time>2015-04-04T14:17:12Z</time>
      </trkpt>
      <trkpt lat="43.57148" lon="5.57027">
        <ele>505.83</ele>
        <time>2015-04-04T14:17:18Z</time>
      </trkpt>
      <trkpt lat="43.57165" lon="5.57014">
        <ele>504.21</ele>
        <time>2015-04-04T14:17:25Z</time>
      </trkpt>
      <trkpt lat="43.57181" lon="5.56995">
        <ele>502.42</ele>
        <time>2015-04-04T14:17:32Z</time>
      </trkpt>
      <trkpt lat="43.57196" lon="5.56975">
        <ele>501.23</ele>
        <time>2015-04-04T14:17:39Z</time>
      </trkpt>
      <trkpt lat="43.57207" lon="5.56949">
        <ele>499.84</ele>
        <time>2015-04-04T14:17:44Z</time>
      </trkpt>
      <trkpt lat="43.57222" lon="5.5693">
        <ele>496.95</ele>
        <time>2015-04-04T14:17:49Z</time>
      </trkpt>
      <trkpt lat="43.5724" lon="5.56923">
        <ele>496.58</ele>
        <time>2015-04-04T14:17:54Z</time>
      </trkpt>
      <trkpt lat="43.57256" lon="5.56909">
        <ele>496.31</ele>
        <time>2015-04-04T14:17:59Z</time>
      </trkpt>
      <trkpt lat="43.57259" lon="5.56881">
        <ele>494.74</ele>
        <time>2015-04-04T14:18:05Z</time>
      </trkpt>
      <trkpt lat="43.57262" lon="5.56853">
        <ele>494.13</ele>
        <time>2015-04-04T14:18:11Z</time>
      </trkpt>
      <trkpt lat="43.57262" lon="5.56826">
        <ele>493.6</ele>
        <time>2015-04-04T14:18:16Z</time>
      </trkpt>
      <trkpt lat="43.57263" lon="5.568">
        <ele>493.03</ele>
        <time>2015-04-04T14:18:21Z</time>
      </trkpt>
      <trkpt lat="43.57263" lon="5.56774">
        <ele>490.46</ele>
        <time>2015-04-04T14:18:26Z</time>
      </trkpt>
      <trkpt lat="43.57266" lon="5.56749">
        <ele>487.2</ele>
        <time>2015-04-04T14:18:31Z</time>
      </trkpt>
      <trkpt lat="43.57269" lon="5.56724">
        <ele>487.25</ele>
        <time>2015-04-04T14:18:36Z</time>
      </trkpt>
      <trkpt lat="43.57267" lon="5.56696">
        <ele>487.36</ele>
        <time>2015-04-04T14:18:42Z</time>
      </trkpt>
      <trkpt lat="43.57265" lon="5.56668">
        <ele>487.14</ele>
        <time>2015-04-04T14:18:48Z</time>
      </trkpt>
      <trkpt lat="43.57262" lon="5.56643">
        <ele>486.86</ele>
        <time>2015-04-04T14:18:54Z</time>
      </trkpt>
      <trkpt lat="43.57251" lon="5.56619">
        <ele>486.36</ele>
        <time>2015-04-04T14:19:00Z</time>
      </trkpt>
      <trkpt lat="43.57244" lon="5.56593">
        <ele>485.46</ele>
        <time>2015-04-04T14:19:06Z</time>
      </trkpt>
      <trkpt lat="43.57239" lon="5.56568">
        <ele>484.66</ele>
        <time>2015-04-04T14:19:12Z</time>
      </trkpt>
      <trkpt lat="43.57219" lon="5.5656">
        <ele>484.28</ele>
        <time>2015-04-04T14:19:18Z</time>
      </trkpt>
      <trkpt lat="43.57201" lon="5.56551">
        <ele>483.13</ele>
        <time>2015-04-04T14:19:23Z</time>
      </trkpt>
      <trkpt lat="43.57193" lon="5.56527">
        <ele>481.77</ele>
        <time>2015-04-04T14:19:30Z</time>
      </trkpt>
      <trkpt lat="43.57202" lon="5.56503">
        <ele>481.1</ele>
        <time>2015-04-04T14:19:36Z</time>
      </trkpt>
      <trkpt lat="43.57215" lon="5.56485">
        <ele>480.19</ele>
        <time>2015-04-04T14:20:09Z</time>
      </trkpt>
      <trkpt lat="43.5722" lon="5.56461">
        <ele>479.46</ele>
        <time>2015-04-04T14:20:16Z</time>
      </trkpt>
      <trkpt lat="43.57228" lon="5.56436">
        <ele>478.48</ele>
        <time>2015-04-04T14:20:23Z</time>
      </trkpt>
      <trkpt lat="43.57236" lon="5.56411">
        <ele>477.54</ele>
        <time>2015-04-04T14:20:29Z</time>
      </trkpt>
      <trkpt lat="43.57234" lon="5.56386">
        <ele>476.95</ele>
        <time>2015-04-04T14:20:36Z</time>
      </trkpt>
      <trkpt lat="43.57235" lon="5.56358">
        <ele>476.37</ele>
        <time>2015-04-04T14:20:44Z</time>
      </trkpt>
      <trkpt lat="43.57237" lon="5.5633">
        <ele>475.91</ele>
        <time>2015-04-04T14:20:52Z</time>
      </trkpt>
      <trkpt lat="43.57242" lon="5.56304">
        <ele>475.87</ele>
        <time>2015-04-04T14:20:58Z</time>
      </trkpt>
      <trkpt lat="43.57255" lon="5.56285">
        <ele>474.82</ele>
        <time>2015-04-04T14:21:05Z</time>
      </trkpt>
      <trkpt lat="43.57272" lon="5.56276">
        <ele>473.13</ele>
        <time>2015-04-04T14:21:13Z</time>
      </trkpt>
      <trkpt lat="43.57288" lon="5.56265">
        <ele>471.74</ele>
        <time>2015-04-04T14:21:20Z</time>
      </trkpt>
      <trkpt lat="43.57307" lon="5.56269">
        <ele>470.44</ele>
        <time>2015-04-04T14:21:26Z</time>
      </trkpt>
      <trkpt lat="43.57324" lon="5.56256">
        <ele>469.12</ele>
        <time>2015-04-04T14:21:34Z</time>
      </trkpt>
      <trkpt lat="43.57327" lon="5.56229">
        <ele>468.4</ele>
        <time>2015-04-04T14:21:39Z</time>
      </trkpt>
      <trkpt lat="43.57333" lon="5.56203">
        <ele>465.82</ele>
        <time>2015-04-04T14:21:45Z</time>
      </trkpt>
      <trkpt lat="43.57353" lon="5.56198">
        <ele>465.01</ele>
        <time>2015-04-04T14:21:52Z</time>
      </trkpt>
      <trkpt lat="43.57372" lon="5.56201">
        <ele>464.32</ele>
        <time>2015-04-04T14:21:57Z</time>
      </trkpt>
      <trkpt lat="43.57392" lon="5.56199">
        <ele>461.66</ele>
        <time>2015-04-04T14:22:03Z</time>
      </trkpt>
      <trkpt lat="43.574" lon="5.56176">
        <ele>460.89</ele>
        <time>2015-04-04T14:22:08Z</time>
      </trkpt>
      <trkpt lat="43.57404" lon="5.56146">
        <ele>459.21</ele>
        <time>2015-04-04T14:22:13Z</time>
      </trkpt>
      <trkpt lat="43.57418" lon="5.56129">
        <ele>457.42</ele>
        <time>2015-04-04T14:22:18Z</time>
      </trkpt>
      <trkpt lat="43.57438" lon="5.56124">
        <ele>456.06</ele>
        <time>2015-04-04T14:22:23Z</time>
      </trkpt>
      <trkpt lat="43.57458" lon="5.56128">
        <ele>452.33</ele>
        <time>2015-04-04T14:22:28Z</time>
      </trkpt>
      <trkpt lat="43.57477" lon="5.56123">
        <ele>450.34</ele>
        <time>2015-04-04T14:22:32Z</time>
      </trkpt>
      <trkpt lat="43.57496" lon="5.56108">
        <ele>448.74</ele>
        <time>2015-04-04T14:22:37Z</time>
      </trkpt>
      <trkpt lat="43.57511" lon="5.56092">
        <ele>447.72</ele>
        <time>2015-04-04T14:22:41Z</time>
      </trkpt>
      <trkpt lat="43.57523" lon="5.56073">
        <ele>447.54</ele>
        <time>2015-04-04T14:22:45Z</time>
      </trkpt>
      <trkpt lat="43.57538" lon="5.56057">
        <ele>447.08</ele>
        <time>2015-04-04T14:22:49Z</time>
      </trkpt>
      <trkpt lat="43.57555" lon="5.56046">
        <ele>446.22</ele>
        <time>2015-04-04T14:22:53Z</time>
      </trkpt>
      <trkpt lat="43.57577" lon="5.56045">
        <ele>444.76</ele>
        <time>2015-04-04T14:22:58Z</time>
      </trkpt>
      <trkpt lat="43.57597" lon="5.56045">
        <ele>443.94</ele>
        <time>2015-04-04T14:23:03Z</time>
      </trkpt>
      <trkpt lat="43.57617" lon="5.56042">
        <ele>443.6</ele>
        <time>2015-04-04T14:23:08Z</time>
      </trkpt>
      <trkpt lat="43.57635" lon="5.56037">
        <ele>443.28</ele>
        <time>2015-04-04T14:23:12Z</time>
      </trkpt>
      <trkpt lat="43.57653" lon="5.56028">
        <ele>441.6</ele>
        <time>2015-04-04T14:23:16Z</time>
      </trkpt>
      <trkpt lat="43.57673" lon="5.56016">
        <ele>442.74</ele>
        <time>2015-04-04T14:23:21Z</time>
      </trkpt>
      <trkpt lat="43.57691" lon="5.56002">
        <ele>442.92</ele>
        <time>2015-04-04T14:23:26Z</time>
      </trkpt>
      <trkpt lat="43.57709" lon="5.55986">
        <ele>441.29</ele>
        <time>2015-04-04T14:23:31Z</time>
      </trkpt>
      <trkpt lat="43.57726" lon="5.55976">
        <ele>438.57</ele>
        <time>2015-04-04T14:23:35Z</time>
      </trkpt>
      <trkpt lat="43.57746" lon="5.55983">
        <ele>435.03</ele>
        <time>2015-04-04T14:23:40Z</time>
      </trkpt>
      <trkpt lat="43.57759" lon="5.56004">
        <ele>431.68</ele>
        <time>2015-04-04T14:23:44Z</time>
      </trkpt>
      <trkpt lat="43.57778" lon="5.56017">
        <ele>433.56</ele>
        <time>2015-04-04T14:23:49Z</time>
      </trkpt>
      <trkpt lat="43.57796" lon="5.56009">
        <ele>434.21</ele>
        <time>2015-04-04T14:23:53Z</time>
      </trkpt>
      <trkpt lat="43.57813" lon="5.56001">
        <ele>435.5</ele>
        <time>2015-04-04T14:23:57Z</time>
      </trkpt>
      <trkpt lat="43.57833" lon="5.55998">
        <ele>434.56</ele>
        <time>2015-04-04T14:24:03Z</time>
      </trkpt>
      <trkpt lat="43.57839" lon="5.56024">
        <ele>431.27</ele>
        <time>2015-04-04T14:25:18Z</time>
      </trkpt>
      <trkpt lat="43.57843" lon="5.5605">
        <ele>430.57</ele>
        <time>2015-04-04T14:25:24Z</time>
      </trkpt>
      <trkpt lat="43.57849" lon="5.56075">
        <ele>430.18</ele>
        <time>2015-04-04T14:25:29Z</time>
      </trkpt>
      <trkpt lat="43.57862" lon="5.56099">
        <ele>429.94</ele>
        <time>2015-04-04T14:25:34Z</time>
      </trkpt>
      <trkpt lat="43.57881" lon="5.56106">
        <ele>431.08</ele>
        <time>2015-04-04T14:25:39Z</time>
      </trkpt>
      <trkpt lat="43.57899" lon="5.56119">
        <ele>430.42</ele>
        <time>2015-04-04T14:25:43Z</time>
      </trkpt>
      <trkpt lat="43.57915" lon="5.5614">
        <ele>429.39</ele>
        <time>2015-04-04T14:25:48Z</time>
      </trkpt>
      <trkpt lat="43.5793" lon="5.56158">
        <ele>428.3</ele>
        <time>2015-04-04T14:25:53Z</time>
      </trkpt>
      <trkpt lat="43.57945" lon="5.56173">
        <ele>428.16</ele>
        <time>2015-04-04T14:25:58Z</time>
      </trkpt>
      <trkpt lat="43.57959" lon="5.56194">
        <ele>427.94</ele>
        <time>2015-04-04T14:26:02Z</time>
      </trkpt>
      <trkpt lat="43.57976" lon="5.56207">
        <ele>427.64</ele>
        <time>2015-04-04T14:26:07Z</time>
      </trkpt>
      <trkpt lat="43.57996" lon="5.56222">
        <ele>428.9</ele>
        <time>2015-04-04T14:26:11Z</time>
      </trkpt>
      <trkpt lat="43.58016" lon="5.56224">
        <ele>429.14</ele>
        <time>2015-04-04T14:26:16Z</time>
      </trkpt>
      <trkpt lat="43.58038" lon="5.5623">
        <ele>430.66</ele>
        <time>2015-04-04T14:26:21Z</time>
      </trkpt>
      <trkpt lat="43.58053" lon="5.56245">
        <ele>432.04</ele>
        <time>2015-04-04T14:26:25Z</time>
      </trkpt>
      <trkpt lat="43.58065" lon="5.56266">
        <ele>433.99</ele>
        <time>2015-04-04T14:26:29Z</time>
      </trkpt>
      <trkpt lat="43.58082" lon="5.56285">
        <ele>437.5</ele>
        <time>2015-04-04T14:26:34Z</time>
      </trkpt>
      <trkpt lat="43.58099" lon="5.56302">
        <ele>441.46</ele>
        <time>2015-04-04T14:26:39Z</time>
      </trkpt>
      <trkpt lat="43.58113" lon="5.56324">
        <ele>443.9</ele>
        <time>2015-04-04T14:26:43Z</time>
      </trkpt>
      <trkpt lat="43.58126" lon="5.56342">
        <ele>443.76</ele>
        <time>2015-04-04T14:26:48Z</time>
      </trkpt>
      <trkpt lat="43.58142" lon="5.56362">
        <ele>442.39</ele>
        <time>2015-04-04T14:26:53Z</time>
      </trkpt>
      <trkpt lat="43.58153" lon="5.56387">
        <ele>437.99</ele>
        <time>2015-04-04T14:26:57Z</time>
      </trkpt>
      <trkpt lat="43.58166" lon="5.56405">
        <ele>437.2</ele>
        <time>2015-04-04T14:27:02Z</time>
      </trkpt>
      <trkpt lat="43.58187" lon="5.56413">
        <ele>436.72</ele>
        <time>2015-04-04T14:27:07Z</time>
      </trkpt>
      <trkpt lat="43.58209" lon="5.56415">
        <ele>438.27</ele>
        <time>2015-04-04T14:27:12Z</time>
      </trkpt>
      <trkpt lat="43.58228" lon="5.56412">
        <ele>438.22</ele>
        <time>2015-04-04T14:27:16Z</time>
      </trkpt>
      <trkpt lat="43.58249" lon="5.56405">
        <ele>439</ele>
        <time>2015-04-04T14:27:21Z</time>
      </trkpt>
      <trkpt lat="43.58268" lon="5.564">
        <ele>439.67</ele>
        <time>2015-04-04T14:27:27Z</time>
      </trkpt>
      <trkpt lat="43.58285" lon="5.56418">
        <ele>440.67</ele>
        <time>2015-04-04T14:27:33Z</time>
      </trkpt>
      <trkpt lat="43.58296" lon="5.56441">
        <ele>443.18</ele>
        <time>2015-04-04T14:27:38Z</time>
      </trkpt>
      <trkpt lat="43.58304" lon="5.56468">
        <ele>444.95</ele>
        <time>2015-04-04T14:27:44Z</time>
      </trkpt>
      <trkpt lat="43.58307" lon="5.56493">
        <ele>445.44</ele>
        <time>2015-04-04T14:27:49Z</time>
      </trkpt>
      <trkpt lat="43.58307" lon="5.56518">
        <ele>445.69</ele>
        <time>2015-04-04T14:27:53Z</time>
      </trkpt>
      <trkpt lat="43.58308" lon="5.56545">
        <ele>448.16</ele>
        <time>2015-04-04T14:27:58Z</time>
      </trkpt>
      <trkpt lat="43.58314" lon="5.56571">
        <ele>449.11</ele>
        <time>2015-04-04T14:28:03Z</time>
      </trkpt>
      <trkpt lat="43.58327" lon="5.56592">
        <ele>450.48</ele>
        <time>2015-04-04T14:28:09Z</time>
      </trkpt>
      <trkpt lat="43.58347" lon="5.56595">
        <ele>451.63</ele>
        <time>2015-04-04T14:28:15Z</time>
      </trkpt>
      <trkpt lat="43.58367" lon="5.56589">
        <ele>453.23</ele>
        <time>2015-04-04T14:28:21Z</time>
      </trkpt>
      <trkpt lat="43.58386" lon="5.56585">
        <ele>454.85</ele>
        <time>2015-04-04T14:28:27Z</time>
      </trkpt>
      <trkpt lat="43.58405" lon="5.56589">
        <ele>457.32</ele>
        <time>2015-04-04T14:28:35Z</time>
      </trkpt>
      <trkpt lat="43.58394" lon="5.56613">
        <ele>459.39</ele>
        <time>2015-04-04T14:28:44Z</time>
      </trkpt>
      <trkpt lat="43.58382" lon="5.56638">
        <ele>460.64</ele>
        <time>2015-04-04T14:28:50Z</time>
      </trkpt>
      <trkpt lat="43.58373" lon="5.56663">
        <ele>462.06</ele>
        <time>2015-04-04T14:28:56Z</time>
      </trkpt>
      <trkpt lat="43.58367" lon="5.56689">
        <ele>463.55</ele>
        <time>2015-04-04T14:29:03Z</time>
      </trkpt>
      <trkpt lat="43.58363" lon="5.56718">
        <ele>465.09</ele>
        <time>2015-04-04T14:29:11Z</time>
      </trkpt>
      <trkpt lat="43.58361" lon="5.56743">
        <ele>466.21</ele>
        <time>2015-04-04T14:29:17Z</time>
      </trkpt>
      <trkpt lat="43.58353" lon="5.56771">
        <ele>467.57</ele>
        <time>2015-04-04T14:29:23Z</time>
      </trkpt>
      <trkpt lat="43.58344" lon="5.56796">
        <ele>468.73</ele>
        <time>2015-04-04T14:29:29Z</time>
      </trkpt>
      <trkpt lat="43.58336" lon="5.56818">
        <ele>470.53</ele>
        <time>2015-04-04T14:29:35Z</time>
      </trkpt>
      <trkpt lat="43.58327" lon="5.56843">
        <ele>472.82</ele>
        <time>2015-04-04T14:29:41Z</time>
      </trkpt>
      <trkpt lat="43.58321" lon="5.56868">
        <ele>476.25</ele>
        <time>2015-04-04T14:29:48Z</time>
      </trkpt>
      <trkpt lat="43.58314" lon="5.56892">
        <ele>479.63</ele>
        <time>2015-04-04T14:29:54Z</time>
      </trkpt>
      <trkpt lat="43.58311" lon="5.56919">
        <ele>483.54</ele>
        <time>2015-04-04T14:30:01Z</time>
      </trkpt>
      <trkpt lat="43.58308" lon="5.56947">
        <ele>486.95</ele>
        <time>2015-04-04T14:30:08Z</time>
      </trkpt>
      <trkpt lat="43.58304" lon="5.56974">
        <ele>489.96</ele>
        <time>2015-04-04T14:30:14Z</time>
      </trkpt>
      <trkpt lat="43.58306" lon="5.57003">
        <ele>493.26</ele>
        <time>2015-04-04T14:30:21Z</time>
      </trkpt>
      <trkpt lat="43.58311" lon="5.57029">
        <ele>496.87</ele>
        <time>2015-04-04T14:30:28Z</time>
      </trkpt>
      <trkpt lat="43.58319" lon="5.57052">
        <ele>499.29</ele>
        <time>2015-04-04T14:30:33Z</time>
      </trkpt>
      <trkpt lat="43.58328" lon="5.57075">
        <ele>502.5</ele>
        <time>2015-04-04T14:30:39Z</time>
      </trkpt>
      <trkpt lat="43.58335" lon="5.57098">
        <ele>505.88</ele>
        <time>2015-04-04T14:30:45Z</time>
      </trkpt>
      <trkpt lat="43.58341" lon="5.57125">
        <ele>512.33</ele>
        <time>2015-04-04T14:30:51Z</time>
      </trkpt>
      <trkpt lat="43.58348" lon="5.57149">
        <ele>517.55</ele>
        <time>2015-04-04T14:30:56Z</time>
      </trkpt>
      <trkpt lat="43.58355" lon="5.57175">
        <ele>519.39</ele>
        <time>2015-04-04T14:31:01Z</time>
      </trkpt>
      <trkpt lat="43.58368" lon="5.57195">
        <ele>520.75</ele>
        <time>2015-04-04T14:31:06Z</time>
      </trkpt>
      <trkpt lat="43.58383" lon="5.57215">
        <ele>527.87</ele>
        <time>2015-04-04T14:31:11Z</time>
      </trkpt>
      <trkpt lat="43.58396" lon="5.57232">
        <ele>530.97</ele>
        <time>2015-04-04T14:31:15Z</time>
      </trkpt>
      <trkpt lat="43.5841" lon="5.57254">
        <ele>533.14</ele>
        <time>2015-04-04T14:31:20Z</time>
      </trkpt>
      <trkpt lat="43.58423" lon="5.57275">
        <ele>534.52</ele>
        <time>2015-04-04T14:31:24Z</time>
      </trkpt>
      <trkpt lat="43.58435" lon="5.57295">
        <ele>535.91</ele>
        <time>2015-04-04T14:31:28Z</time>
      </trkpt>
      <trkpt lat="43.58447" lon="5.57315">
        <ele>539.1</ele>
        <time>2015-04-04T14:31:32Z</time>
      </trkpt>
      <trkpt lat="43.5846" lon="5.57339">
        <ele>542.13</ele>
        <time>2015-04-04T14:31:37Z</time>
      </trkpt>
      <trkpt lat="43.58475" lon="5.5736">
        <ele>545.61</ele>
        <time>2015-04-04T14:31:42Z</time>
      </trkpt>
      <trkpt lat="43.58491" lon="5.57382">
        <ele>545.94</ele>
        <time>2015-04-04T14:31:46Z</time>
      </trkpt>
      <trkpt lat="43.58502" lon="5.57404">
        <ele>547.72</ele>
        <time>2015-04-04T14:31:50Z</time>
      </trkpt>
      <trkpt lat="43.58514" lon="5.57427">
        <ele>549.95</ele>
        <time>2015-04-04T14:31:54Z</time>
      </trkpt>
      <trkpt lat="43.58523" lon="5.57449">
        <ele>550.07</ele>
        <time>2015-04-04T14:31:57Z</time>
      </trkpt>
      <trkpt lat="43.58533" lon="5.57474">
        <ele>547.98</ele>
        <time>2015-04-04T14:32:01Z</time>
      </trkpt>
      <trkpt lat="43.58547" lon="5.57498">
        <ele>548.58</ele>
        <time>2015-04-04T14:32:06Z</time>
      </trkpt>
      <trkpt lat="43.58559" lon="5.57521">
        <ele>552.86</ele>
        <time>2015-04-04T14:32:11Z</time>
      </trkpt>
      <trkpt lat="43.58566" lon="5.57544">
        <ele>555.77</ele>
        <time>2015-04-04T14:32:15Z</time>
      </trkpt>
      <trkpt lat="43.58574" lon="5.57571">
        <ele>556.88</ele>
        <time>2015-04-04T14:32:19Z</time>
      </trkpt>
      <trkpt lat="43.58582" lon="5.57595">
        <ele>557.46</ele>
        <time>2015-04-04T14:32:23Z</time>
      </trkpt>
      <trkpt lat="43.5859" lon="5.57619">
        <ele>558.4</ele>
        <time>2015-04-04T14:32:27Z</time>
      </trkpt>
      <trkpt lat="43.586" lon="5.57645">
        <ele>558.41</ele>
        <time>2015-04-04T14:32:31Z</time>
      </trkpt>
      <trkpt lat="43.58609" lon="5.57669">
        <ele>557.97</ele>
        <time>2015-04-04T14:32:35Z</time>
      </trkpt>
      <trkpt lat="43.58622" lon="5.57689">
        <ele>557.34</ele>
        <time>2015-04-04T14:32:39Z</time>
      </trkpt>
      <trkpt lat="43.58632" lon="5.5771">
        <ele>557.91</ele>
        <time>2015-04-04T14:32:43Z</time>
      </trkpt>
      <trkpt lat="43.58641" lon="5.5774">
        <ele>558.12</ele>
        <time>2015-04-04T14:32:48Z</time>
      </trkpt>
      <trkpt lat="43.58647" lon="5.57769">
        <ele>557.93</ele>
        <time>2015-04-04T14:32:53Z</time>
      </trkpt>
      <trkpt lat="43.58654" lon="5.57792">
        <ele>559.5</ele>
        <time>2015-04-04T14:32:57Z</time>
      </trkpt>
      <trkpt lat="43.58664" lon="5.57821">
        <ele>560.45</ele>
        <time>2015-04-04T14:33:01Z</time>
      </trkpt>
      <trkpt lat="43.58671" lon="5.57849">
        <ele>560.59</ele>
        <time>2015-04-04T14:33:06Z</time>
      </trkpt>
      <trkpt lat="43.58673" lon="5.57875">
        <ele>561.27</ele>
        <time>2015-04-04T14:33:10Z</time>
      </trkpt>
      <trkpt lat="43.5868" lon="5.57903">
        <ele>563.11</ele>
        <time>2015-04-04T14:33:15Z</time>
      </trkpt>
      <trkpt lat="43.58688" lon="5.57926">
        <ele>564.27</ele>
        <time>2015-04-04T14:33:18Z</time>
      </trkpt>
      <trkpt lat="43.58697" lon="5.57951">
        <ele>565.25</ele>
        <time>2015-04-04T14:33:22Z</time>
      </trkpt>
      <trkpt lat="43.58706" lon="5.57973">
        <ele>566</ele>
        <time>2015-04-04T14:33:26Z</time>
      </trkpt>
      <trkpt lat="43.58717" lon="5.57995">
        <ele>567.71</ele>
        <time>2015-04-04T14:33:30Z</time>
      </trkpt>
      <trkpt lat="43.58721" lon="5.5802">
        <ele>567.5</ele>
        <time>2015-04-04T14:33:35Z</time>
      </trkpt>
      <trkpt lat="43.58728" lon="5.5805">
        <ele>567.25</ele>
        <time>2015-04-04T14:33:40Z</time>
      </trkpt>
      <trkpt lat="43.58735" lon="5.58075">
        <ele>567.43</ele>
        <time>2015-04-04T14:33:44Z</time>
      </trkpt>
      <trkpt lat="43.58741" lon="5.58103">
        <ele>568.57</ele>
        <time>2015-04-04T14:33:49Z</time>
      </trkpt>
      <trkpt lat="43.58745" lon="5.58133">
        <ele>567.62</ele>
        <time>2015-04-04T14:33:54Z</time>
      </trkpt>
      <trkpt lat="43.58752" lon="5.58163">
        <ele>570.31</ele>
        <time>2015-04-04T14:33:59Z</time>
      </trkpt>
      <trkpt lat="43.5876" lon="5.58185">
        <ele>572.11</ele>
        <time>2015-04-04T14:34:02Z</time>
      </trkpt>
      <trkpt lat="43.5877" lon="5.58213">
        <ele>572.9</ele>
        <time>2015-04-04T14:34:06Z</time>
      </trkpt>
      <trkpt lat="43.5878" lon="5.58238">
        <ele>573.01</ele>
        <time>2015-04-04T14:34:10Z</time>
      </trkpt>
      <trkpt lat="43.58791" lon="5.58264">
        <ele>572.58</ele>
        <time>2015-04-04T14:34:14Z</time>
      </trkpt>
      <trkpt lat="43.58799" lon="5.5829">
        <ele>573.13</ele>
        <time>2015-04-04T14:34:18Z</time>
      </trkpt>
      <trkpt lat="43.58806" lon="5.58314">
        <ele>575.17</ele>
        <time>2015-04-04T14:34:22Z</time>
      </trkpt>
      <trkpt lat="43.58812" lon="5.58338">
        <ele>575.68</ele>
        <time>2015-04-04T14:34:26Z</time>
      </trkpt>
      <trkpt lat="43.5882" lon="5.58364">
        <ele>575.5</ele>
        <time>2015-04-04T14:34:31Z</time>
      </trkpt>
      <trkpt lat="43.58829" lon="5.58391">
        <ele>575.99</ele>
        <time>2015-04-04T14:34:37Z</time>
      </trkpt>
      <trkpt lat="43.58838" lon="5.58419">
        <ele>577.98</ele>
        <time>2015-04-04T14:34:42Z</time>
      </trkpt>
      <trkpt lat="43.58844" lon="5.58445">
        <ele>579.53</ele>
        <time>2015-04-04T14:34:47Z</time>
      </trkpt>
      <trkpt lat="43.5885" lon="5.58471">
        <ele>581.82</ele>
        <time>2015-04-04T14:34:52Z</time>
      </trkpt>
      <trkpt lat="43.58859" lon="5.58494">
        <ele>583.41</ele>
        <time>2015-04-04T14:34:56Z</time>
      </trkpt>
      <trkpt lat="43.58871" lon="5.58518">
        <ele>584.7</ele>
        <time>2015-04-04T14:35:01Z</time>
      </trkpt>
      <trkpt lat="43.58885" lon="5.5854">
        <ele>585.69</ele>
        <time>2015-04-04T14:35:06Z</time>
      </trkpt>
      <trkpt lat="43.58897" lon="5.58563">
        <ele>585.69</ele>
        <time>2015-04-04T14:35:10Z</time>
      </trkpt>
      <trkpt lat="43.5891" lon="5.5858">
        <ele>587.42</ele>
        <time>2015-04-04T14:35:14Z</time>
      </trkpt>
      <trkpt lat="43.58926" lon="5.58597">
        <ele>589.34</ele>
        <time>2015-04-04T14:35:18Z</time>
      </trkpt>
      <trkpt lat="43.58939" lon="5.58616">
        <ele>591.22</ele>
        <time>2015-04-04T14:35:22Z</time>
      </trkpt>
      <trkpt lat="43.58952" lon="5.58637">
        <ele>591.09</ele>
        <time>2015-04-04T14:35:26Z</time>
      </trkpt>
      <trkpt lat="43.58963" lon="5.58661">
        <ele>591.75</ele>
        <time>2015-04-04T14:35:30Z</time>
      </trkpt>
      <trkpt lat="43.58972" lon="5.58682">
        <ele>590.92</ele>
        <time>2015-04-04T14:35:34Z</time>
      </trkpt>
      <trkpt lat="43.58983" lon="5.58703">
        <ele>590.38</ele>
        <time>2015-04-04T14:35:38Z</time>
      </trkpt>
      <trkpt lat="43.58994" lon="5.58724">
        <ele>590.82</ele>
        <time>2015-04-04T14:35:42Z</time>
      </trkpt>
      <trkpt lat="43.59006" lon="5.58745">
        <ele>593.03</ele>
        <time>2015-04-04T14:35:46Z</time>
      </trkpt>
      <trkpt lat="43.5902" lon="5.58763">
        <ele>594.71</ele>
        <time>2015-04-04T14:35:50Z</time>
      </trkpt>
      <trkpt lat="43.59036" lon="5.58778">
        <ele>595.67</ele>
        <time>2015-04-04T14:35:56Z</time>
      </trkpt>
      <trkpt lat="43.59049" lon="5.58797">
        <ele>599.29</ele>
        <time>2015-04-04T14:36:00Z</time>
      </trkpt>
      <trkpt lat="43.5906" lon="5.58822">
        <ele>600.62</ele>
        <time>2015-04-04T14:36:04Z</time>
      </trkpt>
      <trkpt lat="43.59063" lon="5.58849">
        <ele>600.4</ele>
        <time>2015-04-04T14:36:08Z</time>
      </trkpt>
      <trkpt lat="43.59064" lon="5.58876">
        <ele>599.66</ele>
        <time>2015-04-04T14:36:12Z</time>
      </trkpt>
      <trkpt lat="43.59064" lon="5.58904">
        <ele>599.79</ele>
        <time>2015-04-04T14:36:16Z</time>
      </trkpt>
      <trkpt lat="43.59065" lon="5.58935">
        <ele>601.44</ele>
        <time>2015-04-04T14:36:20Z</time>
      </trkpt>
      <trkpt lat="43.59069" lon="5.58967">
        <ele>603.56</ele>
        <time>2015-04-04T14:36:24Z</time>
      </trkpt>
      <trkpt lat="43.5907" lon="5.58992">
        <ele>604.82</ele>
        <time>2015-04-04T14:36:28Z</time>
      </trkpt>
      <trkpt lat="43.59065" lon="5.59017">
        <ele>607.95</ele>
        <time>2015-04-04T14:38:26Z</time>
      </trkpt>
      <trkpt lat="43.59065" lon="5.59043">
        <ele>608.03</ele>
        <time>2015-04-04T14:38:33Z</time>
      </trkpt>
      <trkpt lat="43.59066" lon="5.59074">
        <ele>608.91</ele>
        <time>2015-04-04T14:38:38Z</time>
      </trkpt>
      <trkpt lat="43.59071" lon="5.59106">
        <ele>611.69</ele>
        <time>2015-04-04T14:38:42Z</time>
      </trkpt>
      <trkpt lat="43.59083" lon="5.59133">
        <ele>614.57</ele>
        <time>2015-04-04T14:38:46Z</time>
      </trkpt>
      <trkpt lat="43.59096" lon="5.59157">
        <ele>614.65</ele>
        <time>2015-04-04T14:38:51Z</time>
      </trkpt>
      <trkpt lat="43.59114" lon="5.59171">
        <ele>613.58</ele>
        <time>2015-04-04T14:38:56Z</time>
      </trkpt>
      <trkpt lat="43.59134" lon="5.59179">
        <ele>613.28</ele>
        <time>2015-04-04T14:39:02Z</time>
      </trkpt>
      <trkpt lat="43.59157" lon="5.5918">
        <ele>615.38</ele>
        <time>2015-04-04T14:39:07Z</time>
      </trkpt>
      <trkpt lat="43.59178" lon="5.5918">
        <ele>618.22</ele>
        <time>2015-04-04T14:39:12Z</time>
      </trkpt>
      <trkpt lat="43.59198" lon="5.59175">
        <ele>618.83</ele>
        <time>2015-04-04T14:39:17Z</time>
      </trkpt>
      <trkpt lat="43.59211" lon="5.59153">
        <ele>618.57</ele>
        <time>2015-04-04T14:39:23Z</time>
      </trkpt>
      <trkpt lat="43.59223" lon="5.5913">
        <ele>618.67</ele>
        <time>2015-04-04T14:39:29Z</time>
      </trkpt>
      <trkpt lat="43.59238" lon="5.59106">
        <ele>618.97</ele>
        <time>2015-04-04T14:39:35Z</time>
      </trkpt>
      <trkpt lat="43.59251" lon="5.59086">
        <ele>620.29</ele>
        <time>2015-04-04T14:39:38Z</time>
      </trkpt>
      <trkpt lat="43.59258" lon="5.59062">
        <ele>621.7</ele>
        <time>2015-04-04T14:39:43Z</time>
      </trkpt>
      <trkpt lat="43.59262" lon="5.59036">
        <ele>621.04</ele>
        <time>2015-04-04T14:39:47Z</time>
      </trkpt>
      <trkpt lat="43.59271" lon="5.59015">
        <ele>620.13</ele>
        <time>2015-04-04T14:39:51Z</time>
      </trkpt>
      <trkpt lat="43.59289" lon="5.59009">
        <ele>621.42</ele>
        <time>2015-04-04T14:39:55Z</time>
      </trkpt>
      <trkpt lat="43.59308" lon="5.59007">
        <ele>620.93</ele>
        <time>2015-04-04T14:39:59Z</time>
      </trkpt>
      <trkpt lat="43.59323" lon="5.58993">
        <ele>621.29</ele>
        <time>2015-04-04T14:40:03Z</time>
      </trkpt>
      <trkpt lat="43.59337" lon="5.58973">
        <ele>624.92</ele>
        <time>2015-04-04T14:40:07Z</time>
      </trkpt>
      <trkpt lat="43.59354" lon="5.58955">
        <ele>628.05</ele>
        <time>2015-04-04T14:40:11Z</time>
      </trkpt>
      <trkpt lat="43.59371" lon="5.58942">
        <ele>627.36</ele>
        <time>2015-04-04T14:40:15Z</time>
      </trkpt>
      <trkpt lat="43.59385" lon="5.58926">
        <ele>625.59</ele>
        <time>2015-04-04T14:40:19Z</time>
      </trkpt>
      <trkpt lat="43.594" lon="5.58903">
        <ele>624.48</ele>
        <time>2015-04-04T14:40:24Z</time>
      </trkpt>
      <trkpt lat="43.59411" lon="5.58884">
        <ele>624.14</ele>
        <time>2015-04-04T14:40:28Z</time>
      </trkpt>
      <trkpt lat="43.59415" lon="5.58857">
        <ele>623.42</ele>
        <time>2015-04-04T14:40:32Z</time>
      </trkpt>
      <trkpt lat="43.59426" lon="5.58832">
        <ele>620.94</ele>
        <time>2015-04-04T14:40:36Z</time>
      </trkpt>
      <trkpt lat="43.59442" lon="5.58811">
        <ele>619.22</ele>
        <time>2015-04-04T14:40:40Z</time>
      </trkpt>
      <trkpt lat="43.59454" lon="5.5879">
        <ele>620.37</ele>
        <time>2015-04-04T14:40:43Z</time>
      </trkpt>
      <trkpt lat="43.59465" lon="5.58764">
        <ele>622.24</ele>
        <time>2015-04-04T14:40:46Z</time>
      </trkpt>
      <trkpt lat="43.59477" lon="5.58737">
        <ele>622.99</ele>
        <time>2015-04-04T14:40:49Z</time>
      </trkpt>
      <trkpt lat="43.59491" lon="5.58714">
        <ele>620.08</ele>
        <time>2015-04-04T14:40:52Z</time>
      </trkpt>
      <trkpt lat="43.59506" lon="5.58697">
        <ele>615.89</ele>
        <time>2015-04-04T14:40:55Z</time>
      </trkpt>
      <trkpt lat="43.59521" lon="5.58677">
        <ele>612.82</ele>
        <time>2015-04-04T14:40:58Z</time>
      </trkpt>
      <trkpt lat="43.59531" lon="5.58656">
        <ele>611.85</ele>
        <time>2015-04-04T14:41:01Z</time>
      </trkpt>
      <trkpt lat="43.59542" lon="5.5863">
        <ele>610.13</ele>
        <time>2015-04-04T14:41:05Z</time>
      </trkpt>
      <trkpt lat="43.59553" lon="5.58605">
        <ele>609.47</ele>
        <time>2015-04-04T14:41:09Z</time>
      </trkpt>
      <trkpt lat="43.59566" lon="5.5858">
        <ele>608.78</ele>
        <time>2015-04-04T14:41:13Z</time>
      </trkpt>
      <trkpt lat="43.59582" lon="5.58559">
        <ele>607.87</ele>
        <time>2015-04-04T14:41:17Z</time>
      </trkpt>
      <trkpt lat="43.59597" lon="5.58538">
        <ele>608.51</ele>
        <time>2015-04-04T14:41:21Z</time>
      </trkpt>
      <trkpt lat="43.59614" lon="5.58519">
        <ele>610.05</ele>
        <time>2015-04-04T14:41:25Z</time>
      </trkpt>
      <trkpt lat="43.5963" lon="5.58503">
        <ele>610.17</ele>
        <time>2015-04-04T14:41:29Z</time>
      </trkpt>
      <trkpt lat="43.59648" lon="5.58488">
        <ele>609.89</ele>
        <time>2015-04-04T14:41:33Z</time>
      </trkpt>
      <trkpt lat="43.59668" lon="5.58482">
        <ele>610.89</ele>
        <time>2015-04-04T14:41:37Z</time>
      </trkpt>
      <trkpt lat="43.59691" lon="5.58479">
        <ele>609.67</ele>
        <time>2015-04-04T14:41:41Z</time>
      </trkpt>
      <trkpt lat="43.59712" lon="5.58472">
        <ele>607.99</ele>
        <time>2015-04-04T14:41:45Z</time>
      </trkpt>
      <trkpt lat="43.59731" lon="5.58465">
        <ele>605.49</ele>
        <time>2015-04-04T14:41:49Z</time>
      </trkpt>
      <trkpt lat="43.5975" lon="5.58455">
        <ele>603.99</ele>
        <time>2015-04-04T14:41:53Z</time>
      </trkpt>
      <trkpt lat="43.59768" lon="5.58443">
        <ele>605.11</ele>
        <time>2015-04-04T14:41:57Z</time>
      </trkpt>
      <trkpt lat="43.59787" lon="5.58439">
        <ele>606.92</ele>
        <time>2015-04-04T14:42:01Z</time>
      </trkpt>
      <trkpt lat="43.59807" lon="5.58441">
        <ele>608.44</ele>
        <time>2015-04-04T14:42:05Z</time>
      </trkpt>
      <trkpt lat="43.59826" lon="5.58438">
        <ele>609</ele>
        <time>2015-04-04T14:42:09Z</time>
      </trkpt>
      <trkpt lat="43.59848" lon="5.58436">
        <ele>607.66</ele>
        <time>2015-04-04T14:42:14Z</time>
      </trkpt>
      <trkpt lat="43.59866" lon="5.58436">
        <ele>606.29</ele>
        <time>2015-04-04T14:42:18Z</time>
      </trkpt>
      <trkpt lat="43.59884" lon="5.58441">
        <ele>604.4</ele>
        <time>2015-04-04T14:42:22Z</time>
      </trkpt>
      <trkpt lat="43.59905" lon="5.58434">
        <ele>602.31</ele>
        <time>2015-04-04T14:42:27Z</time>
      </trkpt>
      <trkpt lat="43.5992" lon="5.58418">
        <ele>602.15</ele>
        <time>2015-04-04T14:42:31Z</time>
      </trkpt>
      <trkpt lat="43.59936" lon="5.58406">
        <ele>602.19</ele>
        <time>2015-04-04T14:42:35Z</time>
      </trkpt>
      <trkpt lat="43.59954" lon="5.58401">
        <ele>602.26</ele>
        <time>2015-04-04T14:42:39Z</time>
      </trkpt>
      <trkpt lat="43.59975" lon="5.584">
        <ele>603.98</ele>
        <time>2015-04-04T14:42:44Z</time>
      </trkpt>
      <trkpt lat="43.59991" lon="5.58387">
        <ele>603.89</ele>
        <time>2015-04-04T14:42:50Z</time>
      </trkpt>
      <trkpt lat="43.60004" lon="5.58365">
        <ele>599.87</ele>
        <time>2015-04-04T14:42:55Z</time>
      </trkpt>
      <trkpt lat="43.60011" lon="5.58341">
        <ele>598.4</ele>
        <time>2015-04-04T14:43:00Z</time>
      </trkpt>
      <trkpt lat="43.59994" lon="5.58329">
        <ele>597.64</ele>
        <time>2015-04-04T14:44:03Z</time>
      </trkpt>
      <trkpt lat="43.59978" lon="5.58315">
        <ele>597.5</ele>
        <time>2015-04-04T14:44:16Z</time>
      </trkpt>
      <trkpt lat="43.59968" lon="5.58293">
        <ele>596.07</ele>
        <time>2015-04-04T14:44:51Z</time>
      </trkpt>
      <trkpt lat="43.59967" lon="5.58267">
        <ele>594.79</ele>
        <time>2015-04-04T14:44:58Z</time>
      </trkpt>
      <trkpt lat="43.59968" lon="5.58242">
        <ele>593.22</ele>
        <time>2015-04-04T14:45:06Z</time>
      </trkpt>
      <trkpt lat="43.59955" lon="5.58219">
        <ele>591.62</ele>
        <time>2015-04-04T14:45:12Z</time>
      </trkpt>
      <trkpt lat="43.59943" lon="5.58195">
        <ele>590.64</ele>
        <time>2015-04-04T14:45:17Z</time>
      </trkpt>
      <trkpt lat="43.59938" lon="5.58168">
        <ele>589.39</ele>
        <time>2015-04-04T14:45:26Z</time>
      </trkpt>
      <trkpt lat="43.59937" lon="5.58137">
        <ele>585.38</ele>
        <time>2015-04-04T14:45:33Z</time>
      </trkpt>
      <trkpt lat="43.5994" lon="5.58112">
        <ele>581.94</ele>
        <time>2015-04-04T14:45:40Z</time>
      </trkpt>
      <trkpt lat="43.59951" lon="5.58087">
        <ele>580.59</ele>
        <time>2015-04-04T14:45:47Z</time>
      </trkpt>
      <trkpt lat="43.59959" lon="5.58064">
        <ele>579.46</ele>
        <time>2015-04-04T14:45:53Z</time>
      </trkpt>
      <trkpt lat="43.59962" lon="5.58038">
        <ele>577.45</ele>
        <time>2015-04-04T14:46:03Z</time>
      </trkpt>
      <trkpt lat="43.59967" lon="5.58014">
        <ele>575.97</ele>
        <time>2015-04-04T14:46:15Z</time>
      </trkpt>
      <trkpt lat="43.59972" lon="5.5799">
        <ele>572.02</ele>
        <time>2015-04-04T14:47:13Z</time>
      </trkpt>
      <trkpt lat="43.59987" lon="5.57972">
        <ele>571</ele>
        <time>2015-04-04T14:47:34Z</time>
      </trkpt>
      <trkpt lat="43.60004" lon="5.57962">
        <ele>569.11</ele>
        <time>2015-04-04T14:48:05Z</time>
      </trkpt>
      <trkpt lat="43.60023" lon="5.57961">
        <ele>567.72</ele>
        <time>2015-04-04T14:48:38Z</time>
      </trkpt>
      <trkpt lat="43.60035" lon="5.57942">
        <ele>567.11</ele>
        <time>2015-04-04T14:48:57Z</time>
      </trkpt>
      <trkpt lat="43.60051" lon="5.57926">
        <ele>566.58</ele>
        <time>2015-04-04T14:49:13Z</time>
      </trkpt>
      <trkpt lat="43.60071" lon="5.57924">
        <ele>565.81</ele>
        <time>2015-04-04T14:49:21Z</time>
      </trkpt>
      <trkpt lat="43.60088" lon="5.57933">
        <ele>564.95</ele>
        <time>2015-04-04T14:49:31Z</time>
      </trkpt>
      <trkpt lat="43.60104" lon="5.57956">
        <ele>563.86</ele>
        <time>2015-04-04T14:49:40Z</time>
      </trkpt>
      <trkpt lat="43.60121" lon="5.57973">
        <ele>562.68</ele>
        <time>2015-04-04T14:49:49Z</time>
      </trkpt>
      <trkpt lat="43.60139" lon="5.57983">
        <ele>561.67</ele>
        <time>2015-04-04T14:49:57Z</time>
      </trkpt>
      <trkpt lat="43.60157" lon="5.57985">
        <ele>560.82</ele>
        <time>2015-04-04T14:50:14Z</time>
      </trkpt>
      <trkpt lat="43.60178" lon="5.57984">
        <ele>560.19</ele>
        <time>2015-04-04T14:50:31Z</time>
      </trkpt>
      <trkpt lat="43.60198" lon="5.57986">
        <ele>559.58</ele>
        <time>2015-04-04T14:50:39Z</time>
      </trkpt>
      <trkpt lat="43.60218" lon="5.57982">
        <ele>559.33</ele>
        <time>2015-04-04T14:50:44Z</time>
      </trkpt>
      <trkpt lat="43.60235" lon="5.57972">
        <ele>560.14</ele>
        <time>2015-04-04T14:52:08Z</time>
      </trkpt>
      <trkpt lat="43.60254" lon="5.57977">
        <ele>560.49</ele>
        <time>2015-04-04T14:52:21Z</time>
      </trkpt>
      <trkpt lat="43.60271" lon="5.57965">
        <ele>559.94</ele>
        <time>2015-04-04T14:52:29Z</time>
      </trkpt>
      <trkpt lat="43.60289" lon="5.5797">
        <ele>559.13</ele>
        <time>2015-04-04T14:52:38Z</time>
      </trkpt>
      <trkpt lat="43.60307" lon="5.57982">
        <ele>558.29</ele>
        <time>2015-04-04T14:52:48Z</time>
      </trkpt>
      <trkpt lat="43.60325" lon="5.57987">
        <ele>557.51</ele>
        <time>2015-04-04T14:52:55Z</time>
      </trkpt>
      <trkpt lat="43.60344" lon="5.57997">
        <ele>556.63</ele>
        <time>2015-04-04T14:53:03Z</time>
      </trkpt>
      <trkpt lat="43.60362" lon="5.58004">
        <ele>555.74</ele>
        <time>2015-04-04T14:53:10Z</time>
      </trkpt>
      <trkpt lat="43.6038" lon="5.58005">
        <ele>555.22</ele>
        <time>2015-04-04T14:53:15Z</time>
      </trkpt>
      <trkpt lat="43.60397" lon="5.58015">
        <ele>554.74</ele>
        <time>2015-04-04T14:53:23Z</time>
      </trkpt>
      <trkpt lat="43.60408" lon="5.58039">
        <ele>554.12</ele>
        <time>2015-04-04T14:53:35Z</time>
      </trkpt>
      <trkpt lat="43.60406" lon="5.58066">
        <ele>553.34</ele>
        <time>2015-04-04T14:53:41Z</time>
      </trkpt>
      <trkpt lat="43.60406" lon="5.58092">
        <ele>551.78</ele>
        <time>2015-04-04T14:53:49Z</time>
      </trkpt>
      <trkpt lat="43.60405" lon="5.58118">
        <ele>550.1</ele>
        <time>2015-04-04T14:53:55Z</time>
      </trkpt>
      <trkpt lat="43.6041" lon="5.58144">
        <ele>547.8</ele>
        <time>2015-04-04T14:54:01Z</time>
      </trkpt>
      <trkpt lat="43.60417" lon="5.58172">
        <ele>545.29</ele>
        <time>2015-04-04T14:54:07Z</time>
      </trkpt>
      <trkpt lat="43.60423" lon="5.58197">
        <ele>543.42</ele>
        <time>2015-04-04T14:54:12Z</time>
      </trkpt>
      <trkpt lat="43.60428" lon="5.58224">
        <ele>539.18</ele>
        <time>2015-04-04T14:54:17Z</time>
      </trkpt>
      <trkpt lat="43.60436" lon="5.58246">
        <ele>533.37</ele>
        <time>2015-04-04T14:54:21Z</time>
      </trkpt>
      <trkpt lat="43.60447" lon="5.5827">
        <ele>527.81</ele>
        <time>2015-04-04T14:54:25Z</time>
      </trkpt>
      <trkpt lat="43.60453" lon="5.58293">
        <ele>527.35</ele>
        <time>2015-04-04T14:54:29Z</time>
      </trkpt>
      <trkpt lat="43.60454" lon="5.5832">
        <ele>526.88</ele>
        <time>2015-04-04T14:54:37Z</time>
      </trkpt>
      <trkpt lat="43.60473" lon="5.5832">
        <ele>526.23</ele>
        <time>2015-04-04T14:54:47Z</time>
      </trkpt>
      <trkpt lat="43.6049" lon="5.58303">
        <ele>525.83</ele>
        <time>2015-04-04T14:54:54Z</time>
      </trkpt>
      <trkpt lat="43.60495" lon="5.58277">
        <ele>524.54</ele>
        <time>2015-04-04T14:55:01Z</time>
      </trkpt>
      <trkpt lat="43.60492" lon="5.58248">
        <ele>518.2</ele>
        <time>2015-04-04T14:55:06Z</time>
      </trkpt>
      <trkpt lat="43.60494" lon="5.58222">
        <ele>516.05</ele>
        <time>2015-04-04T14:55:13Z</time>
      </trkpt>
      <trkpt lat="43.6051" lon="5.58207">
        <ele>513.73</ele>
        <time>2015-04-04T14:55:21Z</time>
      </trkpt>
      <trkpt lat="43.60505" lon="5.58183">
        <ele>512.8</ele>
        <time>2015-04-04T14:55:26Z</time>
      </trkpt>
      <trkpt lat="43.60501" lon="5.58157">
        <ele>511.52</ele>
        <time>2015-04-04T14:55:31Z</time>
      </trkpt>
      <trkpt lat="43.60509" lon="5.5813">
        <ele>508.96</ele>
        <time>2015-04-04T14:55:39Z</time>
      </trkpt>
      <trkpt lat="43.60518" lon="5.58105">
        <ele>503.17</ele>
        <time>2015-04-04T14:55:46Z</time>
      </trkpt>
      <trkpt lat="43.60529" lon="5.58084">
        <ele>497.08</ele>
        <time>2015-04-04T14:55:49Z</time>
      </trkpt>
      <trkpt lat="43.60542" lon="5.58065">
        <ele>495.72</ele>
        <time>2015-04-04T14:55:52Z</time>
      </trkpt>
      <trkpt lat="43.60555" lon="5.58044">
        <ele>496.13</ele>
        <time>2015-04-04T14:55:56Z</time>
      </trkpt>
      <trkpt lat="43.60568" lon="5.58024">
        <ele>496.44</ele>
        <time>2015-04-04T14:56:00Z</time>
      </trkpt>
      <trkpt lat="43.60586" lon="5.58012">
        <ele>494.6</ele>
        <time>2015-04-04T14:56:05Z</time>
      </trkpt>
      <trkpt lat="43.60585" lon="5.57985">
        <ele>492.06</ele>
        <time>2015-04-04T14:56:13Z</time>
      </trkpt>
      <trkpt lat="43.60584" lon="5.57956">
        <ele>487.1</ele>
        <time>2015-04-04T14:56:17Z</time>
      </trkpt>
      <trkpt lat="43.60575" lon="5.57926">
        <ele>483.26</ele>
        <time>2015-04-04T14:56:21Z</time>
      </trkpt>
      <trkpt lat="43.60567" lon="5.57903">
        <ele>481.11</ele>
        <time>2015-04-04T14:56:24Z</time>
      </trkpt>
      <trkpt lat="43.60559" lon="5.5788">
        <ele>479.41</ele>
        <time>2015-04-04T14:56:27Z</time>
      </trkpt>
      <trkpt lat="43.60554" lon="5.57854">
        <ele>477.8</ele>
        <time>2015-04-04T14:56:30Z</time>
      </trkpt>
      <trkpt lat="43.60545" lon="5.57827">
        <ele>477.89</ele>
        <time>2015-04-04T14:56:34Z</time>
      </trkpt>
      <trkpt lat="43.60529" lon="5.57808">
        <ele>478.56</ele>
        <time>2015-04-04T14:56:37Z</time>
      </trkpt>
      <trkpt lat="43.60513" lon="5.57796">
        <ele>478.68</ele>
        <time>2015-04-04T14:56:40Z</time>
      </trkpt>
      <trkpt lat="43.60497" lon="5.57781">
        <ele>475.35</ele>
        <time>2015-04-04T14:58:47Z</time>
      </trkpt>
      <trkpt lat="43.60486" lon="5.57759">
        <ele>475.35</ele>
        <time>2015-04-04T14:58:54Z</time>
      </trkpt>
      <trkpt lat="43.60483" lon="5.57733">
        <ele>474.74</ele>
        <time>2015-04-04T14:59:01Z</time>
      </trkpt>
      <trkpt lat="43.60468" lon="5.57719">
        <ele>474.2</ele>
        <time>2015-04-04T14:59:09Z</time>
      </trkpt>
      <trkpt lat="43.60452" lon="5.57707">
        <ele>474.44</ele>
        <time>2015-04-04T14:59:17Z</time>
      </trkpt>
      <trkpt lat="43.60435" lon="5.57696">
        <ele>475.66</ele>
        <time>2015-04-04T14:59:26Z</time>
      </trkpt>
      <trkpt lat="43.6042" lon="5.5768">
        <ele>476.82</ele>
        <time>2015-04-04T14:59:35Z</time>
      </trkpt>
      <trkpt lat="43.60404" lon="5.57667">
        <ele>478.43</ele>
        <time>2015-04-04T14:59:44Z</time>
      </trkpt>
      <trkpt lat="43.60388" lon="5.57649">
        <ele>483.9</ele>
        <time>2015-04-04T15:00:05Z</time>
      </trkpt>
      <trkpt lat="43.60372" lon="5.57637">
        <ele>491.86</ele>
        <time>2015-04-04T15:00:30Z</time>
      </trkpt>
      <trkpt lat="43.60353" lon="5.57622">
        <ele>498.83</ele>
        <time>2015-04-04T15:00:56Z</time>
      </trkpt>
      <trkpt lat="43.60338" lon="5.57606">
        <ele>503.89</ele>
        <time>2015-04-04T15:01:20Z</time>
      </trkpt>
      <trkpt lat="43.6032" lon="5.57603">
        <ele>509.59</ele>
        <time>2015-04-04T15:01:48Z</time>
      </trkpt>
      <trkpt lat="43.60302" lon="5.5759">
        <ele>513.96</ele>
        <time>2015-04-04T15:02:20Z</time>
      </trkpt>
      <trkpt lat="43.6029" lon="5.5757">
        <ele>515.01</ele>
        <time>2015-04-04T15:02:27Z</time>
      </trkpt>
      <trkpt lat="43.60274" lon="5.57556">
        <ele>516.2</ele>
        <time>2015-04-04T15:02:34Z</time>
      </trkpt>
      <trkpt lat="43.60261" lon="5.57536">
        <ele>517.87</ele>
        <time>2015-04-04T15:02:42Z</time>
      </trkpt>
      <trkpt lat="43.60245" lon="5.57521">
        <ele>519.51</ele>
        <time>2015-04-04T15:02:49Z</time>
      </trkpt>
      <trkpt lat="43.60227" lon="5.5751">
        <ele>521.58</ele>
        <time>2015-04-04T15:02:57Z</time>
      </trkpt>
      <trkpt lat="43.60216" lon="5.57488">
        <ele>524.03</ele>
        <time>2015-04-04T15:03:06Z</time>
      </trkpt>
      <trkpt lat="43.60204" lon="5.57465">
        <ele>526.44</ele>
        <time>2015-04-04T15:03:13Z</time>
      </trkpt>
      <trkpt lat="43.60199" lon="5.5744">
        <ele>529.64</ele>
        <time>2015-04-04T15:03:23Z</time>
      </trkpt>
      <trkpt lat="43.60187" lon="5.5742">
        <ele>532.11</ele>
        <time>2015-04-04T15:03:31Z</time>
      </trkpt>
      <trkpt lat="43.60173" lon="5.57399">
        <ele>534.71</ele>
        <time>2015-04-04T15:03:39Z</time>
      </trkpt>
      <trkpt lat="43.60158" lon="5.57382">
        <ele>536.88</ele>
        <time>2015-04-04T15:03:46Z</time>
      </trkpt>
      <trkpt lat="43.60142" lon="5.57367">
        <ele>538.74</ele>
        <time>2015-04-04T15:03:57Z</time>
      </trkpt>
      <trkpt lat="43.60131" lon="5.57343">
        <ele>542.74</ele>
        <time>2015-04-04T15:05:09Z</time>
      </trkpt>
      <trkpt lat="43.60124" lon="5.57317">
        <ele>544.91</ele>
        <time>2015-04-04T15:05:17Z</time>
      </trkpt>
      <trkpt lat="43.60116" lon="5.57292">
        <ele>547.28</ele>
        <time>2015-04-04T15:05:25Z</time>
      </trkpt>
      <trkpt lat="43.6011" lon="5.57267">
        <ele>549.78</ele>
        <time>2015-04-04T15:05:35Z</time>
      </trkpt>
      <trkpt lat="43.60106" lon="5.57239">
        <ele>550.8</ele>
        <time>2015-04-04T15:05:41Z</time>
      </trkpt>
      <trkpt lat="43.60092" lon="5.57217">
        <ele>553.71</ele>
        <time>2015-04-04T15:05:47Z</time>
      </trkpt>
      <trkpt lat="43.60082" lon="5.57196">
        <ele>556.87</ele>
        <time>2015-04-04T15:05:51Z</time>
      </trkpt>
      <trkpt lat="43.6007" lon="5.57176">
        <ele>558.83</ele>
        <time>2015-04-04T15:05:55Z</time>
      </trkpt>
      <trkpt lat="43.60069" lon="5.5715">
        <ele>559.13</ele>
        <time>2015-04-04T15:06:06Z</time>
      </trkpt>
      <trkpt lat="43.60079" lon="5.57129">
        <ele>559.29</ele>
        <time>2015-04-04T15:06:12Z</time>
      </trkpt>
      <trkpt lat="43.60071" lon="5.57106">
        <ele>559.48</ele>
        <time>2015-04-04T15:06:19Z</time>
      </trkpt>
      <trkpt lat="43.60055" lon="5.57092">
        <ele>558.68</ele>
        <time>2015-04-04T15:06:25Z</time>
      </trkpt>
      <trkpt lat="43.60042" lon="5.57072">
        <ele>557.2</ele>
        <time>2015-04-04T15:06:34Z</time>
      </trkpt>
      <trkpt lat="43.60057" lon="5.57053">
        <ele>555.65</ele>
        <time>2015-04-04T15:06:42Z</time>
      </trkpt>
      <trkpt lat="43.60068" lon="5.57033">
        <ele>553.66</ele>
        <time>2015-04-04T15:06:52Z</time>
      </trkpt>
      <trkpt lat="43.60082" lon="5.57014">
        <ele>551.89</ele>
        <time>2015-04-04T15:07:00Z</time>
      </trkpt>
      <trkpt lat="43.601" lon="5.57013">
        <ele>549.39</ele>
        <time>2015-04-04T15:07:09Z</time>
      </trkpt>
      <trkpt lat="43.60119" lon="5.57018">
        <ele>546.37</ele>
        <time>2015-04-04T15:07:18Z</time>
      </trkpt>
      <trkpt lat="43.60137" lon="5.57026">
        <ele>545.09</ele>
        <time>2015-04-04T15:07:22Z</time>
      </trkpt>
      <trkpt lat="43.60157" lon="5.57025">
        <ele>542.79</ele>
        <time>2015-04-04T15:07:29Z</time>
      </trkpt>
      <trkpt lat="43.60177" lon="5.57022">
        <ele>540.28</ele>
        <time>2015-04-04T15:07:37Z</time>
      </trkpt>
      <trkpt lat="43.60195" lon="5.57019">
        <ele>537.42</ele>
        <time>2015-04-04T15:07:46Z</time>
      </trkpt>
      <trkpt lat="43.60215" lon="5.57019">
        <ele>533.98</ele>
        <time>2015-04-04T15:07:55Z</time>
      </trkpt>
      <trkpt lat="43.60234" lon="5.5702">
        <ele>531.23</ele>
        <time>2015-04-04T15:08:02Z</time>
      </trkpt>
      <trkpt lat="43.60254" lon="5.57024">
        <ele>526.14</ele>
        <time>2015-04-04T15:08:07Z</time>
      </trkpt>
      <trkpt lat="43.60271" lon="5.57031">
        <ele>522.48</ele>
        <time>2015-04-04T15:08:14Z</time>
      </trkpt>
      <trkpt lat="43.60289" lon="5.57038">
        <ele>520.26</ele>
        <time>2015-04-04T15:08:20Z</time>
      </trkpt>
      <trkpt lat="43.60307" lon="5.57045">
        <ele>517.73</ele>
        <time>2015-04-04T15:08:26Z</time>
      </trkpt>
      <trkpt lat="43.60325" lon="5.57042">
        <ele>515.99</ele>
        <time>2015-04-04T15:08:31Z</time>
      </trkpt>
      <trkpt lat="43.6034" lon="5.57024">
        <ele>514.36</ele>
        <time>2015-04-04T15:08:38Z</time>
      </trkpt>
      <trkpt lat="43.60348" lon="5.57">
        <ele>512.87</ele>
        <time>2015-04-04T15:08:44Z</time>
      </trkpt>
      <trkpt lat="43.60355" lon="5.56977">
        <ele>511.57</ele>
        <time>2015-04-04T15:08:49Z</time>
      </trkpt>
      <trkpt lat="43.60365" lon="5.56951">
        <ele>507.17</ele>
        <time>2015-04-04T15:08:55Z</time>
      </trkpt>
      <trkpt lat="43.60371" lon="5.56927">
        <ele>502.66</ele>
        <time>2015-04-04T15:09:00Z</time>
      </trkpt>
      <trkpt lat="43.60383" lon="5.56905">
        <ele>500.76</ele>
        <time>2015-04-04T15:09:08Z</time>
      </trkpt>
      <trkpt lat="43.60398" lon="5.56887">
        <ele>499.86</ele>
        <time>2015-04-04T15:09:14Z</time>
      </trkpt>
      <trkpt lat="43.60412" lon="5.56872">
        <ele>498.54</ele>
        <time>2015-04-04T15:09:28Z</time>
      </trkpt>
      <trkpt lat="43.60424" lon="5.56852">
        <ele>497.7</ele>
        <time>2015-04-04T15:09:37Z</time>
      </trkpt>
      <trkpt lat="43.60435" lon="5.56833">
        <ele>495.42</ele>
        <time>2015-04-04T15:09:42Z</time>
      </trkpt>
      <trkpt lat="43.6045" lon="5.56815">
        <ele>494.51</ele>
        <time>2015-04-04T15:09:47Z</time>
      </trkpt>
      <trkpt lat="43.60469" lon="5.56808">
        <ele>490.51</ele>
        <time>2015-04-04T15:09:52Z</time>
      </trkpt>
      <trkpt lat="43.60489" lon="5.568">
        <ele>486.53</ele>
        <time>2015-04-04T15:09:57Z</time>
      </trkpt>
      <trkpt lat="43.60509" lon="5.56792">
        <ele>485.28</ele>
        <time>2015-04-04T15:10:03Z</time>
      </trkpt>
      <trkpt lat="43.60522" lon="5.56775">
        <ele>483.23</ele>
        <time>2015-04-04T15:10:09Z</time>
      </trkpt>
      <trkpt lat="43.6054" lon="5.56766">
        <ele>480.98</ele>
        <time>2015-04-04T15:10:16Z</time>
      </trkpt>
      <trkpt lat="43.60559" lon="5.5676">
        <ele>478.53</ele>
        <time>2015-04-04T15:10:27Z</time>
      </trkpt>
      <trkpt lat="43.60576" lon="5.56748">
        <ele>477.47</ele>
        <time>2015-04-04T15:10:33Z</time>
      </trkpt>
      <trkpt lat="43.60595" lon="5.56752">
        <ele>476.36</ele>
        <time>2015-04-04T15:10:39Z</time>
      </trkpt>
      <trkpt lat="43.60615" lon="5.56748">
        <ele>474.14</ele>
        <time>2015-04-04T15:10:44Z</time>
      </trkpt>
      <trkpt lat="43.60635" lon="5.56743">
        <ele>471.76</ele>
        <time>2015-04-04T15:10:48Z</time>
      </trkpt>
      <trkpt lat="43.60652" lon="5.56733">
        <ele>470.09</ele>
        <time>2015-04-04T15:10:53Z</time>
      </trkpt>
      <trkpt lat="43.6067" lon="5.56721">
        <ele>469.26</ele>
        <time>2015-04-04T15:10:58Z</time>
      </trkpt>
      <trkpt lat="43.60688" lon="5.56715">
        <ele>467.68</ele>
        <time>2015-04-04T15:11:05Z</time>
      </trkpt>
      <trkpt lat="43.60706" lon="5.56709">
        <ele>464.93</ele>
        <time>2015-04-04T15:11:12Z</time>
      </trkpt>
      <trkpt lat="43.60726" lon="5.56693">
        <ele>456.81</ele>
        <time>2015-04-04T15:11:17Z</time>
      </trkpt>
      <trkpt lat="43.60743" lon="5.56681">
        <ele>446.15</ele>
        <time>2015-04-04T15:11:21Z</time>
      </trkpt>
      <trkpt lat="43.60763" lon="5.56679">
        <ele>442.69</ele>
        <time>2015-04-04T15:11:25Z</time>
      </trkpt>
      <trkpt lat="43.60783" lon="5.56684">
        <ele>442.81</ele>
        <time>2015-04-04T15:11:31Z</time>
      </trkpt>
      <trkpt lat="43.60803" lon="5.56691">
        <ele>442.92</ele>
        <time>2015-04-04T15:11:36Z</time>
      </trkpt>
      <trkpt lat="43.60821" lon="5.56693">
        <ele>442.05</ele>
        <time>2015-04-04T15:11:43Z</time>
      </trkpt>
      <trkpt lat="43.6084" lon="5.56704">
        <ele>441.23</ele>
        <time>2015-04-04T15:11:49Z</time>
      </trkpt>
      <trkpt lat="43.60853" lon="5.56725">
        <ele>438.33</ele>
        <time>2015-04-04T15:11:55Z</time>
      </trkpt>
      <trkpt lat="43.60869" lon="5.56743">
        <ele>437.26</ele>
        <time>2015-04-04T15:12:01Z</time>
      </trkpt>
      <trkpt lat="43.60889" lon="5.56733">
        <ele>437.01</ele>
        <time>2015-04-04T15:12:07Z</time>
      </trkpt>
      <trkpt lat="43.60906" lon="5.56724">
        <ele>436.93</ele>
        <time>2015-04-04T15:12:12Z</time>
      </trkpt>
      <trkpt lat="43.60923" lon="5.56733">
        <ele>436.08</ele>
        <time>2015-04-04T15:12:20Z</time>
      </trkpt>
      <trkpt lat="43.6094" lon="5.5675">
        <ele>434.79</ele>
        <time>2015-04-04T15:12:27Z</time>
      </trkpt>
      <trkpt lat="43.60959" lon="5.56762">
        <ele>430.83</ele>
        <time>2015-04-04T15:12:32Z</time>
      </trkpt>
      <trkpt lat="43.60981" lon="5.56765">
        <ele>429.78</ele>
        <time>2015-04-04T15:12:37Z</time>
      </trkpt>
      <trkpt lat="43.61" lon="5.56759">
        <ele>430.23</ele>
        <time>2015-04-04T15:12:41Z</time>
      </trkpt>
      <trkpt lat="43.61026" lon="5.56765">
        <ele>432.49</ele>
        <time>2015-04-04T15:12:48Z</time>
      </trkpt>
      <trkpt lat="43.61046" lon="5.56758">
        <ele>432.59</ele>
        <time>2015-04-04T15:12:52Z</time>
      </trkpt>
      <trkpt lat="43.61062" lon="5.56738">
        <ele>432.8</ele>
        <time>2015-04-04T15:12:56Z</time>
      </trkpt>
      <trkpt lat="43.61071" lon="5.56715">
        <ele>433.89</ele>
        <time>2015-04-04T15:13:01Z</time>
      </trkpt>
      <trkpt lat="43.6108" lon="5.56692">
        <ele>433.61</ele>
        <time>2015-04-04T15:13:06Z</time>
      </trkpt>
      <trkpt lat="43.61092" lon="5.56674">
        <ele>431.2</ele>
        <time>2015-04-04T15:13:10Z</time>
      </trkpt>
      <trkpt lat="43.61106" lon="5.56657">
        <ele>426.96</ele>
        <time>2015-04-04T15:13:14Z</time>
      </trkpt>
      <trkpt lat="43.61123" lon="5.56646">
        <ele>426.02</ele>
        <time>2015-04-04T15:13:19Z</time>
      </trkpt>
      <trkpt lat="43.61144" lon="5.56638">
        <ele>425.85</ele>
        <time>2015-04-04T15:13:25Z</time>
      </trkpt>
      <trkpt lat="43.61162" lon="5.56634">
        <ele>425.9</ele>
        <time>2015-04-04T15:13:31Z</time>
      </trkpt>
      <trkpt lat="43.61181" lon="5.56634">
        <ele>425.58</ele>
        <time>2015-04-04T15:13:37Z</time>
      </trkpt>
      <trkpt lat="43.61201" lon="5.56642">
        <ele>424.98</ele>
        <time>2015-04-04T15:13:43Z</time>
      </trkpt>
      <trkpt lat="43.61218" lon="5.56652">
        <ele>424.18</ele>
        <time>2015-04-04T15:13:48Z</time>
      </trkpt>
      <trkpt lat="43.61231" lon="5.56671">
        <ele>420.68</ele>
        <time>2015-04-04T15:13:53Z</time>
      </trkpt>
      <trkpt lat="43.61249" lon="5.56681">
        <ele>419.25</ele>
        <time>2015-04-04T15:14:00Z</time>
      </trkpt>
      <trkpt lat="43.61268" lon="5.5668">
        <ele>415.43</ele>
        <time>2015-04-04T15:14:04Z</time>
      </trkpt>
      <trkpt lat="43.61289" lon="5.56678">
        <ele>412.44</ele>
        <time>2015-04-04T15:14:08Z</time>
      </trkpt>
      <trkpt lat="43.61312" lon="5.56677">
        <ele>411.95</ele>
        <time>2015-04-04T15:14:12Z</time>
      </trkpt>
      <trkpt lat="43.6133" lon="5.56666">
        <ele>411.18</ele>
        <time>2015-04-04T15:14:16Z</time>
      </trkpt>
      <trkpt lat="43.61349" lon="5.56652">
        <ele>410.63</ele>
        <time>2015-04-04T15:14:20Z</time>
      </trkpt>
      <trkpt lat="43.61366" lon="5.56634">
        <ele>409.78</ele>
        <time>2015-04-04T15:14:24Z</time>
      </trkpt>
      <trkpt lat="43.6138" lon="5.5662">
        <ele>406.3</ele>
        <time>2015-04-04T15:14:28Z</time>
      </trkpt>
      <trkpt lat="43.61397" lon="5.56604">
        <ele>403.12</ele>
        <time>2015-04-04T15:14:34Z</time>
      </trkpt>
      <trkpt lat="43.61417" lon="5.5659">
        <ele>401.83</ele>
        <time>2015-04-04T15:14:39Z</time>
      </trkpt>
      <trkpt lat="43.61435" lon="5.56581">
        <ele>399.58</ele>
        <time>2015-04-04T15:14:43Z</time>
      </trkpt>
      <trkpt lat="43.61453" lon="5.56576">
        <ele>397.72</ele>
        <time>2015-04-04T15:14:48Z</time>
      </trkpt>
      <trkpt lat="43.61471" lon="5.5657">
        <ele>396.42</ele>
        <time>2015-04-04T15:14:53Z</time>
      </trkpt>
      <trkpt lat="43.61489" lon="5.56564">
        <ele>394.33</ele>
        <time>2015-04-04T15:15:00Z</time>
      </trkpt>
      <trkpt lat="43.61509" lon="5.56554">
        <ele>392.74</ele>
        <time>2015-04-04T15:15:06Z</time>
      </trkpt>
      <trkpt lat="43.61526" lon="5.56543">
        <ele>392.75</ele>
        <time>2015-04-04T15:15:12Z</time>
      </trkpt>
      <trkpt lat="43.61534" lon="5.56516">
        <ele>396.48</ele>
        <time>2015-04-04T15:15:16Z</time>
      </trkpt>
      <trkpt lat="43.61541" lon="5.56489">
        <ele>397.32</ele>
        <time>2015-04-04T15:15:21Z</time>
      </trkpt>
      <trkpt lat="43.61553" lon="5.56466">
        <ele>397.51</ele>
        <time>2015-04-04T15:15:26Z</time>
      </trkpt>
      <trkpt lat="43.61561" lon="5.56441">
        <ele>397.31</ele>
        <time>2015-04-04T15:15:32Z</time>
      </trkpt>
      <trkpt lat="43.61565" lon="5.56416">
        <ele>397.36</ele>
        <time>2015-04-04T15:15:39Z</time>
      </trkpt>
      <trkpt lat="43.61571" lon="5.56392">
        <ele>396.84</ele>
        <time>2015-04-04T15:15:44Z</time>
      </trkpt>
      <trkpt lat="43.61576" lon="5.56366">
        <ele>397.27</ele>
        <time>2015-04-04T15:15:47Z</time>
      </trkpt>
      <trkpt lat="43.61583" lon="5.56343">
        <ele>398.07</ele>
        <time>2015-04-04T15:15:55Z</time>
      </trkpt>
      <trkpt lat="43.61594" lon="5.56323">
        <ele>403.06</ele>
        <time>2015-04-04T15:20:47Z</time>
      </trkpt>
      <trkpt lat="43.61611" lon="5.56308">
        <ele>403.1</ele>
        <time>2015-04-04T15:20:59Z</time>
      </trkpt>
      <trkpt lat="43.6162" lon="5.56285">
        <ele>403.01</ele>
        <time>2015-04-04T15:21:05Z</time>
      </trkpt>
      <trkpt lat="43.61611" lon="5.5626">
        <ele>402.06</ele>
        <time>2015-04-04T15:21:12Z</time>
      </trkpt>
      <trkpt lat="43.61596" lon="5.56241">
        <ele>401.03</ele>
        <time>2015-04-04T15:21:19Z</time>
      </trkpt>
      <trkpt lat="43.61582" lon="5.56222">
        <ele>398.12</ele>
        <time>2015-04-04T15:21:24Z</time>
      </trkpt>
      <trkpt lat="43.61577" lon="5.56192">
        <ele>396.63</ele>
        <time>2015-04-04T15:21:29Z</time>
      </trkpt>
      <trkpt lat="43.61579" lon="5.56162">
        <ele>392.99</ele>
        <time>2015-04-04T15:21:34Z</time>
      </trkpt>
      <trkpt lat="43.61589" lon="5.56139">
        <ele>392.55</ele>
        <time>2015-04-04T15:21:40Z</time>
      </trkpt>
      <trkpt lat="43.61608" lon="5.56126">
        <ele>389.55</ele>
        <time>2015-04-04T15:21:45Z</time>
      </trkpt>
      <trkpt lat="43.6163" lon="5.56114">
        <ele>389.3</ele>
        <time>2015-04-04T15:21:49Z</time>
      </trkpt>
      <trkpt lat="43.61649" lon="5.56096">
        <ele>389.16</ele>
        <time>2015-04-04T15:21:52Z</time>
      </trkpt>
      <trkpt lat="43.61664" lon="5.56082">
        <ele>389.89</ele>
        <time>2015-04-04T15:21:55Z</time>
      </trkpt>
      <trkpt lat="43.6168" lon="5.56066">
        <ele>389.21</ele>
        <time>2015-04-04T15:21:58Z</time>
      </trkpt>
      <trkpt lat="43.61693" lon="5.56049">
        <ele>386.64</ele>
        <time>2015-04-04T15:22:01Z</time>
      </trkpt>
      <trkpt lat="43.61705" lon="5.56024">
        <ele>382.2</ele>
        <time>2015-04-04T15:22:06Z</time>
      </trkpt>
      <trkpt lat="43.61717" lon="5.56002">
        <ele>381.16</ele>
        <time>2015-04-04T15:23:11Z</time>
      </trkpt>
      <trkpt lat="43.61729" lon="5.55983">
        <ele>381.31</ele>
        <time>2015-04-04T15:23:18Z</time>
      </trkpt>
      <trkpt lat="43.61743" lon="5.55964">
        <ele>381.37</ele>
        <time>2015-04-04T15:23:22Z</time>
      </trkpt>
      <trkpt lat="43.61758" lon="5.55945">
        <ele>381.74</ele>
        <time>2015-04-04T15:23:28Z</time>
      </trkpt>
      <trkpt lat="43.61775" lon="5.55933">
        <ele>381.6</ele>
        <time>2015-04-04T15:23:33Z</time>
      </trkpt>
      <trkpt lat="43.61797" lon="5.55926">
        <ele>376.01</ele>
        <time>2015-04-04T15:23:37Z</time>
      </trkpt>
      <trkpt lat="43.61819" lon="5.55924">
        <ele>374.32</ele>
        <time>2015-04-04T15:23:41Z</time>
      </trkpt>
      <trkpt lat="43.61837" lon="5.5592">
        <ele>375.31</ele>
        <time>2015-04-04T15:23:45Z</time>
      </trkpt>
      <trkpt lat="43.61855" lon="5.55914">
        <ele>374.82</ele>
        <time>2015-04-04T15:23:51Z</time>
      </trkpt>
      <trkpt lat="43.61873" lon="5.55903">
        <ele>373.72</ele>
        <time>2015-04-04T15:23:56Z</time>
      </trkpt>
      <trkpt lat="43.61882" lon="5.5588">
        <ele>371.65</ele>
        <time>2015-04-04T15:24:21Z</time>
      </trkpt>
      <trkpt lat="43.61884" lon="5.55852">
        <ele>371.23</ele>
        <time>2015-04-04T15:24:27Z</time>
      </trkpt>
      <trkpt lat="43.61871" lon="5.5583">
        <ele>370.99</ele>
        <time>2015-04-04T15:24:36Z</time>
      </trkpt>
      <trkpt lat="43.61851" lon="5.55825">
        <ele>370.81</ele>
        <time>2015-04-04T15:24:41Z</time>
      </trkpt>
      <trkpt lat="43.61833" lon="5.55831">
        <ele>371.05</ele>
        <time>2015-04-04T15:24:45Z</time>
      </trkpt>
      <trkpt lat="43.61814" lon="5.55837">
        <ele>371.46</ele>
        <time>2015-04-04T15:24:49Z</time>
      </trkpt>
      <trkpt lat="43.61798" lon="5.55846">
        <ele>371.12</ele>
        <time>2015-04-04T15:24:53Z</time>
      </trkpt>
      <trkpt lat="43.61777" lon="5.55848">
        <ele>373.1</ele>
        <time>2015-04-04T15:24:59Z</time>
      </trkpt>
      <trkpt lat="43.61774" lon="5.55823">
        <ele>375.98</ele>
        <time>2015-04-04T15:25:04Z</time>
      </trkpt>
      <trkpt lat="43.61775" lon="5.55798">
        <ele>377.57</ele>
        <time>2015-04-04T15:25:08Z</time>
      </trkpt>
      <trkpt lat="43.61779" lon="5.55773">
        <ele>379.98</ele>
        <time>2015-04-04T15:25:12Z</time>
      </trkpt>
      <trkpt lat="43.61794" lon="5.55757">
        <ele>382.04</ele>
        <time>2015-04-04T15:25:16Z</time>
      </trkpt>
      <trkpt lat="43.61814" lon="5.55744">
        <ele>385.27</ele>
        <time>2015-04-04T15:25:21Z</time>
      </trkpt>
      <trkpt lat="43.61824" lon="5.55717">
        <ele>387.04</ele>
        <time>2015-04-04T15:25:26Z</time>
      </trkpt>
      <trkpt lat="43.61824" lon="5.55689">
        <ele>388.79</ele>
        <time>2015-04-04T15:25:31Z</time>
      </trkpt>
      <trkpt lat="43.61825" lon="5.55664">
        <ele>389.09</ele>
        <time>2015-04-04T15:25:36Z</time>
      </trkpt>
      <trkpt lat="43.61823" lon="5.55637">
        <ele>389.17</ele>
        <time>2015-04-04T15:25:41Z</time>
      </trkpt>
      <trkpt lat="43.61823" lon="5.55613">
        <ele>389.24</ele>
        <time>2015-04-04T15:25:46Z</time>
      </trkpt>
      <trkpt lat="43.6183" lon="5.5559">
        <ele>388.96</ele>
        <time>2015-04-04T15:25:51Z</time>
      </trkpt>
      <trkpt lat="43.61844" lon="5.55572">
        <ele>389.07</ele>
        <time>2015-04-04T15:25:56Z</time>
      </trkpt>
      <trkpt lat="43.61858" lon="5.5559">
        <ele>388.57</ele>
        <time>2015-04-04T15:26:02Z</time>
      </trkpt>
      <trkpt lat="43.61873" lon="5.55604">
        <ele>388.85</ele>
        <time>2015-04-04T15:26:07Z</time>
      </trkpt>
      <trkpt lat="43.61892" lon="5.55606">
        <ele>389.85</ele>
        <time>2015-04-04T15:26:12Z</time>
      </trkpt>
      <trkpt lat="43.61912" lon="5.55602">
        <ele>390.95</ele>
        <time>2015-04-04T15:26:17Z</time>
      </trkpt>
      <trkpt lat="43.61927" lon="5.5559">
        <ele>392.12</ele>
        <time>2015-04-04T15:26:22Z</time>
      </trkpt>
      <trkpt lat="43.61944" lon="5.55575">
        <ele>394.8</ele>
        <time>2015-04-04T15:26:27Z</time>
      </trkpt>
      <trkpt lat="43.61963" lon="5.55573">
        <ele>399.94</ele>
        <time>2015-04-04T15:26:32Z</time>
      </trkpt>
      <trkpt lat="43.61983" lon="5.55571">
        <ele>402.3</ele>
        <time>2015-04-04T15:26:37Z</time>
      </trkpt>
      <trkpt lat="43.62004" lon="5.55568">
        <ele>404.61</ele>
        <time>2015-04-04T15:26:42Z</time>
      </trkpt>
      <trkpt lat="43.62022" lon="5.55565">
        <ele>405.77</ele>
        <time>2015-04-04T15:26:47Z</time>
      </trkpt>
      <trkpt lat="43.62039" lon="5.55554">
        <ele>406.86</ele>
        <time>2015-04-04T15:26:53Z</time>
      </trkpt>
      <trkpt lat="43.62052" lon="5.55529">
        <ele>409.78</ele>
        <time>2015-04-04T15:26:58Z</time>
      </trkpt>
      <trkpt lat="43.62063" lon="5.55509">
        <ele>414.2</ele>
        <time>2015-04-04T15:27:01Z</time>
      </trkpt>
      <trkpt lat="43.62073" lon="5.55482">
        <ele>418.1</ele>
        <time>2015-04-04T15:27:06Z</time>
      </trkpt>
      <trkpt lat="43.62078" lon="5.55456">
        <ele>422.28</ele>
        <time>2015-04-04T15:27:10Z</time>
      </trkpt>
      <trkpt lat="43.62079" lon="5.55426">
        <ele>424.4</ele>
        <time>2015-04-04T15:27:13Z</time>
      </trkpt>
      <trkpt lat="43.62081" lon="5.55397">
        <ele>425.24</ele>
        <time>2015-04-04T15:27:18Z</time>
      </trkpt>
      <trkpt lat="43.62076" lon="5.55369">
        <ele>425.69</ele>
        <time>2015-04-04T15:27:23Z</time>
      </trkpt>
      <trkpt lat="43.62063" lon="5.55346">
        <ele>427.24</ele>
        <time>2015-04-04T15:27:27Z</time>
      </trkpt>
      <trkpt lat="43.62046" lon="5.55336">
        <ele>426.11</ele>
        <time>2015-04-04T15:27:31Z</time>
      </trkpt>
      <trkpt lat="43.62027" lon="5.55326">
        <ele>426.88</ele>
        <time>2015-04-04T15:27:35Z</time>
      </trkpt>
      <trkpt lat="43.62009" lon="5.55314">
        <ele>425.8</ele>
        <time>2015-04-04T15:27:40Z</time>
      </trkpt>
      <trkpt lat="43.61993" lon="5.553">
        <ele>426.39</ele>
        <time>2015-04-04T15:27:44Z</time>
      </trkpt>
      <trkpt lat="43.61975" lon="5.55283">
        <ele>429.37</ele>
        <time>2015-04-04T15:27:49Z</time>
      </trkpt>
      <trkpt lat="43.61959" lon="5.55269">
        <ele>429.62</ele>
        <time>2015-04-04T15:27:53Z</time>
      </trkpt>
      <trkpt lat="43.61944" lon="5.55247">
        <ele>430.51</ele>
        <time>2015-04-04T15:27:59Z</time>
      </trkpt>
      <trkpt lat="43.61929" lon="5.55231">
        <ele>430.13</ele>
        <time>2015-04-04T15:28:03Z</time>
      </trkpt>
      <trkpt lat="43.61914" lon="5.55213">
        <ele>430.27</ele>
        <time>2015-04-04T15:28:07Z</time>
      </trkpt>
      <trkpt lat="43.619" lon="5.55197">
        <ele>432.04</ele>
        <time>2015-04-04T15:28:11Z</time>
      </trkpt>
      <trkpt lat="43.6188" lon="5.55187">
        <ele>433.36</ele>
        <time>2015-04-04T15:28:16Z</time>
      </trkpt>
      <trkpt lat="43.61859" lon="5.55183">
        <ele>434.48</ele>
        <time>2015-04-04T15:28:22Z</time>
      </trkpt>
      <trkpt lat="43.61838" lon="5.55181">
        <ele>436.11</ele>
        <time>2015-04-04T15:28:27Z</time>
      </trkpt>
      <trkpt lat="43.61819" lon="5.55178">
        <ele>436.65</ele>
        <time>2015-04-04T15:28:33Z</time>
      </trkpt>
      <trkpt lat="43.61799" lon="5.55175">
        <ele>437.15</ele>
        <time>2015-04-04T15:28:39Z</time>
      </trkpt>
      <trkpt lat="43.61781" lon="5.5517">
        <ele>438.01</ele>
        <time>2015-04-04T15:28:44Z</time>
      </trkpt>
      <trkpt lat="43.61761" lon="5.55166">
        <ele>439.89</ele>
        <time>2015-04-04T15:28:53Z</time>
      </trkpt>
      <trkpt lat="43.61743" lon="5.55164">
        <ele>441.05</ele>
        <time>2015-04-04T15:28:59Z</time>
      </trkpt>
      <trkpt lat="43.61725" lon="5.55163">
        <ele>443.24</ele>
        <time>2015-04-04T15:29:04Z</time>
      </trkpt>
      <trkpt lat="43.61703" lon="5.55164">
        <ele>447.7</ele>
        <time>2015-04-04T15:29:09Z</time>
      </trkpt>
      <trkpt lat="43.61682" lon="5.55166">
        <ele>449.07</ele>
        <time>2015-04-04T15:29:16Z</time>
      </trkpt>
      <trkpt lat="43.61664" lon="5.5517">
        <ele>451.04</ele>
        <time>2015-04-04T15:29:26Z</time>
      </trkpt>
      <trkpt lat="43.61645" lon="5.55171">
        <ele>453.07</ele>
        <time>2015-04-04T15:29:33Z</time>
      </trkpt>
      <trkpt lat="43.61627" lon="5.55169">
        <ele>455.12</ele>
        <time>2015-04-04T15:29:41Z</time>
      </trkpt>
      <trkpt lat="43.61609" lon="5.55163">
        <ele>457.07</ele>
        <time>2015-04-04T15:29:48Z</time>
      </trkpt>
      <trkpt lat="43.61591" lon="5.55155">
        <ele>458.99</ele>
        <time>2015-04-04T15:29:56Z</time>
      </trkpt>
      <trkpt lat="43.6158" lon="5.55132">
        <ele>460.22</ele>
        <time>2015-04-04T15:30:01Z</time>
      </trkpt>
      <trkpt lat="43.61569" lon="5.55107">
        <ele>461.42</ele>
        <time>2015-04-04T15:30:06Z</time>
      </trkpt>
      <trkpt lat="43.61558" lon="5.55082">
        <ele>467.49</ele>
        <time>2015-04-04T15:30:11Z</time>
      </trkpt>
      <trkpt lat="43.61549" lon="5.55059">
        <ele>470.23</ele>
        <time>2015-04-04T15:30:15Z</time>
      </trkpt>
      <trkpt lat="43.61537" lon="5.55036">
        <ele>471.32</ele>
        <time>2015-04-04T15:30:19Z</time>
      </trkpt>
      <trkpt lat="43.61525" lon="5.55017">
        <ele>471.7</ele>
        <time>2015-04-04T15:30:23Z</time>
      </trkpt>
      <trkpt lat="43.61509" lon="5.54998">
        <ele>472.6</ele>
        <time>2015-04-04T15:30:29Z</time>
      </trkpt>
      <trkpt lat="43.61492" lon="5.54984">
        <ele>473.76</ele>
        <time>2015-04-04T15:30:34Z</time>
      </trkpt>
      <trkpt lat="43.61473" lon="5.54969">
        <ele>476.1</ele>
        <time>2015-04-04T15:30:39Z</time>
      </trkpt>
      <trkpt lat="43.61454" lon="5.54959">
        <ele>484.96</ele>
        <time>2015-04-04T15:30:43Z</time>
      </trkpt>
      <trkpt lat="43.61434" lon="5.54953">
        <ele>487.12</ele>
        <time>2015-04-04T15:30:49Z</time>
      </trkpt>
      <trkpt lat="43.61416" lon="5.54946">
        <ele>492.14</ele>
        <time>2015-04-04T15:32:03Z</time>
      </trkpt>
      <trkpt lat="43.61398" lon="5.5494">
        <ele>494.16</ele>
        <time>2015-04-04T15:33:48Z</time>
      </trkpt>
      <trkpt lat="43.6138" lon="5.54936">
        <ele>493.72</ele>
        <time>2015-04-04T15:33:56Z</time>
      </trkpt>
      <trkpt lat="43.61362" lon="5.54929">
        <ele>493.27</ele>
        <time>2015-04-04T15:34:02Z</time>
      </trkpt>
      <trkpt lat="43.61333" lon="5.54927">
        <ele>492.27</ele>
        <time>2015-04-04T15:34:10Z</time>
      </trkpt>
      <trkpt lat="43.61313" lon="5.54934">
        <ele>492</ele>
        <time>2015-04-04T15:34:15Z</time>
      </trkpt>
      <trkpt lat="43.613" lon="5.54917">
        <ele>492.48</ele>
        <time>2015-04-04T15:34:24Z</time>
      </trkpt>
      <trkpt lat="43.61311" lon="5.54892">
        <ele>492.99</ele>
        <time>2015-04-04T15:34:31Z</time>
      </trkpt>
      <trkpt lat="43.61317" lon="5.54866">
        <ele>493.4</ele>
        <time>2015-04-04T15:34:36Z</time>
      </trkpt>
      <trkpt lat="43.61325" lon="5.54839">
        <ele>492.99</ele>
        <time>2015-04-04T15:34:41Z</time>
      </trkpt>
      <trkpt lat="43.6133" lon="5.54815">
        <ele>492.86</ele>
        <time>2015-04-04T15:34:46Z</time>
      </trkpt>
      <trkpt lat="43.61343" lon="5.54794">
        <ele>492.9</ele>
        <time>2015-04-04T15:34:52Z</time>
      </trkpt>
      <trkpt lat="43.61354" lon="5.54774">
        <ele>493.01</ele>
        <time>2015-04-04T15:34:57Z</time>
      </trkpt>
      <trkpt lat="43.61368" lon="5.54757">
        <ele>493.43</ele>
        <time>2015-04-04T15:35:05Z</time>
      </trkpt>
      <trkpt lat="43.61364" lon="5.5473">
        <ele>493.89</ele>
        <time>2015-04-04T15:35:14Z</time>
      </trkpt>
      <trkpt lat="43.61379" lon="5.54713">
        <ele>493.02</ele>
        <time>2015-04-04T15:35:23Z</time>
      </trkpt>
      <trkpt lat="43.61395" lon="5.54696">
        <ele>492.06</ele>
        <time>2015-04-04T15:35:30Z</time>
      </trkpt>
      <trkpt lat="43.61403" lon="5.54673">
        <ele>490.47</ele>
        <time>2015-04-04T15:35:44Z</time>
      </trkpt>
      <trkpt lat="43.61384" lon="5.54677">
        <ele>490.64</ele>
        <time>2015-04-04T15:35:57Z</time>
      </trkpt>
      <trkpt lat="43.61367" lon="5.5469">
        <ele>490.03</ele>
        <time>2015-04-04T15:36:02Z</time>
      </trkpt>
      <trkpt lat="43.61348" lon="5.54686">
        <ele>488.71</ele>
        <time>2015-04-04T15:36:12Z</time>
      </trkpt>
      <trkpt lat="43.61333" lon="5.54671">
        <ele>487.24</ele>
        <time>2015-04-04T15:36:22Z</time>
      </trkpt>
      <trkpt lat="43.61314" lon="5.54667">
        <ele>485.97</ele>
        <time>2015-04-04T15:36:32Z</time>
      </trkpt>
      <trkpt lat="43.61303" lon="5.54648">
        <ele>484.7</ele>
        <time>2015-04-04T15:37:01Z</time>
      </trkpt>
      <trkpt lat="43.61294" lon="5.54625">
        <ele>481.7</ele>
        <time>2015-04-04T15:37:28Z</time>
      </trkpt>
      <trkpt lat="43.61296" lon="5.546">
        <ele>479.64</ele>
        <time>2015-04-04T15:37:43Z</time>
      </trkpt>
      <trkpt lat="43.613" lon="5.54576">
        <ele>476.57</ele>
        <time>2015-04-04T15:37:55Z</time>
      </trkpt>
      <trkpt lat="43.61281" lon="5.54569">
        <ele>473.49</ele>
        <time>2015-04-04T15:38:05Z</time>
      </trkpt>
      <trkpt lat="43.61262" lon="5.54575">
        <ele>471.02</ele>
        <time>2015-04-04T15:38:12Z</time>
      </trkpt>
      <trkpt lat="43.61265" lon="5.54548">
        <ele>465.46</ele>
        <time>2015-04-04T15:38:31Z</time>
      </trkpt>
      <trkpt lat="43.61277" lon="5.54527">
        <ele>462.63</ele>
        <time>2015-04-04T15:38:39Z</time>
      </trkpt>
      <trkpt lat="43.61288" lon="5.54505">
        <ele>460.13</ele>
        <time>2015-04-04T15:38:46Z</time>
      </trkpt>
      <trkpt lat="43.61309" lon="5.54498">
        <ele>457.36</ele>
        <time>2015-04-04T15:38:54Z</time>
      </trkpt>
      <trkpt lat="43.61328" lon="5.54489">
        <ele>455.96</ele>
        <time>2015-04-04T15:39:01Z</time>
      </trkpt>
      <trkpt lat="43.61348" lon="5.54485">
        <ele>455.02</ele>
        <time>2015-04-04T15:39:09Z</time>
      </trkpt>
      <trkpt lat="43.61367" lon="5.54476">
        <ele>453.26</ele>
        <time>2015-04-04T15:39:17Z</time>
      </trkpt>
      <trkpt lat="43.61385" lon="5.54463">
        <ele>451.7</ele>
        <time>2015-04-04T15:39:24Z</time>
      </trkpt>
      <trkpt lat="43.61403" lon="5.54456">
        <ele>449.6</ele>
        <time>2015-04-04T15:39:32Z</time>
      </trkpt>
      <trkpt lat="43.61422" lon="5.54449">
        <ele>447.58</ele>
        <time>2015-04-04T15:39:40Z</time>
      </trkpt>
      <trkpt lat="43.61439" lon="5.54439">
        <ele>445.48</ele>
        <time>2015-04-04T15:39:47Z</time>
      </trkpt>
      <trkpt lat="43.61459" lon="5.54434">
        <ele>443.27</ele>
        <time>2015-04-04T15:39:53Z</time>
      </trkpt>
      <trkpt lat="43.61478" lon="5.54432">
        <ele>441.2</ele>
        <time>2015-04-04T15:39:59Z</time>
      </trkpt>
      <trkpt lat="43.61497" lon="5.54429">
        <ele>439.24</ele>
        <time>2015-04-04T15:40:05Z</time>
      </trkpt>
      <trkpt lat="43.61516" lon="5.54418">
        <ele>437.52</ele>
        <time>2015-04-04T15:40:12Z</time>
      </trkpt>
      <trkpt lat="43.61532" lon="5.54401">
        <ele>434.81</ele>
        <time>2015-04-04T15:40:21Z</time>
      </trkpt>
      <trkpt lat="43.61544" lon="5.5438">
        <ele>432.3</ele>
        <time>2015-04-04T15:40:30Z</time>
      </trkpt>
      <trkpt lat="43.61558" lon="5.54358">
        <ele>430.71</ele>
        <time>2015-04-04T15:40:36Z</time>
      </trkpt>
      <trkpt lat="43.61569" lon="5.54335">
        <ele>425.16</ele>
        <time>2015-04-04T15:40:41Z</time>
      </trkpt>
      <trkpt lat="43.61578" lon="5.54313">
        <ele>424.05</ele>
        <time>2015-04-04T15:40:47Z</time>
      </trkpt>
      <trkpt lat="43.61578" lon="5.54287">
        <ele>423.04</ele>
        <time>2015-04-04T15:40:53Z</time>
      </trkpt>
      <trkpt lat="43.61581" lon="5.54259">
        <ele>421.6</ele>
        <time>2015-04-04T15:41:00Z</time>
      </trkpt>
      <trkpt lat="43.61579" lon="5.54229">
        <ele>420.12</ele>
        <time>2015-04-04T15:41:06Z</time>
      </trkpt>
      <trkpt lat="43.61577" lon="5.54204">
        <ele>414.31</ele>
        <time>2015-04-04T15:41:10Z</time>
      </trkpt>
      <trkpt lat="43.61588" lon="5.54182">
        <ele>412.99</ele>
        <time>2015-04-04T15:41:16Z</time>
      </trkpt>
      <trkpt lat="43.61595" lon="5.54158">
        <ele>412.1</ele>
        <time>2015-04-04T15:41:22Z</time>
      </trkpt>
      <trkpt lat="43.61597" lon="5.54128">
        <ele>409.32</ele>
        <time>2015-04-04T15:41:28Z</time>
      </trkpt>
      <trkpt lat="43.61602" lon="5.54103">
        <ele>407.8</ele>
        <time>2015-04-04T15:41:35Z</time>
      </trkpt>
      <trkpt lat="43.61607" lon="5.54076">
        <ele>407.01</ele>
        <time>2015-04-04T15:41:41Z</time>
      </trkpt>
      <trkpt lat="43.61619" lon="5.54056">
        <ele>405.76</ele>
        <time>2015-04-04T15:41:47Z</time>
      </trkpt>
      <trkpt lat="43.61626" lon="5.54031">
        <ele>403.86</ele>
        <time>2015-04-04T15:41:55Z</time>
      </trkpt>
      <trkpt lat="43.61644" lon="5.54021">
        <ele>401.17</ele>
        <time>2015-04-04T15:42:04Z</time>
      </trkpt>
      <trkpt lat="43.61625" lon="5.54012">
        <ele>398.84</ele>
        <time>2015-04-04T15:42:17Z</time>
      </trkpt>
      <trkpt lat="43.61608" lon="5.54004">
        <ele>398.56</ele>
        <time>2015-04-04T15:42:23Z</time>
      </trkpt>
      <trkpt lat="43.61593" lon="5.53988">
        <ele>398.73</ele>
        <time>2015-04-04T15:42:29Z</time>
      </trkpt>
      <trkpt lat="43.61576" lon="5.53969">
        <ele>398.56</ele>
        <time>2015-04-04T15:42:36Z</time>
      </trkpt>
      <trkpt lat="43.61563" lon="5.53947">
        <ele>397.65</ele>
        <time>2015-04-04T15:42:41Z</time>
      </trkpt>
      <trkpt lat="43.61553" lon="5.53923">
        <ele>397.59</ele>
        <time>2015-04-04T15:42:46Z</time>
      </trkpt>
      <trkpt lat="43.61543" lon="5.539">
        <ele>398.71</ele>
        <time>2015-04-04T15:42:50Z</time>
      </trkpt>
      <trkpt lat="43.61529" lon="5.5388">
        <ele>399.55</ele>
        <time>2015-04-04T15:42:54Z</time>
      </trkpt>
      <trkpt lat="43.61516" lon="5.53862">
        <ele>400.22</ele>
        <time>2015-04-04T15:42:58Z</time>
      </trkpt>
      <trkpt lat="43.61503" lon="5.53844">
        <ele>403.96</ele>
        <time>2015-04-04T15:43:03Z</time>
      </trkpt>
      <trkpt lat="43.61484" lon="5.53832">
        <ele>405.12</ele>
        <time>2015-04-04T15:43:07Z</time>
      </trkpt>
      <trkpt lat="43.61461" lon="5.53831">
        <ele>405.21</ele>
        <time>2015-04-04T15:43:11Z</time>
      </trkpt>
      <trkpt lat="43.61443" lon="5.53838">
        <ele>405.32</ele>
        <time>2015-04-04T15:43:15Z</time>
      </trkpt>
      <trkpt lat="43.61425" lon="5.53847">
        <ele>405.77</ele>
        <time>2015-04-04T15:43:19Z</time>
      </trkpt>
      <trkpt lat="43.61405" lon="5.53859">
        <ele>405.43</ele>
        <time>2015-04-04T15:43:24Z</time>
      </trkpt>
      <trkpt lat="43.61384" lon="5.5386">
        <ele>406.35</ele>
        <time>2015-04-04T15:43:29Z</time>
      </trkpt>
      <trkpt lat="43.61362" lon="5.53856">
        <ele>404.43</ele>
        <time>2015-04-04T15:43:34Z</time>
      </trkpt>
      <trkpt lat="43.61342" lon="5.53849">
        <ele>407.5</ele>
        <time>2015-04-04T15:43:39Z</time>
      </trkpt>
      <trkpt lat="43.61323" lon="5.53838">
        <ele>408.32</ele>
        <time>2015-04-04T15:43:44Z</time>
      </trkpt>
      <trkpt lat="43.61304" lon="5.53826">
        <ele>410.3</ele>
        <time>2015-04-04T15:43:48Z</time>
      </trkpt>
      <trkpt lat="43.61285" lon="5.53814">
        <ele>411.19</ele>
        <time>2015-04-04T15:43:52Z</time>
      </trkpt>
      <trkpt lat="43.61265" lon="5.53799">
        <ele>412.33</ele>
        <time>2015-04-04T15:43:56Z</time>
      </trkpt>
      <trkpt lat="43.61248" lon="5.53784">
        <ele>415.56</ele>
        <time>2015-04-04T15:44:01Z</time>
      </trkpt>
      <trkpt lat="43.6123" lon="5.5377">
        <ele>416.66</ele>
        <time>2015-04-04T15:44:05Z</time>
      </trkpt>
      <trkpt lat="43.61213" lon="5.53753">
        <ele>414.87</ele>
        <time>2015-04-04T15:44:09Z</time>
      </trkpt>
      <trkpt lat="43.61198" lon="5.53736">
        <ele>416.35</ele>
        <time>2015-04-04T15:44:13Z</time>
      </trkpt>
      <trkpt lat="43.61182" lon="5.53719">
        <ele>416.92</ele>
        <time>2015-04-04T15:44:17Z</time>
      </trkpt>
      <trkpt lat="43.61165" lon="5.53702">
        <ele>417.42</ele>
        <time>2015-04-04T15:44:21Z</time>
      </trkpt>
      <trkpt lat="43.61147" lon="5.53688">
        <ele>417.66</ele>
        <time>2015-04-04T15:44:25Z</time>
      </trkpt>
      <trkpt lat="43.61126" lon="5.53677">
        <ele>421.96</ele>
        <time>2015-04-04T15:44:30Z</time>
      </trkpt>
      <trkpt lat="43.61108" lon="5.53677">
        <ele>425.43</ele>
        <time>2015-04-04T15:44:33Z</time>
      </trkpt>
      <trkpt lat="43.61084" lon="5.53678">
        <ele>423.88</ele>
        <time>2015-04-04T15:44:37Z</time>
      </trkpt>
      <trkpt lat="43.61064" lon="5.53681">
        <ele>424.87</ele>
        <time>2015-04-04T15:44:41Z</time>
      </trkpt>
      <trkpt lat="43.61042" lon="5.53691">
        <ele>428.6</ele>
        <time>2015-04-04T15:44:45Z</time>
      </trkpt>
      <trkpt lat="43.61022" lon="5.53707">
        <ele>431.39</ele>
        <time>2015-04-04T15:44:49Z</time>
      </trkpt>
      <trkpt lat="43.61007" lon="5.53728">
        <ele>432.31</ele>
        <time>2015-04-04T15:44:53Z</time>
      </trkpt>
      <trkpt lat="43.60994" lon="5.53748">
        <ele>430.88</ele>
        <time>2015-04-04T15:44:57Z</time>
      </trkpt>
      <trkpt lat="43.60979" lon="5.53765">
        <ele>427.79</ele>
        <time>2015-04-04T15:45:01Z</time>
      </trkpt>
      <trkpt lat="43.60964" lon="5.53785">
        <ele>427.91</ele>
        <time>2015-04-04T15:45:05Z</time>
      </trkpt>
      <trkpt lat="43.60949" lon="5.53801">
        <ele>429.19</ele>
        <time>2015-04-04T15:45:09Z</time>
      </trkpt>
      <trkpt lat="43.60933" lon="5.53818">
        <ele>432</ele>
        <time>2015-04-04T15:45:14Z</time>
      </trkpt>
      <trkpt lat="43.60913" lon="5.53826">
        <ele>432.93</ele>
        <time>2015-04-04T15:45:20Z</time>
      </trkpt>
      <trkpt lat="43.60895" lon="5.53816">
        <ele>435.06</ele>
        <time>2015-04-04T15:45:25Z</time>
      </trkpt>
      <trkpt lat="43.60873" lon="5.53814">
        <ele>439.36</ele>
        <time>2015-04-04T15:45:30Z</time>
      </trkpt>
      <trkpt lat="43.60851" lon="5.53813">
        <ele>438.87</ele>
        <time>2015-04-04T15:45:35Z</time>
      </trkpt>
      <trkpt lat="43.60831" lon="5.53816">
        <ele>437.96</ele>
        <time>2015-04-04T15:45:39Z</time>
      </trkpt>
      <trkpt lat="43.60808" lon="5.53822">
        <ele>437.62</ele>
        <time>2015-04-04T15:45:43Z</time>
      </trkpt>
      <trkpt lat="43.60786" lon="5.53825">
        <ele>440.78</ele>
        <time>2015-04-04T15:45:47Z</time>
      </trkpt>
      <trkpt lat="43.60768" lon="5.53828">
        <ele>442.83</ele>
        <time>2015-04-04T15:45:50Z</time>
      </trkpt>
      <trkpt lat="43.60749" lon="5.53827">
        <ele>445.45</ele>
        <time>2015-04-04T15:45:54Z</time>
      </trkpt>
      <trkpt lat="43.60731" lon="5.53836">
        <ele>446.52</ele>
        <time>2015-04-04T15:46:00Z</time>
      </trkpt>
      <trkpt lat="43.60713" lon="5.53848">
        <ele>448.08</ele>
        <time>2015-04-04T15:46:05Z</time>
      </trkpt>
      <trkpt lat="43.60694" lon="5.53852">
        <ele>447.3</ele>
        <time>2015-04-04T15:46:09Z</time>
      </trkpt>
      <trkpt lat="43.60675" lon="5.53857">
        <ele>446.2</ele>
        <time>2015-04-04T15:46:14Z</time>
      </trkpt>
      <trkpt lat="43.6066" lon="5.53839">
        <ele>451.71</ele>
        <time>2015-04-04T15:48:55Z</time>
      </trkpt>
      <trkpt lat="43.60647" lon="5.5382">
        <ele>450.42</ele>
        <time>2015-04-04T15:49:06Z</time>
      </trkpt>
      <trkpt lat="43.60645" lon="5.53794">
        <ele>448.17</ele>
        <time>2015-04-04T15:49:16Z</time>
      </trkpt>
      <trkpt lat="43.60646" lon="5.53769">
        <ele>447.09</ele>
        <time>2015-04-04T15:49:23Z</time>
      </trkpt>
      <trkpt lat="43.60642" lon="5.53745">
        <ele>446.72</ele>
        <time>2015-04-04T15:49:31Z</time>
      </trkpt>
      <trkpt lat="43.60624" lon="5.53735">
        <ele>446.52</ele>
        <time>2015-04-04T15:49:39Z</time>
      </trkpt>
      <trkpt lat="43.60608" lon="5.53719">
        <ele>445.53</ele>
        <time>2015-04-04T15:49:46Z</time>
      </trkpt>
      <trkpt lat="43.60606" lon="5.53692">
        <ele>443.73</ele>
        <time>2015-04-04T15:49:53Z</time>
      </trkpt>
      <trkpt lat="43.60601" lon="5.53668">
        <ele>437.87</ele>
        <time>2015-04-04T15:50:12Z</time>
      </trkpt>
      <trkpt lat="43.60618" lon="5.53657">
        <ele>430.42</ele>
        <time>2015-04-04T15:50:44Z</time>
      </trkpt>
      <trkpt lat="43.60631" lon="5.53628">
        <ele>428.7</ele>
        <time>2015-04-04T15:51:06Z</time>
      </trkpt>
      <trkpt lat="43.6064" lon="5.53604">
        <ele>427.14</ele>
        <time>2015-04-04T15:51:17Z</time>
      </trkpt>
      <trkpt lat="43.60635" lon="5.53579">
        <ele>424.52</ele>
        <time>2015-04-04T15:51:29Z</time>
      </trkpt>
      <trkpt lat="43.60624" lon="5.53557">
        <ele>420.82</ele>
        <time>2015-04-04T15:51:40Z</time>
      </trkpt>
      <trkpt lat="43.60607" lon="5.53549">
        <ele>418.48</ele>
        <time>2015-04-04T15:51:46Z</time>
      </trkpt>
      <trkpt lat="43.60588" lon="5.53544">
        <ele>413.86</ele>
        <time>2015-04-04T15:52:01Z</time>
      </trkpt>
      <trkpt lat="43.60595" lon="5.53518">
        <ele>411.74</ele>
        <time>2015-04-04T15:52:19Z</time>
      </trkpt>
      <trkpt lat="43.60609" lon="5.53502">
        <ele>410.18</ele>
        <time>2015-04-04T15:52:31Z</time>
      </trkpt>
      <trkpt lat="43.60629" lon="5.53494">
        <ele>408.17</ele>
        <time>2015-04-04T15:52:37Z</time>
      </trkpt>
      <trkpt lat="43.60643" lon="5.53476">
        <ele>406.32</ele>
        <time>2015-04-04T15:52:42Z</time>
      </trkpt>
      <trkpt lat="43.60662" lon="5.53464">
        <ele>401.31</ele>
        <time>2015-04-04T15:52:47Z</time>
      </trkpt>
      <trkpt lat="43.60679" lon="5.53453">
        <ele>392.88</ele>
        <time>2015-04-04T15:52:52Z</time>
      </trkpt>
      <trkpt lat="43.60694" lon="5.53435">
        <ele>384.62</ele>
        <time>2015-04-04T15:52:57Z</time>
      </trkpt>
      <trkpt lat="43.60708" lon="5.53417">
        <ele>381.07</ele>
        <time>2015-04-04T15:53:04Z</time>
      </trkpt>
      <trkpt lat="43.60723" lon="5.53399">
        <ele>378.77</ele>
        <time>2015-04-04T15:53:10Z</time>
      </trkpt>
      <trkpt lat="43.60739" lon="5.5338">
        <ele>377.33</ele>
        <time>2015-04-04T15:53:15Z</time>
      </trkpt>
      <trkpt lat="43.60752" lon="5.53358">
        <ele>376.1</ele>
        <time>2015-04-04T15:53:20Z</time>
      </trkpt>
      <trkpt lat="43.60765" lon="5.5334">
        <ele>375.48</ele>
        <time>2015-04-04T15:53:25Z</time>
      </trkpt>
      <trkpt lat="43.60782" lon="5.5332">
        <ele>376.93</ele>
        <time>2015-04-04T15:53:30Z</time>
      </trkpt>
      <trkpt lat="43.60795" lon="5.533">
        <ele>376.24</ele>
        <time>2015-04-04T15:53:34Z</time>
      </trkpt>
      <trkpt lat="43.60803" lon="5.53272">
        <ele>376.16</ele>
        <time>2015-04-04T15:53:38Z</time>
      </trkpt>
      <trkpt lat="43.60801" lon="5.53245">
        <ele>376.14</ele>
        <time>2015-04-04T15:53:43Z</time>
      </trkpt>
      <trkpt lat="43.60796" lon="5.53219">
        <ele>375.24</ele>
        <time>2015-04-04T15:53:49Z</time>
      </trkpt>
      <trkpt lat="43.60803" lon="5.53192">
        <ele>373.48</ele>
        <time>2015-04-04T15:53:55Z</time>
      </trkpt>
      <trkpt lat="43.60806" lon="5.53167">
        <ele>369.79</ele>
        <time>2015-04-04T15:54:01Z</time>
      </trkpt>
      <trkpt lat="43.60808" lon="5.53142">
        <ele>369.58</ele>
        <time>2015-04-04T15:54:06Z</time>
      </trkpt>
      <trkpt lat="43.60812" lon="5.53117">
        <ele>370.52</ele>
        <time>2015-04-04T15:54:25Z</time>
      </trkpt>
      <trkpt lat="43.60807" lon="5.5309">
        <ele>375.6</ele>
        <time>2015-04-04T15:55:07Z</time>
      </trkpt>
      <trkpt lat="43.6081" lon="5.53065">
        <ele>377.58</ele>
        <time>2015-04-04T15:55:16Z</time>
      </trkpt>
      <trkpt lat="43.60804" lon="5.5304">
        <ele>378.3</ele>
        <time>2015-04-04T15:55:23Z</time>
      </trkpt>
      <trkpt lat="43.60794" lon="5.53018">
        <ele>378.45</ele>
        <time>2015-04-04T15:55:28Z</time>
      </trkpt>
      <trkpt lat="43.608" lon="5.52994">
        <ele>377.83</ele>
        <time>2015-04-04T15:55:34Z</time>
      </trkpt>
      <trkpt lat="43.60803" lon="5.52967">
        <ele>376.76</ele>
        <time>2015-04-04T15:55:39Z</time>
      </trkpt>
      <trkpt lat="43.60801" lon="5.52937">
        <ele>375.12</ele>
        <time>2015-04-04T15:55:44Z</time>
      </trkpt>
      <trkpt lat="43.60795" lon="5.52913">
        <ele>373.49</ele>
        <time>2015-04-04T15:55:49Z</time>
      </trkpt>
      <trkpt lat="43.60779" lon="5.52891">
        <ele>372.06</ele>
        <time>2015-04-04T15:55:55Z</time>
      </trkpt>
      <trkpt lat="43.60773" lon="5.52866">
        <ele>370.67</ele>
        <time>2015-04-04T15:56:01Z</time>
      </trkpt>
      <trkpt lat="43.6078" lon="5.52835">
        <ele>369.33</ele>
        <time>2015-04-04T15:56:06Z</time>
      </trkpt>
      <trkpt lat="43.60785" lon="5.52807">
        <ele>367.86</ele>
        <time>2015-04-04T15:56:11Z</time>
      </trkpt>
      <trkpt lat="43.60785" lon="5.52781">
        <ele>367.18</ele>
        <time>2015-04-04T15:56:15Z</time>
      </trkpt>
      <trkpt lat="43.60786" lon="5.52755">
        <ele>367.23</ele>
        <time>2015-04-04T15:56:19Z</time>
      </trkpt>
      <trkpt lat="43.60783" lon="5.5273">
        <ele>367.8</ele>
        <time>2015-04-04T15:56:24Z</time>
      </trkpt>
      <trkpt lat="43.60776" lon="5.52704">
        <ele>368.34</ele>
        <time>2015-04-04T15:56:29Z</time>
      </trkpt>
      <trkpt lat="43.60775" lon="5.52674">
        <ele>368.91</ele>
        <time>2015-04-04T15:56:34Z</time>
      </trkpt>
      <trkpt lat="43.60773" lon="5.52646">
        <ele>369.99</ele>
        <time>2015-04-04T15:56:39Z</time>
      </trkpt>
      <trkpt lat="43.60769" lon="5.52614">
        <ele>369.78</ele>
        <time>2015-04-04T15:56:43Z</time>
      </trkpt>
      <trkpt lat="43.60764" lon="5.52584">
        <ele>371</ele>
        <time>2015-04-04T15:56:47Z</time>
      </trkpt>
      <trkpt lat="43.60757" lon="5.52556">
        <ele>372.73</ele>
        <time>2015-04-04T15:56:51Z</time>
      </trkpt>
      <trkpt lat="43.60747" lon="5.52532">
        <ele>373.15</ele>
        <time>2015-04-04T15:56:55Z</time>
      </trkpt>
      <trkpt lat="43.60733" lon="5.52516">
        <ele>371.24</ele>
        <time>2015-04-04T15:56:59Z</time>
      </trkpt>
      <trkpt lat="43.60716" lon="5.52498">
        <ele>367.98</ele>
        <time>2015-04-04T15:57:04Z</time>
      </trkpt>
      <trkpt lat="43.60705" lon="5.52477">
        <ele>366.67</ele>
        <time>2015-04-04T15:57:08Z</time>
      </trkpt>
      <trkpt lat="43.60705" lon="5.52448">
        <ele>366.75</ele>
        <time>2015-04-04T15:57:13Z</time>
      </trkpt>
      <trkpt lat="43.60704" lon="5.52423">
        <ele>367.04</ele>
        <time>2015-04-04T15:57:18Z</time>
      </trkpt>
      <trkpt lat="43.60707" lon="5.52397">
        <ele>366.52</ele>
        <time>2015-04-04T15:57:52Z</time>
      </trkpt>
      <trkpt lat="43.6071" lon="5.52368">
        <ele>366.49</ele>
        <time>2015-04-04T15:57:59Z</time>
      </trkpt>
      <trkpt lat="43.60707" lon="5.52339">
        <ele>366.69</ele>
        <time>2015-04-04T15:58:04Z</time>
      </trkpt>
      <trkpt lat="43.60703" lon="5.52313">
        <ele>366.92</ele>
        <time>2015-04-04T15:58:09Z</time>
      </trkpt>
      <trkpt lat="43.60706" lon="5.52283">
        <ele>366.58</ele>
        <time>2015-04-04T15:58:14Z</time>
      </trkpt>
      <trkpt lat="43.60709" lon="5.52255">
        <ele>365.88</ele>
        <time>2015-04-04T15:58:19Z</time>
      </trkpt>
      <trkpt lat="43.60713" lon="5.52229">
        <ele>363.09</ele>
        <time>2015-04-04T15:58:23Z</time>
      </trkpt>
      <trkpt lat="43.60716" lon="5.522">
        <ele>360.7</ele>
        <time>2015-04-04T15:58:28Z</time>
      </trkpt>
      <trkpt lat="43.6072" lon="5.52173">
        <ele>358.65</ele>
        <time>2015-04-04T15:58:32Z</time>
      </trkpt>
      <trkpt lat="43.60727" lon="5.52147">
        <ele>354.27</ele>
        <time>2015-04-04T15:58:36Z</time>
      </trkpt>
      <trkpt lat="43.60729" lon="5.52118">
        <ele>348.71</ele>
        <time>2015-04-04T15:58:41Z</time>
      </trkpt>
      <trkpt lat="43.60737" lon="5.52091">
        <ele>347.62</ele>
        <time>2015-04-04T15:58:47Z</time>
      </trkpt>
      <trkpt lat="43.60753" lon="5.52079">
        <ele>346.49</ele>
        <time>2015-04-04T15:58:53Z</time>
      </trkpt>
      <trkpt lat="43.60747" lon="5.52055">
        <ele>344.58</ele>
        <time>2015-04-04T15:59:03Z</time>
      </trkpt>
      <trkpt lat="43.60728" lon="5.52045">
        <ele>342.02</ele>
        <time>2015-04-04T15:59:08Z</time>
      </trkpt>
      <trkpt lat="43.60708" lon="5.52054">
        <ele>338.28</ele>
        <time>2015-04-04T15:59:14Z</time>
      </trkpt>
      <trkpt lat="43.60706" lon="5.52026">
        <ele>334.04</ele>
        <time>2015-04-04T15:59:29Z</time>
      </trkpt>
      <trkpt lat="43.60718" lon="5.52004">
        <ele>333.78</ele>
        <time>2015-04-04T15:59:34Z</time>
      </trkpt>
      <trkpt lat="43.60736" lon="5.51996">
        <ele>333.4</ele>
        <time>2015-04-04T15:59:40Z</time>
      </trkpt>
      <trkpt lat="43.60755" lon="5.52001">
        <ele>332.49</ele>
        <time>2015-04-04T15:59:46Z</time>
      </trkpt>
      <trkpt lat="43.60774" lon="5.52011">
        <ele>329.66</ele>
        <time>2015-04-04T15:59:52Z</time>
      </trkpt>
      <trkpt lat="43.60792" lon="5.52023">
        <ele>328.45</ele>
        <time>2015-04-04T15:59:57Z</time>
      </trkpt>
      <trkpt lat="43.60811" lon="5.52034">
        <ele>327.83</ele>
        <time>2015-04-04T16:00:01Z</time>
      </trkpt>
      <trkpt lat="43.60828" lon="5.52048">
        <ele>326.32</ele>
        <time>2015-04-04T16:00:05Z</time>
      </trkpt>
      <trkpt lat="43.60845" lon="5.52065">
        <ele>327.14</ele>
        <time>2015-04-04T16:00:10Z</time>
      </trkpt>
      <trkpt lat="43.60863" lon="5.5208">
        <ele>328.18</ele>
        <time>2015-04-04T16:00:14Z</time>
      </trkpt>
      <trkpt lat="43.60881" lon="5.52091">
        <ele>330.44</ele>
        <time>2015-04-04T16:00:18Z</time>
      </trkpt>
      <trkpt lat="43.60898" lon="5.52106">
        <ele>332.12</ele>
        <time>2015-04-04T16:00:23Z</time>
      </trkpt>
      <trkpt lat="43.60915" lon="5.52117">
        <ele>330.42</ele>
        <time>2015-04-04T16:00:27Z</time>
      </trkpt>
      <trkpt lat="43.60935" lon="5.52128">
        <ele>328.81</ele>
        <time>2015-04-04T16:00:31Z</time>
      </trkpt>
      <trkpt lat="43.60954" lon="5.52138">
        <ele>327.71</ele>
        <time>2015-04-04T16:00:35Z</time>
      </trkpt>
      <trkpt lat="43.60975" lon="5.52146">
        <ele>326.2</ele>
        <time>2015-04-04T16:00:40Z</time>
      </trkpt>
      <trkpt lat="43.60995" lon="5.52152">
        <ele>323.47</ele>
        <time>2015-04-04T16:00:44Z</time>
      </trkpt>
      <trkpt lat="43.61017" lon="5.52161">
        <ele>322.01</ele>
        <time>2015-04-04T16:00:48Z</time>
      </trkpt>
      <trkpt lat="43.61035" lon="5.52166">
        <ele>321.35</ele>
        <time>2015-04-04T16:00:51Z</time>
      </trkpt>
      <trkpt lat="43.61055" lon="5.52167">
        <ele>321.06</ele>
        <time>2015-04-04T16:00:54Z</time>
      </trkpt>
      <trkpt lat="43.61076" lon="5.52169">
        <ele>321.51</ele>
        <time>2015-04-04T16:00:58Z</time>
      </trkpt>
      <trkpt lat="43.61094" lon="5.5217">
        <ele>321.7</ele>
        <time>2015-04-04T16:01:02Z</time>
      </trkpt>
      <trkpt lat="43.61116" lon="5.52172">
        <ele>323.37</ele>
        <time>2015-04-04T16:01:06Z</time>
      </trkpt>
      <trkpt lat="43.61136" lon="5.52173">
        <ele>324.68</ele>
        <time>2015-04-04T16:01:10Z</time>
      </trkpt>
      <trkpt lat="43.61157" lon="5.52172">
        <ele>325.27</ele>
        <time>2015-04-04T16:01:14Z</time>
      </trkpt>
      <trkpt lat="43.61175" lon="5.52175">
        <ele>324.14</ele>
        <time>2015-04-04T16:01:18Z</time>
      </trkpt>
      <trkpt lat="43.61196" lon="5.52177">
        <ele>323.54</ele>
        <time>2015-04-04T16:01:23Z</time>
      </trkpt>
      <trkpt lat="43.61214" lon="5.52179">
        <ele>322.17</ele>
        <time>2015-04-04T16:01:27Z</time>
      </trkpt>
      <trkpt lat="43.61232" lon="5.52183">
        <ele>320.73</ele>
        <time>2015-04-04T16:01:32Z</time>
      </trkpt>
      <trkpt lat="43.61252" lon="5.52188">
        <ele>318.71</ele>
        <time>2015-04-04T16:01:37Z</time>
      </trkpt>
      <trkpt lat="43.61271" lon="5.5219">
        <ele>316.63</ele>
        <time>2015-04-04T16:01:40Z</time>
      </trkpt>
      <trkpt lat="43.61292" lon="5.52192">
        <ele>316.79</ele>
        <time>2015-04-04T16:01:43Z</time>
      </trkpt>
      <trkpt lat="43.61311" lon="5.52196">
        <ele>317.05</ele>
        <time>2015-04-04T16:01:46Z</time>
      </trkpt>
      <trkpt lat="43.61329" lon="5.52201">
        <ele>317.05</ele>
        <time>2015-04-04T16:01:49Z</time>
      </trkpt>
      <trkpt lat="43.6135" lon="5.52205">
        <ele>317.93</ele>
        <time>2015-04-04T16:01:53Z</time>
      </trkpt>
      <trkpt lat="43.6137" lon="5.52209">
        <ele>319.31</ele>
        <time>2015-04-04T16:01:57Z</time>
      </trkpt>
      <trkpt lat="43.61391" lon="5.52214">
        <ele>320.67</ele>
        <time>2015-04-04T16:02:01Z</time>
      </trkpt>
      <trkpt lat="43.61411" lon="5.52217">
        <ele>321.95</ele>
        <time>2015-04-04T16:02:05Z</time>
      </trkpt>
      <trkpt lat="43.61433" lon="5.52221">
        <ele>322.4</ele>
        <time>2015-04-04T16:02:09Z</time>
      </trkpt>
      <trkpt lat="43.61452" lon="5.52226">
        <ele>320.9</ele>
        <time>2015-04-04T16:02:13Z</time>
      </trkpt>
      <trkpt lat="43.61471" lon="5.5223">
        <ele>320.27</ele>
        <time>2015-04-04T16:02:18Z</time>
      </trkpt>
      <trkpt lat="43.61482" lon="5.5225">
        <ele>319.02</ele>
        <time>2015-04-04T16:02:22Z</time>
      </trkpt>
      <trkpt lat="43.61503" lon="5.52252">
        <ele>318.48</ele>
        <time>2015-04-04T16:02:28Z</time>
      </trkpt>
      <trkpt lat="43.61522" lon="5.52248">
        <ele>318.59</ele>
        <time>2015-04-04T16:02:32Z</time>
      </trkpt>
      <trkpt lat="43.61544" lon="5.52251">
        <ele>318.15</ele>
        <time>2015-04-04T16:02:36Z</time>
      </trkpt>
      <trkpt lat="43.61566" lon="5.52255">
        <ele>318.45</ele>
        <time>2015-04-04T16:02:40Z</time>
      </trkpt>
      <trkpt lat="43.61585" lon="5.52256">
        <ele>317.11</ele>
        <time>2015-04-04T16:02:44Z</time>
      </trkpt>
      <trkpt lat="43.61607" lon="5.52255">
        <ele>316.75</ele>
        <time>2015-04-04T16:02:48Z</time>
      </trkpt>
      <trkpt lat="43.61631" lon="5.52252">
        <ele>317.94</ele>
        <time>2015-04-04T16:02:52Z</time>
      </trkpt>
      <trkpt lat="43.61649" lon="5.52249">
        <ele>318.73</ele>
        <time>2015-04-04T16:02:55Z</time>
      </trkpt>
      <trkpt lat="43.61668" lon="5.52246">
        <ele>319.88</ele>
        <time>2015-04-04T16:02:58Z</time>
      </trkpt>
      <trkpt lat="43.61686" lon="5.52242">
        <ele>319.33</ele>
        <time>2015-04-04T16:03:01Z</time>
      </trkpt>
      <trkpt lat="43.61705" lon="5.52238">
        <ele>319.14</ele>
        <time>2015-04-04T16:03:04Z</time>
      </trkpt>
      <trkpt lat="43.61728" lon="5.52232">
        <ele>320.79</ele>
        <time>2015-04-04T16:03:08Z</time>
      </trkpt>
      <trkpt lat="43.61745" lon="5.52228">
        <ele>320.66</ele>
        <time>2015-04-04T16:03:11Z</time>
      </trkpt>
      <trkpt lat="43.61768" lon="5.52221">
        <ele>318.77</ele>
        <time>2015-04-04T16:03:14Z</time>
      </trkpt>
      <trkpt lat="43.61792" lon="5.52211">
        <ele>316.85</ele>
        <time>2015-04-04T16:03:17Z</time>
      </trkpt>
      <trkpt lat="43.61809" lon="5.52203">
        <ele>315.69</ele>
        <time>2015-04-04T16:03:20Z</time>
      </trkpt>
      <trkpt lat="43.61827" lon="5.52195">
        <ele>316.2</ele>
        <time>2015-04-04T16:03:23Z</time>
      </trkpt>
      <trkpt lat="43.6185" lon="5.52186">
        <ele>316.93</ele>
        <time>2015-04-04T16:03:27Z</time>
      </trkpt>
      <trkpt lat="43.61869" lon="5.52177">
        <ele>316.8</ele>
        <time>2015-04-04T16:03:31Z</time>
      </trkpt>
      <trkpt lat="43.61889" lon="5.52164">
        <ele>315.13</ele>
        <time>2015-04-04T16:03:36Z</time>
      </trkpt>
      <trkpt lat="43.61908" lon="5.52154">
        <ele>314.34</ele>
        <time>2015-04-04T16:03:40Z</time>
      </trkpt>
      <trkpt lat="43.61929" lon="5.52142">
        <ele>313.42</ele>
        <time>2015-04-04T16:03:44Z</time>
      </trkpt>
      <trkpt lat="43.61951" lon="5.5213">
        <ele>313.29</ele>
        <time>2015-04-04T16:03:48Z</time>
      </trkpt>
      <trkpt lat="43.61969" lon="5.52123">
        <ele>313.24</ele>
        <time>2015-04-04T16:03:51Z</time>
      </trkpt>
      <trkpt lat="43.61992" lon="5.52118">
        <ele>312.78</ele>
        <time>2015-04-04T16:03:55Z</time>
      </trkpt>
      <trkpt lat="43.62013" lon="5.52115">
        <ele>310.53</ele>
        <time>2015-04-04T16:03:59Z</time>
      </trkpt>
      <trkpt lat="43.62033" lon="5.52111">
        <ele>308.45</ele>
        <time>2015-04-04T16:04:03Z</time>
      </trkpt>
      <trkpt lat="43.62056" lon="5.52105">
        <ele>307.67</ele>
        <time>2015-04-04T16:04:07Z</time>
      </trkpt>
      <trkpt lat="43.62079" lon="5.52102">
        <ele>306.07</ele>
        <time>2015-04-04T16:04:11Z</time>
      </trkpt>
      <trkpt lat="43.62099" lon="5.521">
        <ele>305.61</ele>
        <time>2015-04-04T16:04:15Z</time>
      </trkpt>
      <trkpt lat="43.62118" lon="5.52092">
        <ele>304.8</ele>
        <time>2015-04-04T16:04:19Z</time>
      </trkpt>
      <trkpt lat="43.62137" lon="5.52077">
        <ele>305.89</ele>
        <time>2015-04-04T16:04:23Z</time>
      </trkpt>
      <trkpt lat="43.62154" lon="5.52058">
        <ele>307.62</ele>
        <time>2015-04-04T16:04:27Z</time>
      </trkpt>
      <trkpt lat="43.62168" lon="5.52038">
        <ele>308.06</ele>
        <time>2015-04-04T16:04:31Z</time>
      </trkpt>
      <trkpt lat="43.62186" lon="5.52018">
        <ele>305.84</ele>
        <time>2015-04-04T16:04:35Z</time>
      </trkpt>
      <trkpt lat="43.62204" lon="5.52006">
        <ele>305.6</ele>
        <time>2015-04-04T16:04:39Z</time>
      </trkpt>
      <trkpt lat="43.62226" lon="5.51997">
        <ele>305.33</ele>
        <time>2015-04-04T16:04:43Z</time>
      </trkpt>
      <trkpt lat="43.62245" lon="5.5199">
        <ele>306.05</ele>
        <time>2015-04-04T16:04:46Z</time>
      </trkpt>
      <trkpt lat="43.62269" lon="5.51986">
        <ele>307.14</ele>
        <time>2015-04-04T16:04:50Z</time>
      </trkpt>
      <trkpt lat="43.62293" lon="5.51981">
        <ele>308.4</ele>
        <time>2015-04-04T16:04:54Z</time>
      </trkpt>
      <trkpt lat="43.62316" lon="5.51979">
        <ele>308.47</ele>
        <time>2015-04-04T16:04:58Z</time>
      </trkpt>
      <trkpt lat="43.62338" lon="5.51977">
        <ele>308.71</ele>
        <time>2015-04-04T16:05:01Z</time>
      </trkpt>
      <trkpt lat="43.62363" lon="5.51977">
        <ele>308.71</ele>
        <time>2015-04-04T16:05:04Z</time>
      </trkpt>
      <trkpt lat="43.62384" lon="5.5198">
        <ele>308.88</ele>
        <time>2015-04-04T16:05:07Z</time>
      </trkpt>
      <trkpt lat="43.624" lon="5.51966">
        <ele>309.47</ele>
        <time>2015-04-04T16:05:12Z</time>
      </trkpt>
      <trkpt lat="43.62417" lon="5.51956">
        <ele>308.26</ele>
        <time>2015-04-04T16:05:18Z</time>
      </trkpt>
      <trkpt lat="43.62437" lon="5.5197">
        <ele>306.04</ele>
        <time>2015-04-04T16:05:22Z</time>
      </trkpt>
      <trkpt lat="43.62457" lon="5.51982">
        <ele>302.98</ele>
        <time>2015-04-04T16:05:26Z</time>
      </trkpt>
      <trkpt lat="43.62479" lon="5.51994">
        <ele>301.28</ele>
        <time>2015-04-04T16:05:30Z</time>
      </trkpt>
      <trkpt lat="43.625" lon="5.52005">
        <ele>301.14</ele>
        <time>2015-04-04T16:05:34Z</time>
      </trkpt>
      <trkpt lat="43.62521" lon="5.52016">
        <ele>299.32</ele>
        <time>2015-04-04T16:05:38Z</time>
      </trkpt>
      <trkpt lat="43.62539" lon="5.52027">
        <ele>298.69</ele>
        <time>2015-04-04T16:05:41Z</time>
      </trkpt>
      <trkpt lat="43.62559" lon="5.5204">
        <ele>298.14</ele>
        <time>2015-04-04T16:05:44Z</time>
      </trkpt>
      <trkpt lat="43.62577" lon="5.52053">
        <ele>298.52</ele>
        <time>2015-04-04T16:05:47Z</time>
      </trkpt>
      <trkpt lat="43.62594" lon="5.52065">
        <ele>300.3</ele>
        <time>2015-04-04T16:05:50Z</time>
      </trkpt>
      <trkpt lat="43.62613" lon="5.52079">
        <ele>302.14</ele>
        <time>2015-04-04T16:05:54Z</time>
      </trkpt>
      <trkpt lat="43.62633" lon="5.52092">
        <ele>300.87</ele>
        <time>2015-04-04T16:05:58Z</time>
      </trkpt>
      <trkpt lat="43.62651" lon="5.52104">
        <ele>301.66</ele>
        <time>2015-04-04T16:06:02Z</time>
      </trkpt>
      <trkpt lat="43.62671" lon="5.52104">
        <ele>301.36</ele>
        <time>2015-04-04T16:06:06Z</time>
      </trkpt>
      <trkpt lat="43.6269" lon="5.52103">
        <ele>298.96</ele>
        <time>2015-04-04T16:06:10Z</time>
      </trkpt>
      <trkpt lat="43.62711" lon="5.5212">
        <ele>295.24</ele>
        <time>2015-04-04T16:06:14Z</time>
      </trkpt>
      <trkpt lat="43.62731" lon="5.52134">
        <ele>294.78</ele>
        <time>2015-04-04T16:06:18Z</time>
      </trkpt>
      <trkpt lat="43.62754" lon="5.52141">
        <ele>293.77</ele>
        <time>2015-04-04T16:06:22Z</time>
      </trkpt>
      <trkpt lat="43.62777" lon="5.52145">
        <ele>293</ele>
        <time>2015-04-04T16:06:26Z</time>
      </trkpt>
      <trkpt lat="43.62797" lon="5.52147">
        <ele>294.82</ele>
        <time>2015-04-04T16:06:30Z</time>
      </trkpt>
      <trkpt lat="43.62817" lon="5.52146">
        <ele>297.36</ele>
        <time>2015-04-04T16:06:34Z</time>
      </trkpt>
      <trkpt lat="43.62835" lon="5.52155">
        <ele>298.53</ele>
        <time>2015-04-04T16:06:39Z</time>
      </trkpt>
      <trkpt lat="43.62839" lon="5.52182">
        <ele>301.58</ele>
        <time>2015-04-04T16:06:43Z</time>
      </trkpt>
      <trkpt lat="43.62847" lon="5.52209">
        <ele>300.92</ele>
        <time>2015-04-04T16:06:46Z</time>
      </trkpt>
      <trkpt lat="43.62865" lon="5.52237">
        <ele>299.45</ele>
        <time>2015-04-04T16:06:49Z</time>
      </trkpt>
      <trkpt lat="43.62883" lon="5.52251">
        <ele>298.34</ele>
        <time>2015-04-04T16:06:51Z</time>
      </trkpt>
      <trkpt lat="43.62902" lon="5.52265">
        <ele>296.37</ele>
        <time>2015-04-04T16:06:53Z</time>
      </trkpt>
      <trkpt lat="43.62918" lon="5.52279">
        <ele>294.26</ele>
        <time>2015-04-04T16:06:55Z</time>
      </trkpt>
      <trkpt lat="43.62938" lon="5.52299">
        <ele>292.03</ele>
        <time>2015-04-04T16:06:58Z</time>
      </trkpt>
      <trkpt lat="43.6296" lon="5.52307">
        <ele>290.08</ele>
        <time>2015-04-04T16:07:01Z</time>
      </trkpt>
      <trkpt lat="43.62981" lon="5.52298">
        <ele>289.3</ele>
        <time>2015-04-04T16:07:04Z</time>
      </trkpt>
      <trkpt lat="43.63001" lon="5.52265">
        <ele>288.05</ele>
        <time>2015-04-04T16:07:08Z</time>
      </trkpt>
      <trkpt lat="43.6301" lon="5.5224">
        <ele>286.3</ele>
        <time>2015-04-04T16:07:11Z</time>
      </trkpt>
      <trkpt lat="43.63019" lon="5.52215">
        <ele>284.8</ele>
        <time>2015-04-04T16:07:14Z</time>
      </trkpt>
      <trkpt lat="43.63027" lon="5.52184">
        <ele>286.86</ele>
        <time>2015-04-04T16:07:18Z</time>
      </trkpt>
      <trkpt lat="43.63033" lon="5.52161">
        <ele>288.12</ele>
        <time>2015-04-04T16:07:21Z</time>
      </trkpt>
      <trkpt lat="43.63045" lon="5.52136">
        <ele>288.54</ele>
        <time>2015-04-04T16:07:25Z</time>
      </trkpt>
      <trkpt lat="43.63064" lon="5.52118">
        <ele>287.85</ele>
        <time>2015-04-04T16:07:30Z</time>
      </trkpt>
      <trkpt lat="43.63079" lon="5.52106">
        <ele>287.32</ele>
        <time>2015-04-04T16:07:34Z</time>
      </trkpt>
      <trkpt lat="43.63096" lon="5.52093">
        <ele>286.52</ele>
        <time>2015-04-04T16:07:38Z</time>
      </trkpt>
      <trkpt lat="43.63115" lon="5.52081">
        <ele>286.83</ele>
        <time>2015-04-04T16:07:43Z</time>
      </trkpt>
      <trkpt lat="43.63135" lon="5.5207">
        <ele>289.55</ele>
        <time>2015-04-04T16:07:48Z</time>
      </trkpt>
      <trkpt lat="43.63154" lon="5.52055">
        <ele>287.78</ele>
        <time>2015-04-04T16:07:52Z</time>
      </trkpt>
      <trkpt lat="43.63178" lon="5.52058">
        <ele>286.08</ele>
        <time>2015-04-04T16:07:56Z</time>
      </trkpt>
      <trkpt lat="43.63197" lon="5.52076">
        <ele>288.02</ele>
        <time>2015-04-04T16:08:00Z</time>
      </trkpt>
      <trkpt lat="43.63211" lon="5.52099">
        <ele>289.1</ele>
        <time>2015-04-04T16:08:04Z</time>
      </trkpt>
      <trkpt lat="43.63223" lon="5.52122">
        <ele>290.36</ele>
        <time>2015-04-04T16:08:08Z</time>
      </trkpt>
      <trkpt lat="43.63234" lon="5.52143">
        <ele>292.99</ele>
        <time>2015-04-04T16:08:12Z</time>
      </trkpt>
      <trkpt lat="43.63246" lon="5.52167">
        <ele>292.85</ele>
        <time>2015-04-04T16:08:17Z</time>
      </trkpt>
      <trkpt lat="43.63257" lon="5.52189">
        <ele>289.74</ele>
        <time>2015-04-04T16:08:21Z</time>
      </trkpt>
      <trkpt lat="43.63277" lon="5.52185">
        <ele>287.79</ele>
        <time>2015-04-04T16:08:28Z</time>
      </trkpt>
      <trkpt lat="43.63288" lon="5.52159">
        <ele>287.59</ele>
        <time>2015-04-04T16:08:32Z</time>
      </trkpt>
      <trkpt lat="43.633" lon="5.5213">
        <ele>288.44</ele>
        <time>2015-04-04T16:08:36Z</time>
      </trkpt>
      <trkpt lat="43.63309" lon="5.52108">
        <ele>290.41</ele>
        <time>2015-04-04T16:08:40Z</time>
      </trkpt>
      <trkpt lat="43.63317" lon="5.52086">
        <ele>291.51</ele>
        <time>2015-04-04T16:08:44Z</time>
      </trkpt>
      <trkpt lat="43.63329" lon="5.5206">
        <ele>292.45</ele>
        <time>2015-04-04T16:08:48Z</time>
      </trkpt>
      <trkpt lat="43.63342" lon="5.52032">
        <ele>293.18</ele>
        <time>2015-04-04T16:08:52Z</time>
      </trkpt>
      <trkpt lat="43.63354" lon="5.52008">
        <ele>293.75</ele>
        <time>2015-04-04T16:08:56Z</time>
      </trkpt>
      <trkpt lat="43.63367" lon="5.51986">
        <ele>294.15</ele>
        <time>2015-04-04T16:09:00Z</time>
      </trkpt>
      <trkpt lat="43.63383" lon="5.51966">
        <ele>295.87</ele>
        <time>2015-04-04T16:09:04Z</time>
      </trkpt>
      <trkpt lat="43.63401" lon="5.51952">
        <ele>298.71</ele>
        <time>2015-04-04T16:09:08Z</time>
      </trkpt>
      <trkpt lat="43.63423" lon="5.51944">
        <ele>300.08</ele>
        <time>2015-04-04T16:09:12Z</time>
      </trkpt>
      <trkpt lat="43.63441" lon="5.51938">
        <ele>301.27</ele>
        <time>2015-04-04T16:09:15Z</time>
      </trkpt>
      <trkpt lat="43.6346" lon="5.51931">
        <ele>301.24</ele>
        <time>2015-04-04T16:09:18Z</time>
      </trkpt>
      <trkpt lat="43.63478" lon="5.51923">
        <ele>300.74</ele>
        <time>2015-04-04T16:09:21Z</time>
      </trkpt>
      <trkpt lat="43.63496" lon="5.51908">
        <ele>298.97</ele>
        <time>2015-04-04T16:09:24Z</time>
      </trkpt>
      <trkpt lat="43.63508" lon="5.51886">
        <ele>299.75</ele>
        <time>2015-04-04T16:09:27Z</time>
      </trkpt>
      <trkpt lat="43.63516" lon="5.5186">
        <ele>302</ele>
        <time>2015-04-04T16:09:31Z</time>
      </trkpt>
      <trkpt lat="43.63521" lon="5.51834">
        <ele>302.36</ele>
        <time>2015-04-04T16:09:34Z</time>
      </trkpt>
      <trkpt lat="43.63526" lon="5.51806">
        <ele>302.6</ele>
        <time>2015-04-04T16:09:37Z</time>
      </trkpt>
      <trkpt lat="43.63529" lon="5.51781">
        <ele>303.94</ele>
        <time>2015-04-04T16:09:40Z</time>
      </trkpt>
      <trkpt lat="43.63528" lon="5.51754">
        <ele>306.41</ele>
        <time>2015-04-04T16:09:43Z</time>
      </trkpt>
      <trkpt lat="43.63521" lon="5.51723">
        <ele>310.68</ele>
        <time>2015-04-04T16:09:47Z</time>
      </trkpt>
      <trkpt lat="43.63517" lon="5.51695">
        <ele>313.05</ele>
        <time>2015-04-04T16:09:52Z</time>
      </trkpt>
      <trkpt lat="43.63516" lon="5.51665">
        <ele>317.78</ele>
        <time>2015-04-04T16:09:57Z</time>
      </trkpt>
      <trkpt lat="43.63505" lon="5.51643">
        <ele>318.1</ele>
        <time>2015-04-04T16:10:00Z</time>
      </trkpt>
      <trkpt lat="43.63501" lon="5.51616">
        <ele>318.12</ele>
        <time>2015-04-04T16:10:03Z</time>
      </trkpt>
      <trkpt lat="43.63498" lon="5.51591">
        <ele>318.86</ele>
        <time>2015-04-04T16:10:05Z</time>
      </trkpt>
      <trkpt lat="43.63498" lon="5.51561">
        <ele>319.04</ele>
        <time>2015-04-04T16:10:07Z</time>
      </trkpt>
      <trkpt lat="43.635" lon="5.51529">
        <ele>318.09</ele>
        <time>2015-04-04T16:10:09Z</time>
      </trkpt>
      <trkpt lat="43.63503" lon="5.51496">
        <ele>315.61</ele>
        <time>2015-04-04T16:10:11Z</time>
      </trkpt>
      <trkpt lat="43.63504" lon="5.51464">
        <ele>312.59</ele>
        <time>2015-04-04T16:10:13Z</time>
      </trkpt>
      <trkpt lat="43.63504" lon="5.51436">
        <ele>309.82</ele>
        <time>2015-04-04T16:10:15Z</time>
      </trkpt>
      <trkpt lat="43.63503" lon="5.51404">
        <ele>305.57</ele>
        <time>2015-04-04T16:10:18Z</time>
      </trkpt>
      <trkpt lat="43.63496" lon="5.51375">
        <ele>300.54</ele>
        <time>2015-04-04T16:10:22Z</time>
      </trkpt>
      <trkpt lat="43.63486" lon="5.51351">
        <ele>296.31</ele>
        <time>2015-04-04T16:10:26Z</time>
      </trkpt>
      <trkpt lat="43.63492" lon="5.51326">
        <ele>296.95</ele>
        <time>2015-04-04T16:10:29Z</time>
      </trkpt>
      <trkpt lat="43.63501" lon="5.51298">
        <ele>297.46</ele>
        <time>2015-04-04T16:10:32Z</time>
      </trkpt>
      <trkpt lat="43.63514" lon="5.51277">
        <ele>298.93</ele>
        <time>2015-04-04T16:10:35Z</time>
      </trkpt>
      <trkpt lat="43.63518" lon="5.51252">
        <ele>298.23</ele>
        <time>2015-04-04T16:10:39Z</time>
      </trkpt>
      <trkpt lat="43.63511" lon="5.51227">
        <ele>298.26</ele>
        <time>2015-04-04T16:10:44Z</time>
      </trkpt>
      <trkpt lat="43.63507" lon="5.512">
        <ele>300.38</ele>
        <time>2015-04-04T16:10:47Z</time>
      </trkpt>
      <trkpt lat="43.63504" lon="5.51172">
        <ele>302.2</ele>
        <time>2015-04-04T16:10:50Z</time>
      </trkpt>
      <trkpt lat="43.63501" lon="5.51145">
        <ele>304.35</ele>
        <time>2015-04-04T16:10:54Z</time>
      </trkpt>
      <trkpt lat="43.63486" lon="5.5113">
        <ele>304.55</ele>
        <time>2015-04-04T16:10:58Z</time>
      </trkpt>
      <trkpt lat="43.63469" lon="5.5111">
        <ele>303.1</ele>
        <time>2015-04-04T16:11:01Z</time>
      </trkpt>
      <trkpt lat="43.63449" lon="5.51086">
        <ele>300.62</ele>
        <time>2015-04-04T16:11:04Z</time>
      </trkpt>
      <trkpt lat="43.63432" lon="5.51061">
        <ele>299.2</ele>
        <time>2015-04-04T16:11:07Z</time>
      </trkpt>
      <trkpt lat="43.63427" lon="5.51031">
        <ele>299.48</ele>
        <time>2015-04-04T16:11:10Z</time>
      </trkpt>
      <trkpt lat="43.63435" lon="5.51008">
        <ele>299.25</ele>
        <time>2015-04-04T16:11:13Z</time>
      </trkpt>
      <trkpt lat="43.63452" lon="5.50984">
        <ele>298.21</ele>
        <time>2015-04-04T16:11:17Z</time>
      </trkpt>
      <trkpt lat="43.6346" lon="5.50958">
        <ele>298.13</ele>
        <time>2015-04-04T16:11:20Z</time>
      </trkpt>
      <trkpt lat="43.63464" lon="5.50925">
        <ele>298.04</ele>
        <time>2015-04-04T16:11:24Z</time>
      </trkpt>
      <trkpt lat="43.63455" lon="5.50896">
        <ele>298.13</ele>
        <time>2015-04-04T16:11:27Z</time>
      </trkpt>
      <trkpt lat="43.63447" lon="5.50867">
        <ele>297.24</ele>
        <time>2015-04-04T16:11:30Z</time>
      </trkpt>
      <trkpt lat="43.63443" lon="5.5084">
        <ele>297.7</ele>
        <time>2015-04-04T16:11:33Z</time>
      </trkpt>
      <trkpt lat="43.63438" lon="5.50813">
        <ele>298.05</ele>
        <time>2015-04-04T16:11:36Z</time>
      </trkpt>
      <trkpt lat="43.63431" lon="5.50785">
        <ele>297.56</ele>
        <time>2015-04-04T16:11:39Z</time>
      </trkpt>
      <trkpt lat="43.63412" lon="5.50787">
        <ele>299.05</ele>
        <time>2015-04-04T16:11:49Z</time>
      </trkpt>
      <trkpt lat="43.63402" lon="5.50809">
        <ele>302.81</ele>
        <time>2015-04-04T16:11:53Z</time>
      </trkpt>
      <trkpt lat="43.6339" lon="5.50835">
        <ele>308.14</ele>
        <time>2015-04-04T16:11:57Z</time>
      </trkpt>
      <trkpt lat="43.63379" lon="5.5086">
        <ele>312.76</ele>
        <time>2015-04-04T16:12:01Z</time>
      </trkpt>
      <trkpt lat="43.63368" lon="5.50888">
        <ele>313.09</ele>
        <time>2015-04-04T16:12:05Z</time>
      </trkpt>
      <trkpt lat="43.63356" lon="5.50915">
        <ele>312.91</ele>
        <time>2015-04-04T16:12:08Z</time>
      </trkpt>
      <trkpt lat="43.63344" lon="5.50943">
        <ele>312.16</ele>
        <time>2015-04-04T16:12:11Z</time>
      </trkpt>
      <trkpt lat="43.63329" lon="5.50967">
        <ele>312.2</ele>
        <time>2015-04-04T16:12:14Z</time>
      </trkpt>
      <trkpt lat="43.63308" lon="5.50982">
        <ele>313.46</ele>
        <time>2015-04-04T16:12:18Z</time>
      </trkpt>
      <trkpt lat="43.6329" lon="5.50991">
        <ele>314.99</ele>
        <time>2015-04-04T16:12:21Z</time>
      </trkpt>
      <trkpt lat="43.63269" lon="5.51001">
        <ele>315.25</ele>
        <time>2015-04-04T16:12:25Z</time>
      </trkpt>
      <trkpt lat="43.63284" lon="5.51018">
        <ele>318.43</ele>
        <time>2015-04-04T16:14:16Z</time>
      </trkpt>
      <trkpt lat="43.63267" lon="5.5104">
        <ele>339.79</ele>
        <time>2015-04-04T16:26:57Z</time>
      </trkpt>
    </trkseg>
  </trk>
</gpx>